[[{"header":{"parameterUnit":"m.s-1","parameterCategory":1,"la1":31.0,"la2":29.5877,"lo1":-88.7671,"lo2":-86.6584,"dy":0.0162,"dx":0.0185,"nx":115,"ny":88,"refTime":"2023-05-05T06:00:00:Z","depth":0,"parameterNumber":2,"parameterNumberName":"U-component_of_WINDS"},"data":[0.0,0.0,0.0,0.0,0.0,0.0,0.0,0.0,0.0,0.0,0.0,0.0,0.0,0.0,0.0,0.0,0.0,0.0,0.0,0.0,0.0,0.0,0.0,0.0,0.0,0.0,0.0,0.0,0.0,0.0,0.0,0.0,0.0,0.0,0.0,0.0,0.0,0.0,0.0,0.0,0.0,0.0,0.0,0.0,0.0,0.0,0.0,0.0,0.0,0.0,0.0,0.0,0.0,0.0,0.0,0.0,0.0,0.0,0.0,0.0,0.0,0.0,0.0,0.0,0.0,0.0,0.0,0.0,0.0,0.0,0.0,0.0,0.0,0.0,0.0,0.0,0.0,0.0,0.0,0.0,0.0,0.0,0.0,0.0,0.0,0.0,0.0,0.0,0.0,0.0,0.0,0.0,0.0,0.0,0.0,0.0,0.0,0.0,0.0,0.0,0.0,0.0,0.0,0.0,0.0,0.0,0.0,0.0,0.0,0.0,0.0,0.0,0.0,0.0,0.0,0.0,0.0,0.0,0.0,0.0,0.0,0.0,0.0,0.0,0.0,0.0,0.0,0.0,0.0,0.0,0.0,0.0,0.0,0.0,0.0,0.0,0.0,0.0,0.0,0.0,0.0,0.0,0.0,0.0,0.0,0.0,0.0,0.0,0.0,0.0,0.0,0.0,0.0,0.0,0.0,0.0,0.0,0.0,0.0,0.0,0.0,0.0,0.0,0.0,0.0,0.0,0.0,0.0,0.0,0.0,0.0,0.0,0.0,0.0,0.0,0.0,0.0,0.0,0.0,0.0,0.0,0.0,0.0,0.0,0.0,0.0,0.0,0.0,0.0,0.0,0.0,0.0,0.0,0.0,0.0,0.0,0.0,0.0,0.0,0.0,0.0,0.0,0.0,0.0,0.0,0.0,0.0,0.0,0.0,0.0,0.0,0.0,0.0,0.0,0.0,0.0,0.0,0.0,0.0,0.0,0.0,0.0,0.0,0.0,0.0,0.0,0.0,0.0,0.0,0.0,0.0,0.0,0.0,0.0,0.0,0.0,0.0,0.0,0.0,0.0,0.0,0.0,0.0,0.0,0.0,0.0,0.0,0.0,0.0,0.0,0.0,0.0,0.0,0.0,0.0,0.0,0.0,0.0,0.0,0.0,0.0,0.0,0.0,0.0,0.0,0.0,0.0,0.0,0.0,0.0,0.0,0.0,0.0,0.0,0.0,0.0,0.0,0.0,0.0,0.0,0.0,0.0,0.0,0.0,0.0,0.0,0.0,0.0,0.0,0.0,0.0,0.0,0.0,0.0,0.0,0.0,0.0,0.0,0.0,0.0,0.0,0.0,0.0,0.0,0.0,0.0,0.0,0.0,0.0,0.0,0.0,0.0,0.0,0.0,0.0,0.0,0.0,0.0,0.0,0.0,0.0,0.0,0.0,0.0,0.0,0.0,0.0,0.0,0.0,0.0,0.0,0.0,0.0,0.0,0.0,0.0,0.0,0.0,0.0,0.0,0.0,0.0,0.0,0.0,0.0,0.0,0.0,0.0,0.0,0.0,0.0,0.0,0.0,0.0,0.0,0.0,0.0,0.0,0.0,0.0,0.0,0.0,0.0,0.0,0.0,0.0,0.0,0.0,0.0,0.0,0.0,0.0,0.0,0.0,0.0,0.0,0.0,0.0,0.0,0.0,0.0,0.0,0.0,0.0,0.0,0.0,0.0,0.0,0.0,0.0,0.0,0.0,0.0,0.0,0.0,0.0,0.0,0.0,0.0,0.0,0.0,0.0,0.0,0.0,0.0,0.0,0.0,0.0,0.0,0.0,0.0,0.0,0.0,0.0,0.0,0.0,0.0,0.0,0.0,0.0,0.0,0.0,0.0,0.0,0.0,0.0,0.0,0.0,0.0,0.0,0.0,0.0,0.0,0.0,0.0,0.0,0.0,0.0,0.0,0.0,0.0,0.0,0.0,0.0,0.0,0.0,0.0,0.0,0.0,0.0,0.0,0.0,0.0,0.0,0.0,0.0,0.0,0.0,0.0,0.0,0.0,0.0,0.0,0.0,0.0,0.0,0.0,0.0,0.0,0.0,0.0,0.0,0.0,0.0,0.0,0.0,0.0,0.0,0.0,0.0,0.0,0.0,0.0,0.0,0.0,0.0,0.0,0.0,0.0,0.0,0.0,0.0,0.0,0.0,0.0,0.0,0.0,0.0,0.0,0.0,0.0,0.0,0.0,0.0,0.0,0.0,0.0,0.0,0.0,0.0,0.0,0.0,0.0,0.0,0.0,0.0,0.0,0.0,0.0,0.0,0.0,0.0,0.0,0.0,0.0,0.0,0.0,0.0,0.0,0.0,0.0,0.0,0.0,0.0,0.0,0.0,0.0,0.0,0.0,0.0,0.0,0.0,0.0,0.0,0.0,0.0,0.0,0.0,0.0,0.0,0.0,0.0,0.0,0.0,0.0,0.0,0.0,0.0,0.0,0.0,0.0,0.0,0.0,0.0,0.0,0.0,0.0,0.0,0.0,0.0,0.0,0.0,0.0,0.0,0.0,0.0,0.0,0.0,0.0,0.0,0.0,0.0,0.0,0.0,0.0,0.0,0.0,0.0,0.0,0.0,0.0,0.0,0.0,0.0,0.0,0.0,0.0,0.0,0.0,0.0,0.0,0.0,0.0,0.0,0.0,0.0,0.0,0.0,0.0,0.0,0.0,0.0,0.0,0.0,0.0,0.0,0.0,0.0,0.0,0.0,0.0,0.0,0.0,0.0,0.0,0.0,0.0,0.0,0.0,0.0,0.0,0.0,0.0,0.0,0.0,0.0,0.0,0.0,0.0,0.0,0.0,0.0,0.0,0.0,0.0,0.0,0.0,0.0,0.0,0.0,0.0,0.0,0.0,0.0,0.0,0.0,0.0,0.0,0.0,0.0,0.0,0.0,0.0,0.0,0.0,0.0,0.0,0.0,0.0,0.0,0.0,0.0,0.0,0.0,0.0,0.0,0.0,0.0,0.0,0.0,0.0,0.0,0.0,0.0,0.0,0.0,0.0,0.0,0.0,0.0,0.0,0.0,0.0,0.0,0.0,0.0,0.0,0.0,0.0,0.0,0.0,0.0,0.0,0.0,0.0,0.0,0.0,0.0,0.0,0.0,0.0,0.0,0.0,0.0,0.0,0.0,0.0,0.0,0.0,0.0,0.0,0.0,0.0,0.0,0.0,0.0,0.0,0.0,0.0,0.0,0.0,0.0,0.0,0.0,0.0,0.0,0.0,0.0,0.0,0.0,0.0,0.0,0.0,0.0,0.0,0.0,0.0,0.0,0.0,0.0,0.0,0.0,0.0,0.0,0.0,0.0,0.0,0.0,0.0,0.0,0.0,0.0,0.0,0.0,0.0,0.0,0.0,0.0,0.0,0.0,0.0,0.0,0.0,0.0,0.0,0.0,0.0,0.0,0.0,0.0,0.0,0.0,0.0,0.0,0.0,0.0,0.0,0.0,0.0,0.0,0.0,0.0,0.0,0.0,0.0,0.0,0.0,0.0,0.0,0.0,0.0,0.0,0.0,0.0,0.0,0.0,0.0,0.0,0.0,0.0,0.0,0.0,0.0,0.0,0.0,0.0,0.0,0.0,0.0,0.0,0.0,0.0,0.0,0.0,0.0,0.0,0.0,0.0,0.0,0.0,0.0,0.0,0.0,0.0,0.0,0.0,0.0,0.0,0.0,0.0,0.0,0.0,0.0,0.0,0.0,0.0,0.0,0.0,0.0,0.0,0.0,0.0,0.0,0.0,0.0,0.0,0.0,0.0,0.0,0.0,0.0,0.0,0.0,0.0,0.0,0.0,0.0,0.0,0.0,0.0,0.0,0.0,0.0,0.0,0.0,0.0,0.0,0.0,0.0,0.0,0.0,0.0,0.0,0.0,0.0,0.0,0.0,0.0,0.0,0.0,0.0,0.0,0.0,0.0,0.0,0.0,0.0,0.0,0.0,0.0,0.0,0.0,0.0,0.0,0.0,0.0,0.0,0.0,0.0,0.0,0.0,0.0,0.0,0.0,0.0,0.0,0.0,0.0,0.0,0.0,0.0,0.0,0.0,0.0,0.0,0.0,0.0,0.0,0.0,0.0,0.0,0.0,0.0,0.0,0.0,0.0,0.0,0.0,0.0,0.0,0.0,0.0,0.0,0.0,0.0,0.0,0.0,0.0,0.0,0.0,0.0,0.0,0.0,0.0,0.0,0.0,0.0,0.0,0.0,0.0,0.0,0.0,0.0,0.0,0.0,0.0,-4.05,0.0,0.0,0.0,0.0,0.0,0.0,0.0,0.0,0.0,0.0,0.0,0.0,0.0,0.0,0.0,0.0,0.0,0.0,0.0,0.0,0.0,0.0,0.0,0.0,0.0,0.0,0.0,0.0,0.0,0.0,0.0,0.0,0.0,0.0,0.0,0.0,0.0,0.0,0.0,0.0,0.0,0.0,0.0,0.0,0.0,0.0,0.0,0.0,0.0,0.0,0.0,0.0,0.0,0.0,0.0,0.0,0.0,0.0,0.0,0.0,0.0,0.0,0.0,0.0,0.0,0.0,0.0,0.0,0.0,0.0,0.0,0.0,0.0,0.0,0.0,0.0,0.0,0.0,0.0,0.0,0.0,0.0,0.0,0.0,0.0,0.0,0.0,0.0,0.0,0.0,0.0,0.0,0.0,0.0,0.0,0.0,0.0,0.0,0.0,0.0,0.0,0.0,0.0,0.0,0.0,0.0,0.0,0.0,0.0,0.0,-4.0615,-4.0776,-4.0987,-4.092,-4.0534,0.0,0.0,0.0,0.0,0.0,0.0,0.0,0.0,0.0,0.0,0.0,0.0,0.0,0.0,0.0,0.0,0.0,0.0,0.0,0.0,0.0,0.0,0.0,0.0,0.0,0.0,0.0,0.0,0.0,0.0,0.0,0.0,0.0,0.0,0.0,0.0,0.0,0.0,0.0,0.0,0.0,0.0,0.0,0.0,0.0,0.0,0.0,0.0,0.0,0.0,0.0,0.0,0.0,0.0,0.0,0.0,0.0,0.0,0.0,0.0,0.0,0.0,0.0,0.0,0.0,0.0,0.0,0.0,0.0,0.0,0.0,0.0,0.0,0.0,0.0,0.0,0.0,0.0,0.0,0.0,0.0,0.0,0.0,0.0,0.0,0.0,0.0,0.0,0.0,0.0,0.0,0.0,0.0,0.0,0.0,0.0,0.0,0.0,0.0,0.0,0.0,0.0,0.0,0.0,0.0,0.0,0.0,0.0,0.0,0.0,0.0,0.0,-4.1543,-4.1306,-4.0532,0.0,0.0,0.0,0.0,0.0,0.0,0.0,0.0,0.0,0.0,0.0,0.0,0.0,0.0,0.0,0.0,0.0,0.0,0.0,0.0,0.0,0.0,0.0,0.0,0.0,0.0,0.0,0.0,0.0,0.0,0.0,0.0,0.0,0.0,0.0,0.0,0.0,0.0,0.0,0.0,0.0,0.0,0.0,0.0,0.0,0.0,0.0,0.0,0.0,0.0,0.0,0.0,0.0,0.0,0.0,0.0,0.0,0.0,0.0,0.0,0.0,0.0,0.0,0.0,0.0,0.0,0.0,0.0,0.0,0.0,0.0,0.0,0.0,0.0,0.0,0.0,0.0,0.0,0.0,0.0,0.0,0.0,0.0,0.0,0.0,0.0,0.0,0.0,0.0,0.0,0.0,0.0,0.0,0.0,0.0,0.0,0.0,0.0,0.0,0.0,0.0,0.0,0.0,0.0,0.0,0.0,0.0,0.0,0.0,0.0,-4.1731,-4.1315,-4.1514,0.0,-4.0551,0.0,0.0,0.0,0.0,0.0,0.0,0.0,0.0,0.0,0.0,0.0,0.0,0.0,0.0,0.0,0.0,0.0,0.0,0.0,0.0,0.0,0.0,0.0,0.0,0.0,0.0,0.0,0.0,0.0,0.0,0.0,0.0,0.0,0.0,0.0,0.0,0.0,0.0,0.0,0.0,0.0,0.0,0.0,0.0,0.0,0.0,0.0,0.0,0.0,0.0,0.0,0.0,0.0,0.0,0.0,0.0,0.0,0.0,0.0,0.0,0.0,0.0,0.0,0.0,0.0,0.0,0.0,0.0,0.0,0.0,0.0,0.0,0.0,0.0,0.0,0.0,0.0,0.0,0.0,0.0,0.0,0.0,0.0,0.0,0.0,0.0,0.0,0.0,0.0,0.0,0.0,0.0,0.0,0.0,0.0,0.0,0.0,0.0,0.0,0.0,0.0,0.0,0.0,0.0,0.0,0.0,0.0,0.0,0.0,0.0,-4.2045,-4.2023,-4.1772,-4.1515,0.0,0.0,0.0,0.0,0.0,0.0,0.0,0.0,0.0,0.0,0.0,0.0,0.0,0.0,0.0,0.0,0.0,0.0,0.0,0.0,0.0,0.0,0.0,0.0,0.0,0.0,0.0,0.0,0.0,0.0,0.0,0.0,0.0,0.0,0.0,0.0,0.0,0.0,0.0,0.0,0.0,0.0,0.0,0.0,0.0,0.0,0.0,0.0,0.0,0.0,0.0,0.0,0.0,0.0,0.0,0.0,0.0,0.0,0.0,0.0,0.0,0.0,0.0,0.0,0.0,0.0,0.0,0.0,0.0,0.0,0.0,0.0,0.0,0.0,0.0,0.0,0.0,0.0,0.0,0.0,0.0,0.0,0.0,0.0,0.0,0.0,0.0,0.0,0.0,0.0,0.0,0.0,0.0,0.0,0.0,0.0,0.0,0.0,0.0,0.0,0.0,0.0,0.0,0.0,0.0,0.0,0.0,0.0,0.0,0.0,-4.2361,-4.2762,-4.2873,-4.2116,-4.1686,-4.1681,0.0,0.0,0.0,0.0,0.0,0.0,0.0,0.0,0.0,0.0,0.0,0.0,0.0,0.0,0.0,0.0,0.0,0.0,0.0,0.0,0.0,0.0,0.0,0.0,0.0,0.0,0.0,0.0,0.0,0.0,0.0,0.0,0.0,0.0,0.0,0.0,0.0,0.0,0.0,0.0,0.0,0.0,0.0,0.0,0.0,0.0,0.0,0.0,0.0,0.0,0.0,0.0,0.0,0.0,0.0,0.0,0.0,0.0,0.0,0.0,0.0,0.0,0.0,0.0,0.0,0.0,0.0,0.0,0.0,0.0,0.0,0.0,0.0,0.0,0.0,0.0,0.0,0.0,0.0,0.0,0.0,0.0,0.0,0.0,0.0,0.0,0.0,0.0,0.0,0.0,0.0,0.0,0.0,0.0,0.0,0.0,0.0,0.0,0.0,0.0,0.0,0.0,0.0,0.0,0.0,0.0,0.0,0.0,-4.2588,-4.3602,-4.4114,-4.3918,-4.2431,-4.1632,0.0,0.0,0.0,0.0,0.0,0.0,0.0,0.0,0.0,0.0,0.0,0.0,0.0,0.0,0.0,0.0,0.0,0.0,0.0,0.0,0.0,0.0,0.0,0.0,0.0,0.0,0.0,0.0,0.0,0.0,0.0,0.0,0.0,0.0,0.0,0.0,0.0,0.0,0.0,0.0,0.0,0.0,0.0,0.0,0.0,0.0,0.0,0.0,0.0,0.0,0.0,0.0,0.0,0.0,0.0,0.0,0.0,0.0,0.0,0.0,0.0,0.0,0.0,0.0,0.0,0.0,0.0,0.0,0.0,0.0,0.0,0.0,0.0,0.0,0.0,0.0,0.0,0.0,0.0,0.0,0.0,0.0,0.0,0.0,0.0,0.0,0.0,0.0,0.0,0.0,0.0,0.0,0.0,0.0,0.0,0.0,0.0,0.0,0.0,0.0,0.0,0.0,0.0,0.0,0.0,0.0,0.0,0.0,0.0,-4.2599,-4.3367,-4.4102,-4.4641,-4.3712,-4.2957,0.0,0.0,0.0,0.0,0.0,0.0,0.0,0.0,0.0,0.0,0.0,0.0,0.0,0.0,0.0,0.0,0.0,0.0,0.0,0.0,0.0,0.0,0.0,0.0,0.0,0.0,0.0,0.0,0.0,0.0,0.0,0.0,0.0,0.0,0.0,0.0,0.0,0.0,0.0,0.0,0.0,0.0,0.0,0.0,0.0,0.0,0.0,0.0,0.0,0.0,0.0,0.0,0.0,0.0,0.0,0.0,0.0,0.0,0.0,0.0,0.0,0.0,0.0,0.0,0.0,0.0,0.0,0.0,0.0,0.0,0.0,0.0,0.0,0.0,0.0,0.0,0.0,0.0,0.0,0.0,0.0,0.0,0.0,0.0,0.0,0.0,0.0,0.0,0.0,0.0,0.0,0.0,0.0,0.0,0.0,0.0,0.0,0.0,0.0,0.0,0.0,0.0,0.0,0.0,0.0,0.0,0.0,0.0,0.0,-4.3873,0.0,-4.4909,-4.5387,-4.4505,-4.3596,0.0,0.0,0.0,0.0,0.0,0.0,0.0,0.0,0.0,0.0,0.0,0.0,0.0,0.0,0.0,0.0,0.0,0.0,0.0,0.0,0.0,0.0,0.0,0.0,0.0,0.0,0.0,0.0,0.0,0.0,0.0,0.0,0.0,0.0,0.0,0.0,0.0,0.0,0.0,0.0,0.0,0.0,0.0,0.0,0.0,0.0,0.0,0.0,0.0,0.0,0.0,0.0,0.0,0.0,0.0,0.0,0.0,0.0,0.0,0.0,0.0,0.0,0.0,0.0,0.0,0.0,0.0,0.0,0.0,0.0,0.0,0.0,0.0,0.0,0.0,0.0,0.0,0.0,0.0,0.0,0.0,0.0,0.0,0.0,0.0,0.0,0.0,0.0,0.0,0.0,0.0,0.0,0.0,0.0,0.0,0.0,0.0,0.0,0.0,0.0,0.0,0.0,0.0,0.0,0.0,0.0,0.0,0.0,-4.5307,-4.6607,-4.6813,-4.6655,-4.6208,-4.4729,-4.3504,0.0,0.0,0.0,0.0,0.0,0.0,0.0,0.0,0.0,0.0,0.0,0.0,0.0,0.0,0.0,0.0,0.0,0.0,0.0,0.0,0.0,0.0,0.0,0.0,0.0,0.0,0.0,0.0,0.0,0.0,0.0,0.0,0.0,0.0,0.0,0.0,0.0,0.0,0.0,0.0,0.0,0.0,0.0,0.0,0.0,0.0,0.0,0.0,0.0,0.0,0.0,0.0,0.0,0.0,0.0,0.0,0.0,0.0,0.0,0.0,0.0,0.0,0.0,0.0,0.0,0.0,0.0,0.0,0.0,0.0,0.0,0.0,0.0,0.0,0.0,0.0,0.0,0.0,0.0,0.0,0.0,0.0,0.0,0.0,0.0,0.0,0.0,0.0,0.0,0.0,0.0,0.0,0.0,0.0,0.0,0.0,0.0,0.0,0.0,0.0,0.0,0.0,0.0,0.0,0.0,0.0,0.0,0.0,0.0,-4.7222,-4.6987,-4.7116,-4.7565,-4.6171,-4.5019,0.0,0.0,0.0,0.0,0.0,0.0,0.0,0.0,0.0,0.0,0.0,0.0,0.0,0.0,0.0,0.0,0.0,0.0,0.0,0.0,0.0,0.0,0.0,0.0,0.0,0.0,0.0,0.0,0.0,0.0,0.0,0.0,0.0,0.0,0.0,0.0,0.0,0.0,0.0,0.0,0.0,0.0,0.0,0.0,0.0,0.0,0.0,0.0,0.0,0.0,0.0,0.0,0.0,0.0,0.0,0.0,0.0,0.0,0.0,0.0,0.0,0.0,0.0,0.0,0.0,0.0,0.0,0.0,0.0,0.0,0.0,0.0,0.0,0.0,0.0,0.0,0.0,0.0,0.0,0.0,0.0,0.0,0.0,0.0,0.0,0.0,0.0,0.0,0.0,0.0,0.0,0.0,0.0,0.0,0.0,0.0,0.0,0.0,0.0,0.0,0.0,0.0,0.0,0.0,0.0,0.0,0.0,0.0,0.0,-4.8399,-4.8396,-4.8569,-4.8987,-4.7841,-4.6516,-4.5157,0.0,0.0,0.0,0.0,0.0,0.0,0.0,0.0,0.0,0.0,0.0,0.0,0.0,0.0,0.0,0.0,0.0,0.0,0.0,0.0,0.0,0.0,0.0,0.0,0.0,0.0,0.0,0.0,0.0,0.0,0.0,0.0,0.0,0.0,0.0,0.0,0.0,0.0,0.0,0.0,0.0,0.0,0.0,0.0,0.0,0.0,0.0,0.0,0.0,0.0,0.0,0.0,0.0,0.0,0.0,0.0,0.0,0.0,0.0,0.0,0.0,0.0,0.0,0.0,0.0,0.0,0.0,0.0,0.0,0.0,0.0,0.0,0.0,0.0,0.0,0.0,0.0,0.0,0.0,0.0,0.0,0.0,0.0,0.0,0.0,0.0,0.0,0.0,0.0,0.0,0.0,0.0,0.0,0.0,0.0,0.0,0.0,0.0,0.0,0.0,0.0,0.0,0.0,0.0,0.0,0.0,0.0,0.0,-5.0077,-5.0737,-5.0767,-5.0207,-4.9387,-4.7909,0.0,0.0,0.0,0.0,0.0,0.0,0.0,0.0,0.0,0.0,0.0,0.0,0.0,0.0,0.0,0.0,0.0,0.0,0.0,0.0,0.0,0.0,0.0,0.0,0.0,0.0,0.0,0.0,0.0,0.0,0.0,0.0,0.0,0.0,0.0,0.0,0.0,0.0,0.0,0.0,0.0,0.0,0.0,0.0,0.0,0.0,0.0,0.0,0.0,0.0,0.0,0.0,0.0,0.0,0.0,0.0,0.0,0.0,0.0,0.0,0.0,0.0,0.0,0.0,0.0,0.0,0.0,0.0,0.0,0.0,0.0,0.0,0.0,0.0,0.0,0.0,0.0,0.0,0.0,0.0,0.0,0.0,0.0,0.0,0.0,0.0,0.0,0.0,0.0,0.0,0.0,0.0,0.0,0.0,0.0,0.0,0.0,0.0,0.0,0.0,0.0,0.0,0.0,0.0,0.0,0.0,0.0,0.0,0.0,-5.1341,-5.1764,-5.1496,-5.0517,-4.9289,-4.8122,0.0,0.0,0.0,0.0,0.0,0.0,0.0,0.0,0.0,0.0,0.0,0.0,0.0,0.0,0.0,0.0,0.0,0.0,0.0,0.0,0.0,0.0,0.0,0.0,0.0,0.0,0.0,0.0,0.0,0.0,0.0,0.0,0.0,0.0,0.0,0.0,0.0,0.0,0.0,0.0,0.0,0.0,0.0,0.0,0.0,0.0,0.0,0.0,0.0,0.0,0.0,0.0,0.0,0.0,0.0,0.0,0.0,0.0,0.0,0.0,0.0,0.0,0.0,0.0,0.0,0.0,0.0,0.0,0.0,0.0,0.0,0.0,0.0,0.0,0.0,0.0,0.0,0.0,0.0,0.0,0.0,0.0,0.0,0.0,0.0,0.0,0.0,0.0,0.0,0.0,0.0,0.0,0.0,0.0,0.0,0.0,0.0,0.0,0.0,0.0,0.0,0.0,0.0,0.0,0.0,0.0,0.0,0.0,-5.0343,-5.2068,-5.2663,-5.2443,-5.1475,-5.0271,-4.9143,0.0,0.0,0.0,0.0,0.0,0.0,0.0,0.0,0.0,0.0,0.0,0.0,0.0,0.0,0.0,0.0,0.0,0.0,0.0,0.0,0.0,0.0,0.0,0.0,0.0,0.0,0.0,0.0,0.0,0.0,0.0,0.0,0.0,0.0,0.0,0.0,0.0,0.0,0.0,0.0,0.0,0.0,0.0,0.0,0.0,0.0,0.0,0.0,0.0,0.0,0.0,0.0,0.0,0.0,0.0,0.0,0.0,0.0,0.0,0.0,0.0,0.0,0.0,0.0,0.0,0.0,0.0,0.0,0.0,0.0,0.0,0.0,0.0,0.0,0.0,0.0,0.0,0.0,0.0,0.0,0.0,0.0,0.0,0.0,0.0,0.0,0.0,0.0,0.0,0.0,0.0,0.0,0.0,0.0,0.0,0.0,0.0,0.0,0.0,0.0,0.0,0.0,0.0,0.0,0.0,0.0,0.0,0.0,-5.0647,-5.2439,-5.3326,-5.3407,-5.2687,-5.1748,-5.0498,0.0,0.0,0.0,0.0,0.0,0.0,0.0,0.0,0.0,0.0,0.0,0.0,0.0,0.0,0.0,0.0,0.0,0.0,0.0,0.0,0.0,0.0,0.0,0.0,0.0,0.0,0.0,0.0,0.0,0.0,0.0,0.0,0.0,0.0,0.0,0.0,0.0,0.0,0.0,0.0,0.0,0.0,0.0,0.0,0.0,0.0,0.0,0.0,0.0,0.0,0.0,0.0,0.0,0.0,0.0,0.0,0.0,0.0,0.0,0.0,0.0,0.0,0.0,0.0,0.0,0.0,0.0,0.0,0.0,0.0,0.0,0.0,0.0,0.0,0.0,0.0,0.0,0.0,0.0,0.0,0.0,0.0,0.0,0.0,0.0,0.0,0.0,0.0,0.0,0.0,0.0,0.0,0.0,0.0,0.0,0.0,0.0,0.0,0.0,0.0,0.0,0.0,0.0,0.0,0.0,0.0,0.0,0.0,-5.1282,-5.2986,-5.3291,-5.3356,-5.3225,-5.2106,-5.0564,0.0,0.0,0.0,0.0,0.0,0.0,0.0,0.0,0.0,0.0,0.0,0.0,0.0,0.0,0.0,0.0,0.0,0.0,0.0,0.0,0.0,0.0,0.0,0.0,0.0,0.0,0.0,0.0,0.0,0.0,0.0,0.0,0.0,0.0,0.0,0.0,0.0,0.0,0.0,0.0,0.0,0.0,0.0,0.0,0.0,0.0,0.0,0.0,-4.4704,0.0,0.0,0.0,0.0,0.0,0.0,0.0,0.0,0.0,0.0,0.0,0.0,0.0,0.0,0.0,0.0,0.0,0.0,0.0,0.0,0.0,0.0,0.0,0.0,0.0,0.0,0.0,0.0,0.0,0.0,0.0,0.0,0.0,0.0,0.0,0.0,0.0,0.0,0.0,0.0,0.0,0.0,0.0,0.0,0.0,0.0,0.0,0.0,0.0,0.0,0.0,0.0,0.0,0.0,0.0,0.0,0.0,0.0,0.0,-5.1425,-5.284,-5.3579,-5.3702,-5.307,-5.2459,-5.0964,0.0,0.0,0.0,0.0,0.0,0.0,0.0,0.0,0.0,0.0,0.0,0.0,0.0,0.0,0.0,0.0,0.0,0.0,0.0,0.0,0.0,0.0,0.0,0.0,0.0,0.0,0.0,0.0,0.0,0.0,0.0,0.0,0.0,0.0,0.0,0.0,0.0,0.0,0.0,0.0,0.0,0.0,0.0,0.0,0.0,0.0,0.0,0.0,0.0,0.0,0.0,0.0,0.0,0.0,0.0,0.0,0.0,0.0,0.0,0.0,0.0,0.0,0.0,0.0,0.0,0.0,0.0,0.0,0.0,0.0,0.0,0.0,0.0,0.0,0.0,0.0,0.0,0.0,0.0,0.0,0.0,0.0,0.0,0.0,0.0,0.0,0.0,0.0,0.0,0.0,0.0,0.0,0.0,0.0,0.0,0.0,0.0,0.0,0.0,0.0,0.0,0.0,0.0,0.0,0.0,0.0,0.0,-4.9552,-5.1335,-5.2373,-5.3825,-5.3969,-5.2646,-5.2594,-5.1324,-4.8644,0.0,0.0,0.0,0.0,0.0,0.0,0.0,0.0,0.0,0.0,0.0,0.0,0.0,0.0,0.0,0.0,0.0,0.0,0.0,0.0,0.0,0.0,0.0,0.0,0.0,0.0,0.0,0.0,0.0,0.0,0.0,0.0,0.0,0.0,0.0,0.0,0.0,0.0,-4.3592,-4.5446,0.0,0.0,0.0,0.0,0.0,0.0,0.0,0.0,-4.5279,0.0,0.0,0.0,0.0,0.0,0.0,0.0,0.0,0.0,0.0,0.0,0.0,0.0,0.0,0.0,0.0,0.0,0.0,0.0,0.0,0.0,0.0,0.0,0.0,0.0,0.0,0.0,0.0,0.0,0.0,0.0,0.0,0.0,0.0,0.0,0.0,0.0,0.0,0.0,0.0,0.0,0.0,0.0,0.0,0.0,0.0,0.0,0.0,0.0,0.0,0.0,0.0,0.0,0.0,0.0,0.0,-4.6455,-4.9545,-5.1352,-5.1833,-5.3323,-5.3487,-5.2182,-5.2096,-5.0774,-4.802,0.0,0.0,0.0,0.0,0.0,0.0,0.0,0.0,0.0,0.0,0.0,0.0,0.0,0.0,0.0,0.0,0.0,0.0,0.0,0.0,0.0,0.0,0.0,0.0,0.0,0.0,0.0,0.0,0.0,0.0,0.0,0.0,0.0,0.0,0.0,0.0,0.0,0.0,0.0,-4.6491,-4.72,0.0,0.0,0.0,0.0,0.0,0.0,0.0,0.0,-4.6028,0.0,0.0,0.0,0.0,0.0,0.0,0.0,0.0,0.0,0.0,0.0,0.0,0.0,0.0,0.0,0.0,0.0,0.0,0.0,0.0,0.0,0.0,0.0,0.0,0.0,0.0,0.0,0.0,0.0,0.0,0.0,0.0,0.0,0.0,0.0,0.0,0.0,0.0,0.0,0.0,0.0,0.0,0.0,0.0,0.0,0.0,0.0,0.0,0.0,0.0,0.0,0.0,0.0,0.0,0.0,-4.6378,-4.9176,-5.101,-5.1726,-5.2858,-5.2905,-5.1811,-5.1743,-5.0368,0.0,0.0,0.0,0.0,0.0,0.0,0.0,0.0,0.0,0.0,0.0,0.0,0.0,0.0,0.0,0.0,0.0,0.0,0.0,0.0,0.0,0.0,0.0,0.0,0.0,0.0,0.0,0.0,0.0,0.0,0.0,0.0,0.0,0.0,0.0,0.0,0.0,0.0,0.0,0.0,-4.632,-4.6921,-4.8067,0.0,0.0,0.0,0.0,0.0,0.0,-4.6775,-4.637,0.0,0.0,0.0,0.0,0.0,0.0,0.0,0.0,0.0,0.0,0.0,0.0,0.0,0.0,0.0,0.0,0.0,0.0,0.0,0.0,0.0,0.0,0.0,0.0,0.0,0.0,0.0,0.0,0.0,0.0,0.0,0.0,0.0,0.0,0.0,0.0,0.0,0.0,0.0,0.0,0.0,0.0,0.0,0.0,0.0,0.0,0.0,0.0,0.0,0.0,0.0,0.0,0.0,0.0,0.0,-4.6158,-4.8606,-5.0434,-5.1526,-5.2259,-5.2217,-5.1317,-5.1265,-4.9969,0.0,0.0,0.0,0.0,0.0,0.0,0.0,0.0,0.0,0.0,0.0,0.0,0.0,0.0,0.0,0.0,0.0,0.0,0.0,0.0,0.0,0.0,0.0,0.0,0.0,0.0,0.0,0.0,0.0,0.0,0.0,0.0,0.0,0.0,0.0,0.0,0.0,0.0,0.0,0.0,0.0,-4.6595,-4.7847,-4.7903,0.0,0.0,0.0,0.0,-4.7778,-4.7074,0.0,0.0,0.0,0.0,0.0,0.0,0.0,0.0,0.0,0.0,0.0,0.0,0.0,0.0,0.0,0.0,0.0,0.0,0.0,0.0,0.0,0.0,0.0,0.0,0.0,0.0,0.0,0.0,0.0,0.0,0.0,0.0,0.0,0.0,0.0,0.0,0.0,0.0,0.0,0.0,0.0,0.0,0.0,0.0,0.0,0.0,0.0,0.0,0.0,0.0,0.0,0.0,0.0,0.0,0.0,0.0,-4.5415,-4.7858,-4.9678,-5.0722,-5.1445,-5.1418,-5.056,-5.0543,-4.9287,0.0,0.0,0.0,0.0,0.0,0.0,0.0,0.0,0.0,0.0,0.0,0.0,0.0,0.0,0.0,0.0,0.0,0.0,0.0,0.0,0.0,0.0,0.0,0.0,0.0,0.0,0.0,0.0,0.0,0.0,0.0,0.0,0.0,0.0,0.0,0.0,0.0,0.0,0.0,0.0,0.0,-4.6918,-4.8636,-4.826,-4.7865,0.0,0.0,-4.7026,-4.7026,-4.638,0.0,0.0,0.0,0.0,0.0,0.0,0.0,0.0,0.0,0.0,0.0,0.0,0.0,0.0,0.0,0.0,0.0,0.0,0.0,0.0,0.0,0.0,0.0,0.0,0.0,0.0,0.0,0.0,0.0,0.0,0.0,0.0,0.0,0.0,0.0,0.0,0.0,0.0,0.0,0.0,0.0,0.0,0.0,0.0,0.0,0.0,0.0,0.0,0.0,0.0,0.0,0.0,0.0,0.0,0.0,-4.3577,-4.5948,-4.7553,-4.9016,-5.0488,-5.0844,-5.0855,-5.054,-5.0146,-4.8911,0.0,0.0,0.0,0.0,0.0,0.0,0.0,0.0,0.0,0.0,0.0,0.0,0.0,0.0,0.0,0.0,0.0,0.0,0.0,0.0,0.0,0.0,0.0,0.0,0.0,0.0,0.0,0.0,0.0,0.0,0.0,0.0,0.0,0.0,0.0,0.0,0.0,0.0,0.0,0.0,0.0,0.0,-4.8172,-4.8471,0.0,0.0,0.0,-4.7918,-4.7454,0.0,0.0,0.0,0.0,0.0,0.0,0.0,0.0,0.0,0.0,0.0,0.0,0.0,0.0,0.0,0.0,0.0,0.0,0.0,0.0,0.0,0.0,0.0,0.0,0.0,0.0,0.0,0.0,0.0,0.0,0.0,0.0,0.0,0.0,0.0,0.0,0.0,0.0,0.0,0.0,0.0,0.0,0.0,0.0,0.0,0.0,0.0,0.0,0.0,0.0,0.0,0.0,0.0,0.0,0.0,0.0,0.0,-4.6178,-4.7065,-4.8378,-5.0096,-5.0198,-5.0211,-5.0229,-4.9639,0.0,0.0,0.0,0.0,0.0,0.0,0.0,0.0,0.0,0.0,0.0,0.0,0.0,0.0,0.0,0.0,0.0,0.0,0.0,0.0,0.0,0.0,0.0,0.0,0.0,0.0,0.0,-3.6637,0.0,0.0,0.0,0.0,0.0,0.0,0.0,0.0,0.0,0.0,0.0,0.0,0.0,0.0,-4.5669,-4.7407,-4.8297,-4.8511,0.0,0.0,-4.8511,-4.7603,-4.6388,-4.5515,0.0,0.0,0.0,0.0,0.0,0.0,0.0,0.0,0.0,0.0,0.0,0.0,0.0,0.0,0.0,0.0,0.0,0.0,0.0,0.0,0.0,0.0,0.0,0.0,0.0,0.0,0.0,0.0,0.0,0.0,0.0,0.0,0.0,0.0,0.0,0.0,0.0,0.0,0.0,0.0,0.0,0.0,0.0,0.0,0.0,0.0,0.0,0.0,0.0,0.0,0.0,0.0,0.0,0.0,-4.3025,-4.5316,-4.6249,-4.757,-4.9293,-4.9396,-4.9331,-4.9187,-4.8744,-4.7566,0.0,0.0,0.0,0.0,0.0,0.0,0.0,0.0,0.0,0.0,0.0,0.0,0.0,0.0,0.0,0.0,0.0,0.0,0.0,0.0,0.0,0.0,0.0,0.0,0.0,0.0,0.0,0.0,0.0,0.0,0.0,0.0,0.0,0.0,0.0,0.0,0.0,0.0,0.0,0.0,0.0,-4.4855,-4.6459,-4.7615,-4.7948,0.0,-4.7684,-4.7965,-4.7093,-4.5777,-4.482,-4.4606,0.0,0.0,0.0,0.0,0.0,0.0,0.0,0.0,0.0,0.0,0.0,0.0,0.0,0.0,0.0,0.0,0.0,0.0,0.0,0.0,0.0,0.0,0.0,0.0,0.0,0.0,0.0,0.0,0.0,0.0,0.0,0.0,0.0,0.0,0.0,0.0,0.0,0.0,0.0,0.0,0.0,0.0,0.0,0.0,0.0,0.0,0.0,0.0,0.0,0.0,0.0,0.0,0.0,-4.3324,-4.5696,-4.6026,-4.7007,-4.8599,-4.8702,-4.8769,-4.8983,-4.8537,-4.7596,0.0,0.0,0.0,0.0,0.0,0.0,0.0,0.0,0.0,0.0,0.0,0.0,0.0,0.0,0.0,0.0,0.0,0.0,0.0,0.0,0.0,0.0,0.0,0.0,0.0,0.0,0.0,0.0,-3.6841,-3.6831,-3.6616,0.0,0.0,0.0,0.0,0.0,0.0,0.0,0.0,0.0,0.0,-4.4082,-4.5651,-4.6837,0.0,0.0,-4.7068,-4.7348,-4.639,-4.5165,-4.4203,-4.3881,-4.1912,0.0,0.0,0.0,0.0,0.0,0.0,0.0,0.0,0.0,0.0,0.0,0.0,0.0,0.0,0.0,0.0,0.0,0.0,0.0,0.0,0.0,0.0,0.0,0.0,0.0,0.0,0.0,0.0,0.0,0.0,0.0,0.0,0.0,0.0,0.0,0.0,0.0,0.0,0.0,0.0,0.0,0.0,0.0,0.0,0.0,0.0,0.0,0.0,0.0,0.0,0.0,0.0,-4.3425,-4.566,-4.5804,-4.652,-4.7834,-4.7864,-4.8061,-4.8392,-4.8024,-4.7236,0.0,0.0,0.0,0.0,0.0,0.0,0.0,0.0,0.0,0.0,0.0,0.0,0.0,0.0,0.0,0.0,0.0,0.0,0.0,0.0,0.0,0.0,0.0,0.0,0.0,0.0,0.0,0.0,-3.6523,-3.629,-3.5991,0.0,0.0,0.0,0.0,0.0,0.0,0.0,0.0,0.0,0.0,-4.3495,-4.4769,-4.6018,-4.6513,-4.5667,-4.6434,-4.6686,-4.5436,-4.4374,-4.3472,-4.2938,0.0,0.0,0.0,0.0,0.0,0.0,0.0,0.0,0.0,0.0,0.0,0.0,0.0,0.0,0.0,0.0,0.0,0.0,0.0,0.0,0.0,0.0,0.0,0.0,0.0,0.0,0.0,0.0,0.0,0.0,-3.8165,0.0,0.0,0.0,0.0,0.0,0.0,0.0,0.0,0.0,0.0,0.0,0.0,0.0,0.0,0.0,0.0,0.0,0.0,0.0,0.0,0.0,0.0,-4.318,-4.4998,-4.5439,-4.6032,-4.6916,-4.6916,-4.7077,-4.7352,-4.709,-4.6299,-4.4965,0.0,0.0,0.0,0.0,0.0,0.0,0.0,0.0,0.0,0.0,0.0,0.0,0.0,0.0,0.0,0.0,0.0,0.0,0.0,0.0,0.0,0.0,0.0,0.0,0.0,0.0,-3.6196,-3.5911,-3.564,0.0,0.0,0.0,0.0,0.0,0.0,0.0,0.0,0.0,0.0,-4.1814,-4.3153,-4.3821,-4.5248,-4.5852,-4.5042,-4.5825,-4.5906,-4.4241,-4.3376,-4.2622,0.0,0.0,0.0,0.0,0.0,0.0,0.0,0.0,0.0,0.0,0.0,0.0,0.0,0.0,0.0,0.0,0.0,0.0,0.0,0.0,0.0,0.0,0.0,0.0,0.0,0.0,0.0,-3.7967,-3.8299,0.0,0.0,0.0,0.0,0.0,0.0,0.0,0.0,0.0,0.0,0.0,-4.1071,-4.1383,0.0,0.0,0.0,0.0,0.0,0.0,0.0,0.0,0.0,0.0,0.0,0.0,-4.2981,-4.4672,-4.5297,-4.6152,-4.7273,-4.7303,-4.7362,-4.7407,-4.7538,-4.6604,-4.4554,0.0,0.0,0.0,0.0,0.0,0.0,0.0,0.0,0.0,0.0,0.0,0.0,0.0,0.0,0.0,0.0,0.0,0.0,0.0,0.0,0.0,0.0,0.0,0.0,0.0,-3.5576,0.0,0.0,0.0,0.0,0.0,0.0,0.0,0.0,0.0,0.0,0.0,-3.8996,-4.0203,-4.135,-4.2332,-4.2986,-4.3874,-4.4364,0.0,0.0,0.0,0.0,0.0,0.0,0.0,0.0,0.0,0.0,0.0,0.0,0.0,0.0,-3.8731,-3.9537,-3.9574,-3.9564,-3.9578,0.0,0.0,0.0,0.0,0.0,0.0,0.0,0.0,0.0,0.0,0.0,0.0,0.0,0.0,-3.8567,0.0,-3.8486,0.0,0.0,0.0,0.0,0.0,0.0,0.0,0.0,-4.094,-4.1369,-4.1597,-4.1957,-4.1987,0.0,-4.1713,-4.0916,0.0,0.0,0.0,0.0,0.0,0.0,0.0,0.0,-4.2987,-4.4528,-4.5361,-4.6177,-4.6964,-4.7226,-4.7342,-4.7328,-4.7118,-4.6256,-4.4566,-4.3671,-4.2482,0.0,0.0,0.0,0.0,0.0,0.0,0.0,0.0,0.0,0.0,0.0,0.0,0.0,0.0,0.0,0.0,0.0,0.0,0.0,0.0,0.0,0.0,0.0,-3.4974,0.0,0.0,0.0,0.0,0.0,0.0,0.0,0.0,0.0,-3.6186,-3.7607,-3.8966,-3.9973,-4.1018,-4.1854,-4.2304,0.0,0.0,0.0,0.0,0.0,0.0,0.0,-4.1682,-4.1659,-4.0937,-4.0247,-4.001,-3.9433,-3.9134,-3.9626,0.0,0.0,-3.9723,-3.9802,-3.9861,-3.9876,-3.9938,-4.0015,-4.0015,-3.9647,-3.9402,0.0,0.0,0.0,0.0,0.0,0.0,0.0,0.0,-3.9768,-4.0083,0.0,-4.0054,0.0,0.0,0.0,0.0,0.0,-4.0196,0.0,0.0,-4.1321,-4.1796,-4.1893,-4.2458,-4.243,-4.192,-4.2471,-4.2403,-4.1777,-4.0379,0.0,0.0,0.0,0.0,0.0,0.0,-4.32,-4.445,-4.5516,-4.6109,-4.6167,-4.669,-4.7004,-4.6947,-4.5963,-4.529,-4.4864,-4.3445,-4.2611,-4.2548,-4.0448,0.0,0.0,0.0,0.0,0.0,0.0,0.0,0.0,0.0,0.0,0.0,0.0,0.0,0.0,0.0,0.0,0.0,0.0,0.0,0.0,-3.469,0.0,0.0,0.0,0.0,0.0,0.0,0.0,0.0,0.0,0.0,-3.5644,-3.7524,-3.8953,-3.941,0.0,0.0,0.0,0.0,-4.2263,-4.2222,-4.2426,-4.2357,-4.1798,-4.1666,-4.1391,-4.0622,0.0,0.0,-3.9536,-3.9231,-3.9156,-3.9352,-3.96,-3.9912,-3.9933,-3.9783,-3.9645,-3.977,-3.9974,-4.0033,-4.0064,-4.0034,-4.0031,-4.0562,0.0,0.0,0.0,0.0,-3.907,-3.9306,-3.9543,-3.9727,-4.0293,-4.1057,-4.0194,0.0,0.0,0.0,0.0,0.0,0.0,-4.0831,-4.1423,-4.1369,-4.1847,-4.2632,-4.2856,-4.3009,-4.3214,-4.3425,-4.3246,-4.2822,-4.2045,-4.1249,-4.0604,0.0,0.0,0.0,0.0,-4.2923,-4.3743,-4.4941,-4.5726,-4.6198,-4.677,-4.6932,-4.6702,-4.6002,-4.5217,-4.4418,-4.3545,-4.2709,-4.1924,-4.0017,0.0,0.0,0.0,0.0,0.0,0.0,0.0,0.0,0.0,0.0,0.0,0.0,0.0,0.0,0.0,0.0,0.0,0.0,0.0,-3.4483,-3.4497,-3.4187,0.0,0.0,0.0,0.0,0.0,0.0,0.0,0.0,0.0,-3.528,-3.7321,-3.8866,0.0,0.0,-4.0388,-3.9987,-4.0562,-4.1013,-4.0999,-4.1414,0.0,0.0,-4.1081,-4.0838,-4.1085,-4.0754,-4.0182,-3.9589,-3.9267,-3.8952,-3.8641,-3.9104,-3.955,-3.9582,-4.0043,-4.0444,-4.0659,-4.0741,-4.0824,-4.089,-4.056,-4.0309,-4.1133,-4.0465,-4.039,-4.0266,-4.0181,-4.0181,-4.0305,-4.0538,-4.0538,-4.0956,-4.1583,-4.0872,-4.069,-4.0866,-3.9984,0.0,0.0,0.0,-4.1039,-4.1645,-4.1852,-4.2305,-4.2984,-4.3238,-4.3466,-4.3799,-4.3812,-4.3677,-4.3483,-4.3108,-4.273,-4.2207,0.0,0.0,-4.1838,-4.254,-4.3213,-4.3887,-4.51,-4.5895,-4.6293,-4.6857,-4.6837,-4.6182,-4.5803,-4.5113,-4.4001,-4.3517,-4.277,-4.1837,-4.0346,-3.9088,0.0,0.0,0.0,0.0,0.0,0.0,0.0,0.0,0.0,0.0,0.0,-3.2152,-3.2398,0.0,0.0,0.0,-3.4047,-3.424,-3.3957,-3.4161,0.0,0.0,0.0,0.0,0.0,0.0,0.0,-3.4,-3.4468,-3.4939,-3.5519,-3.6961,-3.8019,-3.8183,-3.8919,-3.9351,-3.8985,0.0,-3.9836,-3.9877,-4.0361,-4.0815,-4.0857,-4.0756,-4.0714,-4.087,-4.0358,-3.9731,-3.909,-3.8699,-3.8438,-3.8304,-3.8575,-3.9031,-3.9352,-3.9874,-4.0385,-4.078,-4.0932,-4.1018,-4.1171,-4.091,-4.0727,-4.1279,-4.1274,-4.1649,-4.1732,-4.1677,-4.1663,-4.1677,-4.1732,-4.1732,-4.1805,-4.1801,-4.176,-4.1599,-4.13,-4.089,0.0,-4.0757,-4.1109,-4.1231,-4.1271,-4.2402,-4.2974,-4.3041,-4.3562,-4.3802,-4.3855,-4.3894,-4.3894,-4.3907,-4.3789,-4.3776,-4.3761,-4.2322,-4.186,-4.2453,-4.3218,-4.3877,-4.4441,-4.5632,-4.6265,-4.632,-4.6857,-4.6606,-4.542,-4.5393,-4.48,-4.3608,-4.3147,-4.2703,-4.2105,-4.1014,-3.9648,-3.794,0.0,0.0,0.0,0.0,0.0,0.0,0.0,0.0,0.0,0.0,0.0,0.0,0.0,0.0,0.0,-3.3927,0.0,-3.3291,-3.3794,0.0,0.0,0.0,-3.3317,-3.3264,-3.3343,-3.3569,-3.414,0.0,0.0,-3.603,-3.6427,-3.6743,-3.7098,-3.7881,-3.8393,-3.8351,-3.8598,-3.8791,-3.8832,-3.9366,-3.9788,-3.9982,-4.0378,-4.0491,-4.0066,-3.9529,-3.8963,-3.834,-3.7973,-3.7854,-3.8028,-3.8165,-3.8427,-3.9192,-3.9301,-3.9589,-4.0281,-4.0578,-4.0799,-4.0984,-4.1003,-4.1091,-4.1879,-4.1901,-4.1962,-4.1495,-4.0676,-4.0676,-4.0931,-4.1321,-4.1348,-4.1589,-4.1979,-4.1522,-4.1045,-4.0582,-4.0943,-4.1096,-4.1074,-4.1417,-4.1584,-4.1637,-4.2137,-4.2601,-4.306,-4.3625,-4.4058,-4.4464,-4.4491,-4.4491,-4.4478,-4.4098,-4.3888,-4.3835,-4.3236,-4.3115,-4.3439,-4.3674,-4.3808,-4.3956,-4.4718,-4.5323,-4.5792,-4.5953,-4.5508,-4.4563,-4.4536,-4.4081,-4.3108,-4.2078,-4.151,-4.1319,-3.982,-3.8521,-3.7646,-3.6429,0.0,0.0,0.0,0.0,0.0,0.0,0.0,0.0,0.0,-3.2524,-3.275,0.0,-3.3231,0.0,-3.3532,-3.3762,-3.3591,-3.3723,0.0,0.0,-3.3361,-3.3465,-3.3064,-3.3552,-3.3975,-3.4105,-3.4434,-3.4774,-3.5135,-3.5491,-3.5737,-3.5873,-3.6866,-3.7425,-3.6982,-3.7489,-3.7889,-3.7985,-3.8583,-3.9127,-3.9196,-3.9308,-3.9407,-3.9196,-3.9082,-3.8732,-3.8084,-3.8031,-3.7934,-3.7648,-3.7901,-3.8254,-3.8464,-3.8723,-3.909,-3.9589,-4.0051,-4.047,-4.0593,-4.078,-4.0969,-4.1746,-4.1746,-4.1746,-4.1376,-4.0782,-4.0975,-4.1293,-4.1586,-4.1586,-4.1786,-4.2052,-4.1599,-4.1232,-4.0967,-4.1161,-4.1221,-4.1235,-4.1452,-4.1511,-4.155,-4.2224,-4.2722,-4.3062,-4.3872,-4.4421,-4.4668,-4.4681,-4.4681,-4.4709,-4.4408,-4.4251,-4.4238,-4.4084,-4.4032,-4.4204,-4.4227,-4.4198,-4.4198,-4.477,-4.5276,-4.5582,-4.5595,-4.5088,-4.4068,-4.4015,-4.348,-4.2378,-4.1501,-4.0837,-4.0388,-3.924,-3.814,-3.726,-3.638,-3.5472,0.0,0.0,0.0,0.0,0.0,0.0,0.0,0.0,0.0,0.0,0.0,-3.3679,-3.372,-3.4173,-3.4395,-3.4321,-3.4178,-3.3982,-3.37,-3.37,-3.3597,-3.3315,-3.363,-3.3937,-3.3894,-3.4243,-3.4494,-3.4618,-3.4908,-3.5168,-3.5236,-3.594,-3.6401,-3.6342,-3.6761,-3.7075,-3.7089,-3.7684,-3.8308,-3.8668,-3.8724,-3.8667,-3.8496,-3.848,-3.8269,-3.7611,-3.7577,-3.7582,-3.7374,-3.7558,-3.7901,-3.8165,-3.8389,-3.8649,-3.9068,-3.9538,-3.9945,-4.0226,-4.0436,-4.0662,-4.1311,-4.1311,-4.1311,-4.1311,-4.1374,-4.1782,-4.198,-4.198,-4.198,-4.198,-4.1993,-4.1746,-4.1647,-4.166,-4.1411,-4.1311,-4.1311,-4.1311,-4.135,-4.1481,-4.2526,-4.3062,-4.318,-4.4238,-4.4681,-4.4681,-4.4681,-4.4681,-4.4681,-4.4681,-4.4626,-4.4626,-4.4626,-4.4626,-4.46,-4.4625,-4.4626,-4.4692,-4.5236,-4.5488,-4.5488,-4.5488,-4.4917,-4.3736,-4.367,-4.2933,-4.1495,-4.0926,-4.025,-3.9433,-3.8825,-3.7957,-3.689,-3.6382,-3.5639,0.0,-3.3929,0.0,0.0,0.0,0.0,0.0,0.0,0.0,0.0,-3.4101,-3.4363,-3.4688,-3.5085,-3.522,-3.5041,-3.4774,-3.4612,-3.4599,-3.4165,-3.382,-3.3713,-3.3743,-3.3747,-3.3641,-3.3907,-3.4118,-3.4356,-3.4577,-3.4839,-3.5044,-3.5263,-3.5575,-3.5912,-3.622,-3.6407,-3.6365,-3.6833,-3.7452,-3.7963,-3.8198,-3.8057,-3.7772,-3.7714,-3.7557,-3.7066,-3.7021,-3.7084,-3.7226,-3.7303,-3.7481,-3.7976,-3.8089,-3.8277,-3.8649,-3.8995,-3.9373,-3.9818,-4.0101,-4.0296,-4.1311,-4.1311,-4.1311,-4.1311,-4.1311,-4.1411,-4.1461,-4.1461,-4.1448,-4.1461,-4.1461,-4.1411,-4.1361,-4.1361,-4.1311,-4.1311,-4.1311,-4.1311,-4.1572,-4.2017,-4.2709,-4.3271,-4.3742,-4.4408,-4.4681,-4.4681,-4.4681,-4.4681,-4.4681,-4.4463,-4.4367,-4.4367,-4.4148,-4.4064,-4.4064,0.0,0.0,0.0,-4.4845,-4.4884,-4.4884,-4.4843,-4.4226,-4.2892,-4.2827,0.0,-4.0151,-3.9507,-3.8952,-3.835,-3.7724,0.0,0.0,0.0,0.0,0.0,0.0,0.0,0.0,0.0,0.0,0.0,-3.44,-3.4286,-3.4756,-3.4691,-3.4613,-3.4713,-3.4771,-3.4816,-3.4771,-3.4728,-3.4652,-3.4652,-3.4596,-3.4369,-3.3941,-3.3983,-3.3949,-3.3492,-3.3641,-3.3894,-3.4105,-3.4369,-3.4577,-3.4784,-3.5044,-3.5168,-3.529,-3.5791,-3.6126,-3.618,-3.6409,-3.6612,-3.6789,-3.6858,-3.6886,-3.669,-3.6849,-3.6872,-3.6774,-3.6875,-3.6978,-3.7056,-3.7187,-3.7303,-3.7481,-3.761,-3.7839,-3.8225,-3.8389,-3.8649,-3.9337,-3.9783,-4.0152,-4.1311,0.0,-4.1311,-4.1311,0.0,-4.1311,-4.1311,-4.1311,-4.1311,-4.1311,-4.1311,-4.1311,-4.1311,-4.1311,-4.1311,-4.1311,-4.1311,-4.1311,-4.1625,-4.2238,-4.2762,-4.3218,-4.3672,-4.4245,-4.4409,-4.4326,-4.4313,-4.4313,-4.4313,-4.4161,-4.4107,-4.4107,-4.3967,-4.3899,-4.3899,-4.3899,-4.4107,-4.4518,-4.4367,-4.4367,-4.4476,-4.4367,-4.3715,-4.2432,0.0,0.0,0.0,0.0,0.0,0.0,0.0,0.0,0.0,0.0,0.0,-3.5165,-3.5082,-3.4969,-3.4751,-3.459,-3.4682,-3.4932,-3.4963,-3.4954,-3.4936,-3.5068,-3.5124,-3.5112,-3.5171,-3.5171,-3.5124,-3.5027,-3.4957,-3.4957,-3.4798,-3.4512,-3.401,-3.3972,-3.3833,-3.3397,-3.3428,-3.3611,-3.3738,-3.4076,-3.4285,-3.4452,-3.4743,-3.4962,-3.5003,-3.5413,-3.5777,-3.5912,-3.5978,-3.6112,-3.6232,-3.6246,-3.6272,-3.6391,-3.647,-3.6549,-3.6563,-3.6707,-3.685,-3.685,-3.6993,-3.7187,-3.7317,-3.738,-3.7534,-3.7839,-3.8052,-3.8292,-3.8775,-3.9301,-3.9768,-4.1311,-4.1324,-4.1361,-4.1361,-4.1361,-4.1361,-4.1361,-4.1311,0.0,0.0,0.0,-4.1311,-4.1311,-4.1324,-4.1415,-4.1468,-4.1468,-4.1572,-4.1925,-4.2525,-4.2944,-4.3309,-4.3601,-4.408,-4.4148,-4.3899,-4.3899,-4.3899,-4.3899,-4.3832,-4.3832,-4.3776,-4.3776,-4.3721,-4.3721,-4.3734,-4.3874,-4.4148,-4.3997,-4.3997,-4.4203,-4.3997,-4.3348,-4.2155,-4.2129,-4.1397,-3.9867,-3.9348,-3.8755,-3.7891,-3.722,-3.67,-3.623,-3.5914,-3.5571,-3.5141,-3.5006,-3.4713,-3.433,-3.4293,-3.4431,-3.4826,-3.5267,-3.5388,-3.4981,-3.5362,-3.5633,-3.5633,-3.5633,-3.562,-3.562,-3.5417,-3.5238,-3.5238,-3.5061,-3.4723,-3.4209,-3.4085,-3.3872,-3.3375,-3.3303,-3.3343,-3.3441,-3.3738,-3.4034,-3.4131,-3.4424,-3.4714,-3.4839,-3.5154,-3.5494,-3.5629,-3.5723,-3.5804,-3.5952,-3.6032,-3.6112,-3.6218,-3.6312,-3.6365,-3.6365,-3.6524,-3.6642,-3.6721,-3.685,-3.7007,-3.7187,-3.7226,-3.7303,-3.7495,-3.7839,-3.8142,-3.824,-3.8738,-3.9301,-4.1311,-4.1311,-4.156,-4.1647,-4.1647,-4.166,-4.1498,-4.1311,-4.1311,-4.1311,-4.1311,-4.1311,-4.1311,-4.1337,-4.1821,-4.2056,-4.2082,-4.2552,-4.3088,-4.3677,-4.3716,-4.3908,-4.4183,-4.4274,-4.4161,-4.3899,-4.3899,-4.3899,-4.3844,-4.3585,-4.3449,-4.3462,-4.3252,-4.3141,-4.3141,-4.3085,-4.3252,-4.3504,-4.3764,-4.3899,-4.3955,-4.3899,-4.324,-4.1953,-4.1823,-4.0839,-3.874,-3.8564,-3.8177,-3.7355,-3.7207,-3.7121,-3.7047,-3.6555,-3.6272,-3.6174,-3.5768,-3.5461,-3.5387,-3.5387,-3.5328,-3.515,-3.5235,-3.5343,-3.5462,-3.5523,-3.5633,-3.5633,-3.5572,-3.5633,-3.562,-3.5534,-3.5521,-3.5533,-3.5674,-3.5615,-3.5018,-3.4715,-3.4317,-3.3809,-3.34,-3.3197,-3.3356,-3.3484,-3.3696,-3.3992,-3.4173,-3.434,-3.4743,-3.5154,-3.5399,-3.548,-3.5588,-3.5723,-3.5777,-3.5764,-3.5804,-3.579,-3.5992,-3.6152,-3.6112,-3.6312,-3.647,-3.6628,-3.6707,-3.6811,-3.6993,-3.7031,-3.7148,-3.7303,-3.7572,-3.7801,-3.8089,-3.8441,-3.8826,-4.1311,-4.1311,-4.1597,-4.1696,-4.1696,-4.1696,-4.1647,-4.1498,-4.1361,-4.1311,-4.1311,-4.1311,-4.1481,-4.1794,-4.2043,-4.2343,-4.2644,-4.2905,-4.3323,-4.3846,-4.3872,-4.4025,-4.4274,-4.4161,-4.3929,-4.364,-4.3487,-4.3432,-4.3376,-4.3252,-4.3184,-4.3184,-4.303,-4.2986,-4.2986,-4.2986,-4.3085,-4.3197,-4.3308,-4.3487,-4.364,-4.3487,-4.2802,-4.1541,-4.1383,-4.0595,-3.8974,-3.8718,-3.8317,-3.7685,-3.7521,-3.7285,-3.6991,-3.6635,-3.628,-3.5988,-3.5745,-3.5478,-3.5187,-3.5175,-3.5126,-3.4981,-3.4981,-3.503,-3.5175,-3.5175,-3.5163,-3.5175,-3.5175,-3.5175,-3.5175,-3.5271,-3.5368,-3.5368,-3.562,-3.5542,-3.5058,-3.4698,-3.4275,-3.3783,-3.332,-3.3124,-3.324,-3.3313,-3.3441,-3.3696,-3.392,-3.4256,-3.4535,-3.4867,-3.5113,-3.5236,-3.5413,-3.5521,-3.5548,-3.5629,-3.571,-3.571,-3.5804,-3.5898,-3.5898,-3.6072,-3.6286,-3.6365,-3.651,-3.6707,-3.6811,-3.6954,-3.7031,-3.7095,-3.7303,-3.7534,-3.7839,-3.8179,-3.8701,-4.1311,-4.1311,-4.161,-4.1696,-4.1696,-4.1696,-4.1647,-4.1597,-4.1361,-4.1311,-4.1324,-4.1442,-4.1755,-4.2211,-4.2422,-4.2788,-4.318,-4.335,-4.3637,-4.4029,-4.4068,-4.4155,-4.4274,-4.4052,-4.3764,-4.3394,-4.3184,-4.3073,-4.2974,-4.2986,-4.2986,-4.2986,-4.2986,-4.2986,-4.2986,-4.2986,-4.2986,-4.2986,-4.2986,-4.3085,-4.3295,-4.3085,-4.2459,-4.1322,-4.1006,-4.0323,-3.9188,-3.8841,-3.8439,-3.7885,-3.7728,-3.7442,-3.6945,-3.6693,-3.6398,-3.6002,-3.5737,-3.5327,-3.4847,-3.4775,-3.4775,-3.4775,-3.4775,-3.4775,-3.4775,-3.4775,-3.4775,-3.4775,-3.4823,-3.4823,-3.4823,-3.4981,-3.5126,-3.5126,-3.5368,-3.5365,-3.4924,-3.4496,-3.4111,-3.3685,-3.3321,-3.3038,-3.3111,-3.324,-3.3368,-3.3441,-3.3823,-3.416,-3.4314,-3.4535,-3.4756,-3.4949,-3.5154,-3.5358,-3.5399,-3.5521,-3.5642,-3.5669,-3.571,-3.5723,-3.5764,-3.5898,-3.6032,-3.6126,-3.6351,-3.6549,-3.6668,-3.6825,-3.6915,-3.7031,-3.7187,-3.738,-3.7701,-3.8066,-3.859,-4.1311,-4.1311,-4.1597,-4.1696,-4.1696,-4.1696,-4.1547,-4.1361,-4.1324,-4.1311,-4.1363,-4.186,-4.2159,-4.2355,-4.3284,-4.3689,-4.3833,-4.433,-4.4578,-4.4617,-4.4643,-4.4533,-4.4313,-4.4271,-4.3984,-4.3449,-4.3394,-4.324,-4.303,-4.2974,-4.2986,-4.2986,-4.2986,-4.2986,-4.2986,-4.2986,-4.2986,-4.2986,-4.2986,-4.303,-4.303,-4.3042,-4.2336,-4.0989,-4.0898,-4.0162,-3.8627,-3.8461,-3.8061,-3.7392,-3.769,-3.7714,-3.7232,-3.712,-3.7096,-3.6988,-3.6146,-3.5388,-3.4847,-3.4775,-3.4775,-3.4775,-3.4775,-3.4775,-3.4775,-3.4775,-3.4775,-3.4775,-3.4775,-3.4775,-3.4775,-3.4823,-3.4872,-3.4884,-3.5078,-3.5199,-3.5064,-3.4485,-3.4065,-3.4198,-3.3369,-3.2853,-3.3081,-3.3167,-3.324,-3.3398,-3.3781,-3.4076,-3.416,-3.4327,-3.4494,-3.4564,-3.4812,-3.5154,-3.5318,-3.5399,-3.5521,-3.5669,-3.571,-3.571,-3.571,-3.571,-3.5804,-3.5978,-3.6126,-3.6325,-3.6563,-3.6761,-3.6786,-3.6954,-3.7148,-3.7419,-3.7777,-3.8066,-3.8427,-4.1311,-4.1311,-4.161,-4.1782,-4.1881,-4.1746,-4.1647,-4.156,-4.1374,-4.1311,-4.1389,-4.1912,-4.2356,-4.2696,-4.3167,-4.3729,-4.4382,-4.463,-4.4681,-4.4681,-4.4681,-4.4626,-4.4531,-4.4367,-4.4148,-4.3916,-4.3572,-4.3326,-4.324,-4.3085,-4.2986,-4.2986,-4.2986,-4.2986,-4.2986,-4.2986,-4.2986,-4.2986,-4.2986,-4.2986,-4.2949,-4.2647,-4.2023,-4.096,-4.0438,-3.964,-3.8506,-3.825,-3.7851,-3.7252,-3.7409,-3.7421,-3.7204,-3.7204,-3.7204,-3.7144,-3.6206,-3.5521,-3.5316,-3.4955,-3.4775,-3.4775,-3.4775,-3.4775,-3.4775,-3.4775,-3.4775,-3.4775,-3.4775,-3.4775,-3.4775,-3.4775,-3.4775,-3.4823,-3.492,-3.4981,-3.4957,-3.4554,-3.424,-3.4114,-3.3591,-3.3134,-3.3113,-3.3124,-3.3197,-3.3398,-3.3683,-3.3894,-3.4076,-3.4285,-3.4356,-3.4397,-3.4577,-3.4825,-3.5154,-3.5318,-3.548,-3.5629,-3.571,-3.571,-3.571,-3.571,-3.575,-3.5844,-3.5992,-3.6126,-3.6272,-3.6563,-3.6761,-3.6889,-3.7109,-3.738,-3.7495,-3.7801,-3.8142,-4.1311,-4.1311,-4.1498,-4.1696,-4.1832,-4.1696,-4.1597,-4.156,-4.1411,-4.1311,-4.1363,-4.1755,-4.2252,-4.2748,-4.2944,-4.3572,-4.4408,-4.45,-4.4537,-4.4655,-4.4681,-4.4681,-4.4681,-4.4518,-4.4313,-4.4123,-4.3572,-4.3208,-4.3068,-4.2914,-4.2823,-4.2949,-4.2986,-4.2986,-4.2986,-4.2986,-4.2986,-4.2986,-4.2986,-4.2898,-4.2586,-4.2098,-4.1513,-4.0777,-4.0013,-3.9206,-3.8327,-3.808,-3.7661,-3.7012,-3.7108,-3.7048,-3.6783,-3.7024,-3.7132,-3.694,-3.6266,-3.5689,-3.5437,-3.504,-3.4775,-3.4775,-3.4775,-3.4775,-3.4775,-3.4775,-3.4775,-3.4775,-3.4775,-3.4775,-3.4775,-3.4775,-3.4775,-3.4775,-3.4775,-3.4823,-3.4896,-3.4594,-3.4308,-3.4105,-3.3707,-3.342,-3.3163,-3.3124,-3.3154,-3.3283,-3.3526,-3.3768,-3.3979,-3.4189,-3.4397,-3.4397,-3.4397,-3.4605,-3.5003,-3.5195,-3.5399,-3.5629,-3.571,-3.571,-3.571,-3.571,-3.571,-3.5804,-3.5938,-3.6032,-3.6152,-3.6405,-3.6642,-3.6761,-3.6968,-3.7226,-3.7341,-3.7572,-3.7815,-4.1311,-4.1311,-4.1311,-4.1361,-4.1361,-4.1311,-4.1324,-4.1311,-4.1324,-4.1311,-4.1311,-4.1363,-4.1677,-4.2277,-4.2696,-4.3323,-4.3859,-4.3899,-4.416,-4.4537,-4.4602,-4.4655,-4.4681,-4.4681,-4.437,-4.3804,-4.3204,-4.2729,-4.2292,-4.2275,-4.2514,-4.2936,-4.2961,-4.2986,-4.2986,-4.2986,-4.2986,-4.2986,-4.2986,-4.2612,-4.1823,-4.13,-4.0827,-4.0419,-3.9719,-3.889,-3.8164,-3.8027,-3.7517,-3.6495,-3.6904,-3.6735,-3.593,-3.6639,-3.6952,-3.6519,-3.6374,-3.5905,-3.5076,-3.4871,-3.4775,-3.4775,-3.4775,-3.4775,-3.4775,-3.4775,-3.4775,-3.4775,-3.4775,-3.4775,-3.4775,-3.4775,-3.4775,-3.4775,-3.4823,-3.4932,-3.5114,-3.4762,-3.4413,-3.4267,-3.3859,-3.3433,-3.3169,-3.3124,-3.3124,-3.3197,-3.3484,-3.3713,-3.3797,-3.4105,-3.4356,-3.4397,-3.4439,-3.4564,-3.499,-3.5113,-3.5318,-3.5548,-3.571,-3.571,-3.571,-3.571,-3.571,-3.571,-3.5764,-3.5858,-3.6032,-3.6192,-3.6405,-3.6589,-3.6811,-3.7031,-3.7187,-3.7264,-3.7495,-4.1311,-4.1311,-4.1311,-4.1311,-4.1311,-4.1311,-4.1311,-4.1311,-4.1311,-4.1311,-4.1311,-4.1311,-4.1428,-4.1638,-4.1834,-4.2448,-4.3271,-4.3337,-4.3336,-4.3399,-4.3359,-4.3253,-4.3106,-4.3093,-4.2999,-4.2759,-4.2432,-4.2008,-4.1735,-4.2024,-4.2301,-4.2539,-4.2866,-4.2986,-4.2986,-4.2986,-4.2986,-4.2974,-4.2818,-4.2376,-4.1638,-4.0776,-4.0128,-3.9731,-3.9099,-3.8521,-3.8039,-3.7974,-3.7493,-3.6447,-3.6591,-3.6362,-3.5785,-3.629,-3.6615,-3.6398,-3.6098,-3.5725,-3.5352,-3.4955,-3.4775,-3.4775,-3.4775,-3.4775,-3.4775,-3.4775,-3.4775,-3.4775,-3.4775,-3.4775,-3.4775,-3.4775,-3.4775,-3.4823,-3.4969,-3.5066,-3.5187,-3.5137,-3.5116,-3.4817,-3.4217,-3.3596,-3.3282,-3.3124,-3.3124,-3.3154,-3.3441,-3.3628,-3.3755,-3.4105,-3.4397,-3.4397,-3.4397,-3.4564,-3.5031,-3.5072,-3.5195,-3.5521,-3.571,-3.571,-3.571,-3.571,-3.571,-3.571,-3.571,-3.571,-3.5898,-3.6072,-3.6246,-3.651,-3.6772,-3.6929,-3.707,-3.7148,-3.738,-4.1311,-4.1311,-4.1311,-4.1311,-4.1311,-4.1311,-4.1311,-4.1311,-4.1311,-4.1311,-4.1311,-4.1311,-4.1261,-4.1161,-4.1147,-4.1487,-4.219,-4.245,-4.2567,-4.246,-4.2473,-4.2381,-4.2235,-4.2235,-4.2182,-4.1998,-4.1567,-4.1225,-4.1116,-4.1442,-4.1848,-4.2225,-4.2479,-4.2699,-4.2768,-4.2762,-4.2706,-4.265,-4.2481,-4.2034,-4.1176,-4.0428,-3.9619,-3.8934,-3.8497,-3.8198,-3.7974,-3.7974,-3.7589,-3.6783,-3.6507,-3.6158,-3.5725,-3.5954,-3.6146,-3.611,-3.5821,-3.5521,-3.5364,-3.4967,-3.4775,-3.4775,-3.4775,-3.4775,-3.4775,-3.4775,-3.4775,-3.4775,-3.4775,-3.4775,-3.4775,-3.4775,-3.4775,-3.4823,-3.503,-3.5223,-3.532,-3.556,-3.554,-3.5239,-3.4427,-3.3809,-3.342,-3.3194,-3.3149,-3.3124,-3.3398,-3.3586,-3.3755,-3.4021,-3.4314,-3.4397,-3.4397,-3.4577,-3.4908,-3.5044,-3.5236,-3.5548,-3.571,-3.571,-3.571,-3.571,-3.571,-3.571,-3.571,-3.571,-3.5804,-3.5952,-3.6192,-3.647,-3.6668,-3.6786,-3.6929,-3.707,-3.7264,-4.1311,-4.1311,-4.1311,-4.1311,-4.1311,-4.1311,-4.1311,-4.1311,-4.1311,-4.1274,-4.1261,-4.1261,-4.1097,-4.0946,-4.0883,-4.0783,-4.0824,-4.1402,-4.184,-4.2017,-4.2029,-4.2029,-4.1963,-4.1938,-4.1832,-4.158,-4.091,-4.0513,-4.0526,-4.0664,-4.1153,-4.1957,-4.1896,-4.2121,-4.2513,-4.2324,-4.2155,-4.2142,-4.2049,-4.1421,-4.0227,-3.9922,-3.9304,-3.8261,-3.8039,-3.8027,-3.7974,-3.7974,-3.7709,-3.7168,-3.6711,-3.6182,-3.5713,-3.5617,-3.5605,-3.5617,-3.5593,-3.534,-3.4883,-3.4811,-3.4775,-3.4775,-3.4775,-3.4775,-3.4775,-3.4775,-3.4775,-3.4775,-3.4775,-3.4775,-3.4775,-3.4775,-3.4775,-3.4823,-3.5078,-3.5332,-3.5572,-3.5812,-3.5839,-3.5415,-3.4675,-3.3997,-3.3784,-3.3483,-3.325,-3.3136,-3.327,-3.3526,-3.367,-3.3937,-3.4147,-3.4314,-3.4397,-3.4535,-3.4743,-3.5003,-3.5277,-3.5548,-3.5669,-3.571,-3.571,-3.571,-3.571,-3.571,-3.571,-3.571,-3.5723,-3.5858,-3.5992,-3.6232,-3.6445,-3.6642,-3.6786,-3.6929,-3.7109,-4.1311,-4.1311,-4.1311,-4.1311,-4.1311,-4.1311,-4.1311,-4.1311,-4.1311,-4.1211,-4.1047,-4.1047,-4.0896,-4.0656,-4.0643,-4.0491,-4.0262,-4.053,-4.0696,-4.0758,-4.0784,-4.0706,-4.055,-4.0473,-4.0421,-4.0343,-4.0088,-3.9948,-4.0036,-4.0325,-4.0915,-4.1463,-4.1641,-4.1991,-4.2407,-4.2256,-4.2098,-4.2061,-4.148,-4.0806,-4.0026,-3.9455,-3.8761,-3.8135,-3.7974,-3.7974,-3.7974,-3.7974,-3.7721,-3.724,-3.7036,-3.6555,-3.5761,-3.5268,-3.5088,-3.5076,-3.5076,-3.5028,-3.4823,-3.4775,-3.4775,-3.4775,-3.4775,-3.4775,-3.4775,-3.4775,-3.4775,-3.4775,-3.4775,-3.4775,-3.4775,-3.4775,-3.4775,-3.4823,-3.5175,-3.5476,-3.5668,-3.6003,-3.5965,-3.5596,-3.5194,-3.4705,-3.4098,-3.3696,-3.3483,-3.3199,-3.3308,-3.3484,-3.3683,-3.3894,-3.416,-3.4356,-3.441,-3.4494,-3.4701,-3.4921,-3.5195,-3.548,-3.5588,-3.571,-3.571,-3.571,-3.571,-3.571,-3.571,-3.571,-3.5723,-3.5777,-3.5898,-3.6032,-3.6232,-3.6445,-3.6642,-3.68,-3.6929,-4.1311,-4.1311,-4.1311,-4.1261,-4.1161,-4.1161,-4.1123,-4.101,-4.1023,-4.0896,-4.0795,-4.0744,-4.058,-4.0402,-4.0351,-4.0198,-3.9968,-3.9917,-3.9878,-3.9826,-3.9826,-3.962,-3.9374,-3.9374,-3.9387,-3.9374,-3.9374,-3.9374,-3.9399,-3.9723,-4.0118,-4.0666,-4.0983,-4.1336,-4.1798,-4.1805,-4.1684,-4.1395,-4.0942,-4.0285,-3.9588,-3.8984,-3.8389,-3.7922,-3.7838,-3.7826,-3.7838,-3.7945,-3.7829,-3.7517,-3.7312,-3.6687,-3.5725,-3.5316,-3.4991,-3.4811,-3.4775,-3.4775,-3.4775,-3.4775,-3.4775,-3.4775,-3.4775,-3.4775,-3.4775,-3.4775,-3.4775,-3.4775,-3.4775,-3.4775,-3.4775,-3.4775,-3.4775,-3.4775,-3.5271,-3.5656,-3.5847,-3.6168,-3.6245,-3.5906,-3.5596,-3.5157,-3.468,-3.4035,-3.3822,-3.3476,-3.3323,-3.3356,-3.3556,-3.3755,-3.4021,-3.423,-3.4356,-3.4452,-3.4618,-3.4867,-3.5113,-3.5318,-3.5521,-3.5629,-3.571,-3.571,-3.571,-3.571,-3.571,-3.571,-3.5723,-3.5723,-3.5804,-3.5898,-3.6032,-3.6206,-3.6405,-3.6524,-3.6668,-4.1311,-4.1261,-4.1261,-4.111,-4.0896,-4.0896,-4.0744,-4.0555,-4.0555,-4.0555,-4.0504,-4.0491,-4.0338,-4.0121,-4.0083,-3.9942,-3.9736,-3.9685,-3.9517,-3.931,-3.9258,-3.9102,-3.8945,-3.8893,-3.8893,-3.8893,-3.8841,-3.8841,-3.8893,-3.8967,-3.9136,-3.9804,-3.9988,-4.0232,-4.0787,-4.1006,-4.082,-4.0515,-4.0327,-3.9717,-3.89,-3.8527,-3.8149,-3.7714,-3.7691,-3.7691,-3.7744,-3.7892,-3.7974,-3.7902,-3.7457,-3.6783,-3.5942,-3.5665,-3.534,-3.4907,-3.4811,-3.4775,-3.4775,-3.4775,-3.4775,-3.4775,-3.4775,-3.4775,-3.4775,-3.4775,-3.4775,-3.4775,-3.4775,-3.4775,-3.4775,-3.4775,-3.4823,-3.4884,-3.532,-3.5812,-3.6323,-3.6405,-3.6355,-3.6245,-3.5906,-3.5495,-3.5357,-3.4613,-3.4161,-3.3771,-3.3488,-3.3417,-3.3398,-3.3641,-3.381,-3.4021,-3.4272,-3.4397,-3.4535,-3.4867,-3.5113,-3.5236,-3.544,-3.5629,-3.571,-3.571,-3.571,-3.571,-3.571,-3.571,-3.571,-3.571,-3.571,-3.5764,-3.5898,-3.6046,-3.6166,-3.6312,-3.6431,-4.1348,-4.0997,-4.0997,-4.0846,-4.0605,-4.0605,-4.0605,-4.0504,-4.0504,-4.0351,-4.0224,-4.0236,-4.0044,-3.9839,-3.9788,-3.9749,-3.9645,-3.949,-3.9218,-3.8945,-3.8736,-3.8736,-3.8788,-3.8788,-3.8788,-3.8788,-3.8736,-3.8788,-3.8788,-3.8736,-3.9083,-3.9664,-3.9477,-3.9697,-4.0141,-4.0137,-3.9958,-3.9765,-3.9417,-3.9164,-3.8827,-3.8353,-3.8035,-3.7928,-3.788,-3.7892,-3.7892,-3.7933,-3.7974,-3.7938,-3.7481,-3.7108,-3.6699,-3.6074,-3.5593,-3.5364,-3.4991,-3.4775,-3.4775,-3.4775,-3.4775,-3.4775,-3.4775,-3.4775,-3.4775,-3.4775,-3.4775,-3.4775,-3.4775,-3.4775,-3.4775,-3.4775,-3.4872,-3.5078,-3.5428,-3.5812,-3.6275,-3.6417,-3.6417,-3.6392,-3.6254,-3.5956,-3.5558,-3.5207,-3.4693,-3.4123,-3.3746,-3.3557,-3.3452,-3.3569,-3.3768,-3.4021,-3.4243,-3.4356,-3.4522,-3.4867,-3.5072,-3.5154,-3.5399,-3.5669,-3.571,-3.571,-3.571,-3.571,-3.571,-3.571,-3.571,-3.571,-3.571,-3.571,-3.5764,-3.5898,-3.6032,-3.6152,-3.6272,-4.1448,-4.1047,-4.0933,-4.0744,-4.0504,-4.0351,-4.0236,-4.0198,-4.0147,-4.0083,-3.9929,-3.9929,-3.9839,-3.9697,-3.9697,-3.9633,-3.953,-3.9362,-3.9062,-3.8631,-3.8368,-3.8368,-3.8409,-3.8461,-3.8461,-3.8473,-3.8461,-3.8461,-3.8461,-3.8473,-3.8656,-3.8871,-3.9006,-3.9231,-3.9467,-3.9611,-3.9477,-3.9272,-3.896,-3.8731,-3.8455,-3.8071,-3.7886,-3.785,-3.7838,-3.7892,-3.7986,-3.7974,-3.7974,-3.7914,-3.7673,-3.7433,-3.7168,-3.6639,-3.6086,-3.5689,-3.5255,-3.5027,-3.4823,-3.4775,-3.4775,-3.4775,-3.4775,-3.4775,-3.4775,-3.4775,-3.4775,-3.4775,-3.4775,-3.4775,-3.4775,-3.4775,-3.4932,-3.5187,-3.5428,-3.5752,-3.6181,-3.631,-3.6417,-3.6417,-3.6392,-3.6317,-3.5906,-3.5658,-3.5094,-3.4474,-3.4022,-3.3695,-3.3379,-3.3547,-3.3641,-3.3894,-3.416,-3.4285,-3.4494,-3.4825,-3.5072,-3.5154,-3.5399,-3.5683,-3.571,-3.571,-3.571,-3.571,-3.571,-3.571,-3.571,-3.571,-3.571,-3.571,-3.571,-3.5764,-3.5898,-3.5978,-3.6072,-4.1547,-4.1311,-4.0997,-4.0744,-4.0453,-4.0185,-3.9981,-3.9749,-3.9749,-3.9749,-3.9749,-3.9697,-3.9749,-3.9697,-3.9697,-3.9594,-3.931,-3.9206,-3.8881,-3.8514,-3.8198,-3.8145,-3.8145,-3.8145,-3.808,-3.8092,-3.8027,-3.8099,-3.8236,-3.8183,-3.8147,-3.8417,-3.8701,-3.8731,-3.8858,-3.914,-3.9128,-3.8803,-3.8683,-3.8455,-3.8154,-3.7862,-3.7744,-3.7744,-3.7797,-3.7945,-3.8092,-3.8145,-3.8145,-3.8092,-3.8039,-3.7721,-3.7336,-3.7252,-3.6771,-3.605,-3.5785,-3.5509,-3.5124,-3.5064,-3.4895,-3.4919,-3.4847,-3.4775,-3.4775,-3.4775,-3.4775,-3.4775,-3.4775,-3.4775,-3.4775,-3.4775,-3.4872,-3.5126,-3.538,-3.5668,-3.5908,-3.6181,-3.6417,-3.6417,-3.6417,-3.6417,-3.6292,-3.5931,-3.5429,-3.4893,-3.4449,-3.3979,-3.36,-3.3495,-3.3577,-3.3628,-3.3894,-3.4202,-3.4452,-3.4743,-3.499,-3.5195,-3.548,-3.5723,-3.571,-3.571,-3.571,-3.571,-3.571,-3.571,-3.571,-3.571,-3.571,-3.571,-3.571,-3.571,-3.571,-3.5804,-3.5884,-4.1746,-4.1261,-4.0997,-4.063,-4.0236,-4.0134,-3.9942,-3.9685,-3.9697,-3.9749,-3.9697,-3.9697,-3.9697,-3.9697,-3.9697,-3.9581,-3.9258,-3.905,-3.8684,-3.8409,-3.8356,-3.8303,-3.825,-3.8145,-3.8039,-3.8027,-3.7974,-3.819,-3.8479,-3.8539,-3.8635,-3.8647,-3.8671,-3.8611,-3.8322,-3.8395,-3.831,-3.8166,-3.8178,-3.8142,-3.8046,-3.7921,-3.788,-3.7933,-3.8092,-3.8356,-3.8566,-3.8619,-3.8631,-3.8526,-3.8238,-3.7942,-3.7774,-3.7421,-3.7084,-3.6783,-3.6411,-3.617,-3.6014,-3.5653,-3.5437,-3.5364,-3.5039,-3.4775,-3.4775,-3.4775,-3.4775,-3.4775,-3.4775,-3.4775,-3.4775,-3.4775,-3.4823,-3.492,-3.5126,-3.532,-3.5464,-3.5978,-3.6323,-3.637,-3.6417,-3.6417,-3.6417,-3.6342,-3.5868,-3.5357,-3.4843,-3.4336,-3.3922,-3.3561,-3.3525,-3.3577,-3.3768,-3.4076,-3.4285,-3.4632,-3.4962,-3.5113,-3.5399,-3.5642,-3.5642,-3.5683,-3.5642,-3.5683,-3.571,-3.571,-3.571,-3.571,-3.571,-3.571,-3.571,-3.571,-3.571,-3.571,-3.571,-4.2105,-4.1448,-4.1211,-4.0846,-4.0478,-4.0338,-4.0147,-3.9942,-3.989,-3.9839,-3.9749,-3.9697,-3.9697,-3.9697,-3.9697,-3.9542,-3.927,-3.8945,-3.8736,-3.8631,-3.8579,-3.8579,-3.8579,-3.8421,-3.8303,-3.808,-3.7974,-3.8178,-3.8407,-3.8707,-3.8737,-3.8773,-3.8773,-3.8707,-3.8346,-3.8106,-3.8022,-3.7998,-3.7974,-3.7974,-3.7974,-3.7974,-3.808,-3.8198,-3.8473,-3.8684,-3.8788,-3.8788,-3.8788,-3.8736,-3.8526,-3.8303,-3.8133,-3.7814,-3.7469,-3.7168,-3.6976,-3.6615,-3.6386,-3.6146,-3.5857,-3.5653,-3.5352,-3.5039,-3.4859,-3.4775,-3.4775,-3.4775,-3.4775,-3.4775,-3.4775,-3.4775,-3.4775,-3.4823,-3.503,-3.5175,-3.532,-3.58,-3.6181,-3.6241,-3.631,-3.637,-3.6417,-3.6417,-3.6107,-3.5508,-3.5345,-3.4793,-3.4048,-3.3726,-3.3548,-3.3593,-3.3734,-3.3949,-3.4173,-3.4507,-3.4893,-3.5086,-3.5236,-3.5399,-3.548,-3.5521,-3.5602,-3.5642,-3.571,-3.571,-3.571,-3.571,-3.571,-3.571,-3.571,-3.571,-3.571,-3.571,-3.571,-4.2582,-4.1845,-4.161,-4.1298,-4.0997,-4.0757,-4.0491,-4.0224,-4.0185,-4.0032,-3.989,-3.9852,-3.9903,-3.9839,-3.9852,-3.9685,-3.9413,-3.9206,-3.9089,-3.9102,-3.9102,-3.9089,-3.905,-3.8998,-3.8788,-3.825,-3.8198,-3.8229,-3.855,-3.8737,-3.9159,-3.9068,-3.8972,-3.89,-3.8719,-3.8274,-3.7974,-3.7974,-3.7974,-3.7974,-3.8027,-3.808,-3.825,-3.8579,-3.8736,-3.8945,-3.8998,-3.8998,-3.901,-3.8958,-3.8893,-3.8736,-3.8526,-3.8226,-3.7935,-3.7413,-3.7376,-3.7168,-3.6879,-3.6615,-3.635,-3.5881,-3.5811,-3.5534,-3.5173,-3.5138,-3.509,-3.4908,-3.4884,-3.4775,-3.4775,-3.4775,-3.4775,-3.4823,-3.503,-3.5126,-3.5271,-3.5668,-3.592,-3.6051,-3.6228,-3.6417,-3.6417,-3.6405,-3.6056,-3.5793,-3.5596,-3.527,-3.4525,-3.3985,-3.3928,-3.3952,-3.4201,-3.429,-3.4464,-3.4489,-3.4905,-3.5068,-3.5152,-3.5249,-3.5358,-3.5358,-3.5453,-3.5642,-3.571,-3.5669,-3.5669,-3.571,-3.571,-3.571,-3.571,-3.571,-3.571,-3.571,-3.5669,-4.3184,-4.2693,-4.24,-4.2007,-4.1547,-4.1261,-4.106,-4.0732,-4.0605,-4.0415,-4.0402,-4.0351,-4.0351,-4.0351,-4.0351,-4.0236,-4.0032,-3.9917,-3.9865,-3.9865,-3.9865,-3.9865,-3.9865,-3.9724,-3.9517,-3.931,-3.9072,-3.9124,-3.9454,-3.9801,-3.9849,-3.9941,-3.9621,-3.9272,-3.8815,-3.8286,-3.8039,-3.8039,-3.8027,-3.8027,-3.8145,-3.8303,-3.8619,-3.8998,-3.9154,-3.9258,-3.9478,-3.9542,-3.9542,-3.9542,-3.9322,-3.9206,-3.8998,-3.8619,-3.8283,-3.8093,-3.7875,-3.7661,-3.7529,-3.7252,-3.7072,-3.6895,-3.6722,-3.6351,-3.6,-3.588,-3.5649,-3.5175,-3.4932,-3.4823,-3.4775,-3.4775,-3.4775,-3.4823,-3.4823,-3.4981,-3.5223,-3.5524,-3.5812,-3.5955,-3.6181,-3.6417,-3.6417,-3.6417,-3.6279,-3.6031,-3.5881,-3.5621,-3.5094,-3.4726,-3.45,-3.4621,-3.4749,-3.4804,-3.4844,-3.4829,-3.4927,-3.5048,-3.516,-3.5163,-3.5247,-3.5153,-3.5249,-3.544,-3.5588,-3.5588,-3.5629,-3.5629,-3.5629,-3.5548,-3.5629,-3.5669,-3.5588,-3.5548,-3.5588,-4.3473,-4.2835,-4.2978,-4.2763,-4.2338,-4.2204,-4.1993,-4.1733,-4.1435,-4.1248,-4.1097,-4.0984,-4.0883,-4.0933,-4.0946,-4.0833,-4.0732,-4.0719,-4.0719,-4.0719,-4.0732,-4.0732,-4.0732,-4.058,-4.044,-4.0377,-4.0272,-4.0077,-4.0075,-4.0165,-4.0495,-4.0585,-4.0195,-3.9661,-3.9219,-3.8448,-3.8164,-3.8145,-3.8198,-3.8303,-3.8421,-3.8684,-3.905,-3.9206,-3.9426,-3.9581,-3.9645,-3.9697,-3.9697,-3.9645,-3.9594,-3.953,-3.9322,-3.8998,-3.8566,-3.8409,-3.8133,-3.7974,-3.7974,-3.7697,-3.7545,-3.7387,-3.73,-3.71,-3.6724,-3.6468,-3.6064,-3.5454,-3.5126,-3.492,-3.4823,-3.4823,-3.4775,-3.4775,-3.4823,-3.492,-3.5175,-3.5416,-3.5716,-3.6003,-3.6228,-3.637,-3.6417,-3.6417,-3.6417,-3.6304,-3.6107,-3.5881,-3.5583,-3.5345,-3.5115,-3.503,-3.5128,-3.5181,-3.519,-3.5189,-3.5165,-3.5236,-3.5242,-3.5288,-3.5184,-3.5173,-3.5192,-3.5236,-3.5358,-3.5386,-3.5399,-3.5318,-3.5358,-3.5399,-3.5399,-3.5399,-3.5399,-3.5399,-3.544,-4.3837,-4.3097,-4.3634,-4.3662,-4.3259,-4.3163,-4.3005,-4.2798,-4.2457,-4.2213,-4.198,-4.1769,-4.167,-4.162,-4.1571,-4.1534,-4.1471,-4.1458,-4.1408,-4.1421,-4.1421,-4.1471,-4.1471,-4.1421,-4.1335,-4.12,-4.1244,-4.1285,-4.0771,-4.0777,-4.1046,-4.1016,-4.0502,-4.0026,-3.9654,-3.8728,-3.8465,-3.8409,-3.8461,-3.8631,-3.8905,-3.9166,-3.9322,-3.9362,-3.9594,-3.9685,-3.9697,-3.9697,-3.9697,-3.9697,-3.9697,-3.9697,-3.9594,-3.9166,-3.8788,-3.8461,-3.8198,-3.8027,-3.8027,-3.8068,-3.7956,-3.7834,-3.7892,-3.778,-3.7478,-3.7023,-3.6395,-3.5697,-3.5405,-3.5235,-3.4969,-3.4823,-3.4823,-3.4823,-3.4872,-3.4969,-3.5271,-3.556,-3.5847,-3.6086,-3.6275,-3.637,-3.6417,-3.6417,-3.6417,-3.6417,-3.6267,-3.6157,-3.5931,-3.5881,-3.5629,-3.5407,-3.538,-3.5506,-3.5558,-3.56,-3.5578,-3.5605,-3.5577,-3.5549,-3.5355,-3.5228,-3.5169,-3.5095,-3.4949,-3.4936,-3.499,-3.5072,-3.5195,-3.5195,-3.5113,-3.5113,-3.5195,-3.5236,-3.5236,-4.4908,-4.4285,-4.4747,-4.4741,-4.4415,-4.404,-4.3837,-4.3743,-4.3314,-4.3074,-4.2991,-4.2825,-4.2679,-4.2631,-4.2435,-4.2239,-4.2079,-4.2029,-4.2029,-4.2029,-4.2016,-4.2016,-4.2016,-4.2029,-4.198,-4.1885,-4.1842,-4.1697,-4.151,-4.1663,-4.1726,-4.1506,-4.0812,-4.0212,-3.98,-3.8973,-3.8761,-3.8724,-3.8776,-3.8945,-3.9206,-3.9322,-3.9426,-3.9581,-3.9697,-3.9697,-3.9697,-3.9697,-3.9697,-3.9697,-3.9697,-3.9697,-3.9645,-3.9426,-3.9102,-3.8736,-3.8356,-3.8027,-3.8092,-3.8198,-3.8384,-3.8383,-3.8669,-3.8733,-3.8251,-3.7754,-3.7233,-3.6663,-3.6248,-3.5722,-3.5247,-3.4945,-3.4823,-3.4872,-3.4981,-3.5223,-3.5464,-3.5668,-3.5943,-3.6181,-3.637,-3.637,-3.6417,-3.6417,-3.6417,-3.6417,-3.6392,-3.6329,-3.6267,-3.6132,-3.6107,-3.5839,-3.5743,-3.5859,-3.6024,-3.6058,-3.6135,-3.61,-3.6017,-3.5926,-3.5791,-3.5572,-3.5031,-3.4918,-3.4774,-3.4699,-3.4825,-3.4949,-3.5031,-3.5031,-3.4908,-3.499,-3.5113,-3.5086,-3.5017,-4.5399,-4.4632,-4.5371,-4.5489,-4.5124,-4.4926,-4.4741,-4.4541,-4.4242,-4.4007,-4.3818,-4.3594,-4.3451,-4.3293,-4.3149,-4.2991,-4.2811,-4.2763,-4.2666,-4.2582,-4.2533,-4.2533,-4.2533,-4.2533,-4.2533,-4.2369,-4.2538,-4.2661,-4.2462,-4.2031,-4.1839,-4.1796,-4.1018,-4.0417,-3.995,-3.9204,-3.9007,-3.905,-3.9206,-3.9362,-3.9478,-3.953,-3.9581,-3.9697,-3.9697,-3.9697,-3.9697,-3.9697,-3.9697,-3.9697,-3.9697,-3.9697,-3.9645,-3.9478,-3.9206,-3.9102,-3.8566,-3.825,-3.825,-3.8368,-3.8566,-3.8841,-3.9117,-3.9036,-3.8741,-3.8479,-3.7992,-3.7295,-3.6641,-3.6125,-3.5612,-3.515,-3.4871,-3.4872,-3.5126,-3.5368,-3.5608,-3.586,-3.6051,-3.6228,-3.6417,-3.6417,-3.6417,-3.637,-3.637,-3.6405,-3.6358,-3.6285,-3.6307,-3.6342,-3.6329,-3.6317,-3.6213,-3.6206,-3.64,-3.6542,-3.6792,-3.6748,-3.6655,-3.6523,-3.6358,-3.6018,-3.5534,-3.5168,-3.5093,-3.501,-3.4901,-3.4743,-3.4743,-3.4729,-3.4688,-3.485,-3.4958,-3.4809,-3.478,-4.5783,-4.5117,-4.6063,-4.6254,-4.5956,-4.5821,-4.5685,-4.5444,-4.5184,-4.4954,-4.469,-4.4364,-4.4068,-4.3804,-4.3723,-4.3533,-4.3355,-4.3403,-4.3259,-4.3115,-4.3067,-4.3018,-4.2984,-4.2984,-4.2838,-4.2609,-4.2905,-4.2927,-4.2668,-4.2334,-4.2021,-4.2097,-4.1212,-4.0608,-4.0212,-3.9703,-3.931,-3.9374,-3.953,-3.9633,-3.9697,-3.9697,-3.9697,-3.9697,-3.9697,-3.9697,-3.9697,-3.9788,-3.9839,-3.9839,-3.9955,-3.9955,-3.9955,-3.9736,-3.9517,-3.9362,-3.8945,-3.8671,-3.8619,-3.8671,-3.8828,-3.9102,-3.9362,-3.9367,-3.9182,-3.9057,-3.878,-3.8017,-3.7344,-3.6726,-3.6112,-3.5478,-3.5186,-3.5163,-3.5284,-3.5464,-3.5656,-3.5955,-3.6146,-3.6275,-3.6417,-3.6417,-3.637,-3.6323,-3.6323,-3.6358,-3.6358,-3.6263,-3.6275,-3.6275,-3.6275,-3.6275,-3.638,-3.6339,-3.648,-3.6798,-3.7108,-3.7276,-3.7176,-3.7045,-3.6771,-3.6528,-3.6123,-3.5822,-3.5547,-3.546,-3.5417,-3.49,-3.441,-3.4546,-3.4695,-3.473,-3.474,-3.4672,-3.4832,-4.6244,-4.6229,-4.6896,-4.7149,-4.7077,-4.6727,-4.6506,-4.6373,-4.597,-4.579,-4.5564,-4.506,-4.4597,-4.4303,-4.4068,-4.3865,-4.3553,-4.3566,-4.3519,-4.3519,-4.3566,-4.3389,-4.3307,-4.3211,-4.3128,-4.2935,-4.3063,-4.2904,-4.2605,-4.2529,-4.2298,-4.2121,-4.1441,-4.0811,-4.0388,-4.0005,-3.9724,-3.9685,-3.9697,-3.9697,-3.9697,-3.9697,-3.9697,-3.9697,-3.9697,-3.9697,-3.9685,-3.9878,-4.0032,-4.0032,-4.0198,-4.03,-4.0249,-4.0083,-3.9878,-3.962,-3.9374,-3.9154,-3.9102,-3.8945,-3.8998,-3.9258,-3.9465,-3.9608,-3.9509,-3.9584,-3.9333,-3.8755,-3.8114,-3.7405,-3.6701,-3.6039,-3.5612,-3.5405,-3.5476,-3.5716,-3.5908,-3.6133,-3.6323,-3.637,-3.6417,-3.6417,-3.6323,-3.6241,-3.6193,-3.6228,-3.6086,-3.5991,-3.5943,-3.5943,-3.6051,-3.6098,-3.6275,-3.6345,-3.6439,-3.664,-3.6968,-3.7214,-3.7252,-3.7209,-3.7084,-3.6854,-3.6737,-3.6345,-3.607,-3.6005,-3.5848,-3.5338,-3.492,-3.4685,-3.4711,-3.5051,-3.5286,-3.5365,-3.5547,-4.6313,-4.668,-4.7128,-4.7389,-4.7467,-4.7279,-4.7062,-4.68,-4.658,-4.6269,-4.588,-4.5427,-4.5014,-4.469,-4.4551,-4.427,-4.3865,-4.3832,-4.377,-4.3662,-4.3566,-4.3566,-4.3485,-4.3485,-4.3437,-4.3293,-4.3211,-4.3128,-4.2997,-4.2693,-4.2494,-4.22,-4.169,-4.1243,-4.0847,-4.0338,-4.0083,-3.9942,-3.9788,-3.9697,-3.9697,-3.9697,-3.9697,-3.9697,-3.9697,-3.9697,-3.9749,-3.9929,-4.0083,-4.0185,-4.0389,-4.0504,-4.0555,-4.0389,-4.0236,-3.9993,-3.9736,-3.9581,-3.953,-3.9322,-3.9258,-3.949,-3.9645,-3.9697,-3.9697,-3.9697,-3.9634,-3.9243,-3.8751,-3.7963,-3.7295,-3.6591,-3.6052,-3.5757,-3.5716,-3.5968,-3.6098,-3.6323,-3.637,-3.6417,-3.6417,-3.6417,-3.6275,-3.6193,-3.6146,-3.6111,-3.5908,-3.5716,-3.562,-3.5668,-3.5764,-3.5908,-3.6098,-3.6288,-3.6323,-3.6546,-3.6769,-3.7062,-3.732,-3.7344,-3.7365,-3.7573,-3.7377,-3.6959,-3.6606,-3.6515,-3.6266,-3.5783,-3.5482,-3.5338,-3.5456,-3.5717,-3.59,-3.607,-3.6227,-4.6237,-4.6726,-4.725,-4.7592,-4.7792,-4.7752,-4.7523,-4.7264,-4.7134,-4.68,-4.615,-4.5821,-4.5458,-4.5152,-4.4844,-4.4658,-4.427,-4.4176,-4.4007,-4.3912,-4.3899,-4.3818,-4.3757,-4.3709,-4.3662,-4.3614,-4.3471,-4.3341,-4.3225,-4.2887,-4.2733,-4.244,-4.2007,-4.1623,-4.1123,-4.0643,-4.0185,-4.0083,-3.9942,-3.9736,-3.9736,-3.9697,-3.9697,-3.9697,-3.9697,-3.9697,-3.98,-3.9942,-4.0134,-4.0287,-4.0491,-4.0656,-4.0707,-4.0643,-4.0542,-4.0287,-4.0044,-3.9826,-3.9736,-3.9633,-3.953,-3.9645,-3.9697,-3.9697,-3.9697,-3.9697,-3.9647,-3.9634,-3.9078,-3.8451,-3.7767,-3.7072,-3.6419,-3.6048,-3.6028,-3.6181,-3.6228,-3.631,-3.637,-3.6417,-3.6417,-3.6417,-3.6228,-3.6098,-3.5812,-3.5764,-3.562,-3.5416,-3.5271,-3.532,-3.5524,-3.5668,-3.5908,-3.6051,-3.6241,-3.6452,-3.6675,-3.7015,-3.7261,-3.7518,-3.7625,-3.7854,-3.7874,-3.7482,-3.7181,-3.7037,-3.6881,-3.6711,-3.6397,-3.607,-3.6227,-3.6384,-3.6776,-3.6946,-3.6867,-4.6202,-4.6351,-4.7377,-4.7983,-4.8194,-4.8076,-4.7964,-4.788,-4.7666,-4.7264,-4.6756,-4.6225,-4.588,-4.5654,-4.5213,-4.489,-4.4658,-4.4457,-4.435,-4.4256,-4.4209,-4.4176,-4.4068,-4.396,-4.3912,-4.3648,-4.3614,-4.3533,-4.3369,-4.3225,-4.308,-4.2838,-4.2449,-4.1957,-4.1311,-4.0757,-4.0389,-4.0134,-4.0147,-4.0018,-3.9901,-3.9925,-3.9961,-3.9835,-3.9848,-3.986,-3.9761,-3.9942,-4.0185,-4.0338,-4.0643,-4.0896,-4.1047,-4.0946,-4.0846,-4.0782,-4.0377,-4.0121,-4.0083,-3.9839,-3.9697,-3.9685,-3.9697,-3.9697,-3.9697,-3.9697,-3.9697,-3.9672,-3.9417,-3.8739,-3.8078,-3.7519,-3.6886,-3.6498,-3.6441,-3.631,-3.631,-3.6358,-3.637,-3.6417,-3.6417,-3.637,-3.6181,-3.5943,-3.5608,-3.5368,-3.5271,-3.5126,-3.5017,-3.5078,-3.5271,-3.5476,-3.5716,-3.5908,-3.6098,-3.631,-3.6546,-3.6922,-3.7214,-3.7459,-3.7703,-3.7854,-3.7861,-3.7795,-3.7691,-3.7456,-3.7625,-3.7782,-3.7286,-3.6815,-3.6881,-3.709,-3.7521,-3.7691,-3.7482,-4.5984,-4.6454,-4.7146,-4.7767,-4.8289,-4.8368,-4.8343,-4.8175,-4.7922,-4.7581,-4.7207,-4.6902,-4.6417,-4.597,-4.5609,-4.5244,-4.4844,-4.4737,-4.4597,-4.4411,-4.4411,-4.4364,-4.4256,-4.4223,-4.4162,-4.4101,-4.396,-4.3832,-4.3798,-4.3512,-4.3321,-4.3067,-4.2693,-4.2155,-4.166,-4.1198,-4.0896,-4.0657,-4.0632,-4.0589,-4.0523,-4.0618,-4.0576,-4.0262,-4.0237,-4.0086,-3.9785,-4.0005,-4.0185,-4.03,-4.063,-4.0883,-4.1047,-4.0997,-4.1047,-4.0933,-4.063,-4.0427,-4.0185,-3.989,-3.9697,-3.9697,-3.9697,-3.9697,-3.9697,-3.9697,-3.9697,-3.9697,-3.9581,-3.9067,-3.8667,-3.8054,-3.7479,-3.6928,-3.6747,-3.6458,-3.637,-3.6417,-3.6417,-3.6417,-3.6417,-3.6133,-3.5943,-3.58,-3.5464,-3.5271,-3.5175,-3.5078,-3.4981,-3.4932,-3.503,-3.5284,-3.5524,-3.5764,-3.5991,-3.6263,-3.6593,-3.6968,-3.7214,-3.7366,-3.7611,-3.7854,-3.7887,-3.7848,-3.7874,-3.79,-3.79,-3.7874,-3.7769,-3.7573,-3.7482,-3.7456,-3.7691,-3.7835,-3.7782,-4.595,-4.6408,-4.6821,-4.7379,-4.8051,-4.8602,-4.8744,-4.851,-4.8218,-4.788,-4.7568,-4.7396,-4.6917,-4.6298,-4.5925,-4.564,-4.506,-4.4844,-4.4737,-4.4504,-4.4411,-4.4411,-4.4364,-4.4425,-4.4364,-4.4364,-4.4223,-4.4082,-4.394,-4.3689,-4.3451,-4.3225,-4.2852,-4.2449,-4.2007,-4.166,-4.1442,-4.1321,-4.1299,-4.1193,-4.1252,-4.1281,-4.1223,-4.0902,-4.0739,-4.0576,-4.0201,-4.0091,-4.0222,-4.0287,-4.0389,-4.0681,-4.0795,-4.0946,-4.1047,-4.0933,-4.0744,-4.0491,-4.0044,-3.9839,-3.9697,-3.9697,-3.9697,-3.9697,-3.9697,-3.9697,-3.9697,-3.9697,-3.9697,-3.9383,-3.8931,-3.8391,-3.8003,-3.7451,-3.7078,-3.6851,-3.6457,-3.647,-3.6393,-3.638,-3.6293,-3.5982,-3.5693,-3.556,-3.5368,-3.5271,-3.5114,-3.5102,-3.5078,-3.5042,-3.509,-3.5284,-3.5524,-3.5812,-3.6086,-3.6358,-3.6687,-3.7062,-3.7214,-3.7413,-3.7611,-3.79,-3.79,-3.79,-3.79,-3.79,-3.79,-3.7861,-3.7795,-3.7795,-3.7795,-3.7808,-3.79,-3.79,-3.79,-4.6112,-4.6151,-4.6408,-4.6966,-4.7675,-4.8794,-4.9169,-4.8955,-4.851,-4.8202,-4.7964,-4.7553,-4.7077,-4.6639,-4.6164,-4.579,-4.5458,-4.5075,-4.4876,-4.4737,-4.4565,-4.4472,-4.4411,-4.4425,-4.4425,-4.4425,-4.4364,-4.4223,-4.4035,-4.3832,-4.3594,-4.3362,-4.3106,-4.2855,-4.2525,-4.2375,-4.2134,-4.2054,-4.2151,-4.2045,-4.2049,-4.1948,-4.1812,-4.1537,-4.1317,-4.1053,-4.0727,-4.0591,-4.0394,-4.0297,-4.021,-4.0326,-4.0504,-4.0744,-4.0846,-4.0795,-4.0593,-4.0249,-3.9955,-3.98,-3.9697,-3.9697,-3.9697,-3.9697,-3.9697,-3.9697,-3.9697,-3.9697,-3.9685,-3.9371,-3.9007,-3.873,-3.8454,-3.8017,-3.7606,-3.7159,-3.6677,-3.6517,-3.6405,-3.6342,-3.6219,-3.6012,-3.5793,-3.5587,-3.5576,-3.5697,-3.5709,-3.5953,-3.5855,-3.5465,-3.5453,-3.5464,-3.5716,-3.5908,-3.6181,-3.6465,-3.6781,-3.7168,-3.7366,-3.7518,-3.7749,-3.79,-3.79,-3.79,-3.79,-3.79,-3.79,-3.79,-3.7887,-3.79,-3.79,-3.79,-3.79,-3.79,-3.79,-4.6187,-4.6176,-4.6665,-4.7251,-4.7921,-4.9016,-4.9331,-4.8996,-4.8816,-4.8609,-4.8218,-4.7922,-4.7452,-4.7077,-4.658,-4.6135,-4.5776,-4.5413,-4.5092,-4.4876,-4.4751,-4.4551,-4.4457,-4.4457,-4.4411,-4.4411,-4.4411,-4.4364,-4.4209,-4.3974,-4.3669,-4.3335,-4.3495,-4.3484,-4.3463,-4.3469,-4.3107,-4.2833,-4.2983,-4.3008,-4.2918,-4.2904,-4.2624,-4.2346,-4.2095,-4.1726,-4.1307,-4.1169,-4.0961,-4.0545,-4.0575,-4.0617,-4.0173,-4.044,-4.0593,-4.0605,-4.0389,-4.0134,-3.9981,-3.9788,-3.9697,-3.9697,-3.9697,-3.9697,-3.9697,-3.9697,-3.9697,-3.9697,-3.9697,-3.9459,-3.9283,-3.9056,-3.8728,-3.8326,-3.7914,-3.7517,-3.7071,-3.6848,-3.6726,-3.6554,-3.6481,-3.6211,-3.5966,-3.5868,-3.5941,-3.6113,-3.6333,-3.6602,-3.6687,-3.6269,-3.6121,-3.6157,-3.6092,-3.638,-3.6386,-3.6631,-3.6934,-3.7261,-3.7505,-3.7703,-3.7913,-3.8005,-3.7946,-3.7959,-3.8044,-3.7985,-3.79,-3.79,-3.7808,-3.79,-3.79,-3.79,-3.79,-3.79,-3.79,-4.6314,-4.6251,-4.6561,-4.7162,-4.8004,-4.893,-4.9251,-4.9178,-4.9078,-4.8774,-4.8412,-4.8091,-4.7752,-4.7251,-4.6771,-4.6373,-4.6001,-4.5595,-4.5321,-4.5184,-4.4968,-4.4862,-4.4723,-4.4583,-4.4551,-4.4504,-4.4457,-4.4364,-4.434,-4.4232,-4.396,-4.429,-4.4275,-4.4144,-4.4248,-4.4422,-4.424,-4.3909,-4.3782,-4.3871,-4.3834,-4.3711,-4.3499,-4.3178,-4.2924,-4.2486,-4.2014,-4.1938,-4.1635,-4.1152,-4.121,-4.0879,-4.0412,-4.0363,-4.0351,-4.0287,-4.0236,-4.0032,-3.989,-3.9788,-3.9749,-3.9697,-3.9697,-3.9697,-3.9697,-3.9697,-3.9697,-3.9697,-3.9697,-3.9659,-3.9534,-3.937,-3.8988,-3.8607,-3.8232,-3.7821,-3.7572,-3.736,-3.7138,-3.6967,-3.6732,-3.646,-3.6263,-3.6228,-3.6292,-3.659,-3.685,-3.7109,-3.727,-3.7231,-3.7167,-3.7179,-3.6975,-3.6893,-3.6909,-3.7057,-3.7322,-3.7655,-3.7756,-3.7965,-3.8109,-3.8412,-3.8583,-3.8431,-3.8215,-3.811,-3.8004,-3.7775,-3.7716,-3.7762,-3.7703,-3.7551,-3.7611,-3.7808,-3.7808,-4.6493,-4.6314,-4.6215,-4.6908,-4.7893,-4.8652,-4.9198,-4.955,-4.9225,-4.8914,-4.8593,-4.8202,-4.7794,-4.7424,-4.6946,-4.6535,-4.618,-4.5821,-4.5549,-4.5504,-4.5276,-4.5078,-4.4986,-4.4908,-4.4815,-4.4723,-4.4626,-4.4542,-4.4564,-4.4642,-4.492,-4.5429,-4.5062,-4.4823,-4.4854,-4.537,-4.5198,-4.469,-4.4507,-4.4439,-4.4349,-4.4245,-4.4203,-4.3916,-4.3771,-4.3563,-4.3179,-4.2894,-4.2674,-4.2156,-4.1717,-4.1342,-4.0698,-4.0294,-4.0235,-4.0083,-4.0032,-3.9929,-3.9839,-3.9736,-3.9697,-3.9697,-3.9697,-3.9697,-3.9697,-3.9697,-3.9697,-3.9697,-3.9697,-3.9697,-3.9609,-3.952,-3.929,-3.8879,-3.8524,-3.8081,-3.77,-3.7564,-3.753,-3.7321,-3.7185,-3.6898,-3.6657,-3.6572,-3.6838,-3.7141,-3.7367,-3.7592,-3.7992,-3.8079,-3.8026,-3.8062,-3.7758,-3.7551,-3.7884,-3.7946,-3.7932,-3.8069,-3.826,-3.8444,-3.87,-3.9044,-3.9396,-3.9084,-3.8759,-3.8358,-3.8135,-3.795,-3.7746,-3.7472,-3.7366,-3.7214,-3.7307,-3.7505,-3.7657,-4.6703,-4.6558,-4.6781,-4.7289,-4.794,-4.8604,-4.9229,-4.9781,-4.9412,-4.9087,-4.8857,-4.8427,-4.8091,-4.7709,-4.7106,-4.6712,-4.6462,-4.606,-4.573,-4.5595,-4.5444,-4.5353,-4.517,-4.5092,-4.5032,-4.494,-4.4872,-4.4851,-4.5108,-4.5351,-4.5475,-4.5575,-4.5491,-4.5574,-4.5462,-4.5991,-4.5882,-4.5276,-4.5196,-4.4863,-4.4574,-4.4435,-4.4271,-4.4161,-4.4,-4.389,-4.3563,-4.3373,-4.2983,-4.2518,-4.22,-4.155,-4.0588,-4.0453,-4.0203,-3.9901,-3.9877,-3.9788,-3.9736,-3.9697,-3.9697,-3.9697,-3.9697,-3.9697,-3.9697,-3.9697,-3.9697,-3.9697,-3.9697,-3.9697,-3.9697,-3.9645,-3.9478,-3.9114,-3.8736,-3.8299,-3.7822,-3.7826,-3.7778,-3.7718,-3.7593,-3.7348,-3.7096,-3.7115,-3.7397,-3.7614,-3.7819,-3.8172,-3.8815,-3.9082,-3.8667,-3.8653,-3.8398,-3.8303,-3.8653,-3.8761,-3.8665,-3.8846,-3.904,-3.9226,-3.9365,-3.9519,-3.9666,-3.9562,-3.932,-3.8867,-3.8499,-3.8332,-3.8028,-3.7544,-3.7236,-3.7134,-3.7053,-3.7214,-3.7366,-4.6772,-4.6596,-4.6658,-4.7146,-4.7861,-4.8288,-4.8999,-4.9726,-4.9477,-4.925,-4.9047,-4.8578,-4.816,-4.7964,-4.7366,-4.6931,-4.6727,-4.6373,-4.609,-4.5896,-4.5761,-4.5685,-4.5504,-4.5367,-4.5321,-4.523,-4.4979,-4.5039,-4.5673,-4.5783,-4.5823,-4.6228,-4.6472,-4.6315,-4.6163,-4.6372,-4.6206,-4.5635,-4.5595,-4.5274,-4.4789,-4.4531,-4.4367,-4.4313,-4.4148,-4.3997,-4.3832,-4.3708,-4.342,-4.2912,-4.2515,-4.2037,-4.1266,-4.0789,-4.04,-4.0086,-3.9885,-3.9697,-3.9722,-3.9735,-3.9722,-3.971,-3.9697,-3.9697,-3.9697,-3.9697,-3.9697,-3.9697,-3.9697,-3.9697,-3.9633,-3.9581,-3.927,-3.8945,-3.8684,-3.8307,-3.8048,-3.7918,-3.7894,-3.7882,-3.7781,-3.7745,-3.7553,-3.7541,-3.7814,-3.8191,-3.8411,-3.858,-3.9276,-3.9697,-3.9347,-3.9196,-3.8917,-3.9036,-3.9342,-3.9414,-3.9307,-3.9568,-3.9765,-3.9956,-4.0039,-3.9934,-3.992,-3.9904,-3.9747,-3.9272,-3.8956,-3.8652,-3.8165,-3.7607,-3.7286,-3.7089,-3.6972,-3.6866,-3.6922,-4.6772,-4.6563,-4.6259,-4.677,-4.771,-4.7877,-4.862,-4.9568,-4.943,-4.9275,-4.9194,-4.862,-4.8244,-4.7922,-4.7553,-4.7236,-4.6931,-4.6594,-4.6403,-4.6314,-4.6225,-4.6046,-4.5866,-4.5745,-4.5609,-4.5453,-4.5246,-4.5642,-4.6189,-4.6238,-4.662,-4.7332,-4.726,-4.6925,-4.6835,-4.6587,-4.6206,-4.5755,-4.5488,-4.5221,-4.4897,-4.4681,-4.4463,-4.4367,-4.4258,-4.4107,-4.3942,-4.3776,-4.364,-4.3267,-4.2755,-4.2355,-4.1936,-4.1317,-4.0927,-4.0614,-4.0337,-4.0099,-3.9923,-3.9923,-3.9823,-3.9735,-3.9722,-3.971,-3.9722,-3.9697,-3.9697,-3.9697,-3.9697,-3.9697,-3.9581,-3.9426,-3.9154,-3.8788,-3.8526,-3.8303,-3.8145,-3.7974,-3.7974,-3.7974,-3.7974,-3.7962,-3.7962,-3.795,-3.8226,-3.8619,-3.8893,-3.9154,-3.9426,-3.953,-3.9432,-3.9499,-3.9512,-3.9686,-3.9984,-3.9938,-3.9813,-3.9953,-4.0122,-4.05,-4.0694,-4.0389,-4.0256,-4.0445,-4.0181,-3.9677,-3.9177,-3.8781,-3.8278,-3.7703,-3.7134,-3.6801,-3.6639,-3.6523,-3.649,-4.6772,-4.6598,-4.6369,-4.6681,-4.7278,-4.7716,-4.8351,-4.9016,-4.9258,-4.9275,-4.9153,-4.8826,-4.8412,-4.8202,-4.7752,-4.7409,-4.7164,-4.6858,-4.6639,-4.655,-4.6491,-4.6358,-4.618,-4.6001,-4.5821,-4.5633,-4.5541,-4.5897,-4.6143,-4.6574,-4.6881,-4.703,-4.7252,-4.7053,-4.6887,-4.6574,-4.6192,-4.5808,-4.5488,-4.5221,-4.4626,-4.4367,-4.4367,-4.4203,-4.4052,-4.3997,-4.3832,-4.364,-4.3504,-4.3288,-4.3002,-4.2559,-4.2191,-4.1773,-4.1422,-4.103,-4.0743,-4.0492,-4.0317,-4.023,-4.013,-3.9792,-3.9755,-3.9706,-3.9681,-3.9619,-3.9606,-3.9581,-3.9581,-3.9645,-3.9594,-3.9374,-3.9102,-3.8736,-3.8421,-3.8198,-3.8027,-3.7974,-3.7974,-3.7974,-3.7974,-3.7974,-3.7974,-3.8015,-3.8133,-3.8409,-3.8526,-3.8841,-3.9206,-3.9362,-3.9478,-3.9597,-3.974,-4.0122,-4.0324,-4.0323,-4.023,-4.0345,-4.0382,-4.0517,-4.0618,-4.055,-4.0538,-4.0571,-4.0408,-4.0016,-3.9523,-3.9044,-3.8466,-3.7866,-3.6985,-3.648,-3.6356,-3.6267,-3.6237]},{"header":{"parameterUnit":"m.s-1","parameterCategory":1,"la1":31.0,"la2":29.5877,"lo1":-88.7671,"lo2":-86.6584,"dy":0.0162,"dx":0.0185,"nx":115,"ny":88,"refTime":"2023-05-05T06:00:00:Z","depth":0,"parameterNumber":3,"parameterNumberName":"V-component_of_WINDS"},"data":[0.0,0.0,0.0,0.0,0.0,0.0,0.0,0.0,0.0,0.0,0.0,0.0,0.0,0.0,0.0,0.0,0.0,0.0,0.0,0.0,0.0,0.0,0.0,0.0,0.0,0.0,0.0,0.0,0.0,0.0,0.0,0.0,0.0,0.0,0.0,0.0,0.0,0.0,0.0,0.0,0.0,0.0,0.0,0.0,0.0,0.0,0.0,0.0,0.0,0.0,0.0,0.0,0.0,0.0,0.0,0.0,0.0,0.0,0.0,0.0,0.0,0.0,0.0,0.0,0.0,0.0,0.0,0.0,0.0,0.0,0.0,0.0,0.0,0.0,0.0,0.0,0.0,0.0,0.0,0.0,0.0,0.0,0.0,0.0,0.0,0.0,0.0,0.0,0.0,0.0,0.0,0.0,0.0,0.0,0.0,0.0,0.0,0.0,0.0,0.0,0.0,0.0,0.0,0.0,0.0,0.0,0.0,0.0,0.0,0.0,0.0,0.0,0.0,0.0,0.0,0.0,0.0,0.0,0.0,0.0,0.0,0.0,0.0,0.0,0.0,0.0,0.0,0.0,0.0,0.0,0.0,0.0,0.0,0.0,0.0,0.0,0.0,0.0,0.0,0.0,0.0,0.0,0.0,0.0,0.0,0.0,0.0,0.0,0.0,0.0,0.0,0.0,0.0,0.0,0.0,0.0,0.0,0.0,0.0,0.0,0.0,0.0,0.0,0.0,0.0,0.0,0.0,0.0,0.0,0.0,0.0,0.0,0.0,0.0,0.0,0.0,0.0,0.0,0.0,0.0,0.0,0.0,0.0,0.0,0.0,0.0,0.0,0.0,0.0,0.0,0.0,0.0,0.0,0.0,0.0,0.0,0.0,0.0,0.0,0.0,0.0,0.0,0.0,0.0,0.0,0.0,0.0,0.0,0.0,0.0,0.0,0.0,0.0,0.0,0.0,0.0,0.0,0.0,0.0,0.0,0.0,0.0,0.0,0.0,0.0,0.0,0.0,0.0,0.0,0.0,0.0,0.0,0.0,0.0,0.0,0.0,0.0,0.0,0.0,0.0,0.0,0.0,0.0,0.0,0.0,0.0,0.0,0.0,0.0,0.0,0.0,0.0,0.0,0.0,0.0,0.0,0.0,0.0,0.0,0.0,0.0,0.0,0.0,0.0,0.0,0.0,0.0,0.0,0.0,0.0,0.0,0.0,0.0,0.0,0.0,0.0,0.0,0.0,0.0,0.0,0.0,0.0,0.0,0.0,0.0,0.0,0.0,0.0,0.0,0.0,0.0,0.0,0.0,0.0,0.0,0.0,0.0,0.0,0.0,0.0,0.0,0.0,0.0,0.0,0.0,0.0,0.0,0.0,0.0,0.0,0.0,0.0,0.0,0.0,0.0,0.0,0.0,0.0,0.0,0.0,0.0,0.0,0.0,0.0,0.0,0.0,0.0,0.0,0.0,0.0,0.0,0.0,0.0,0.0,0.0,0.0,0.0,0.0,0.0,0.0,0.0,0.0,0.0,0.0,0.0,0.0,0.0,0.0,0.0,0.0,0.0,0.0,0.0,0.0,0.0,0.0,0.0,0.0,0.0,0.0,0.0,0.0,0.0,0.0,0.0,0.0,0.0,0.0,0.0,0.0,0.0,0.0,0.0,0.0,0.0,0.0,0.0,0.0,0.0,0.0,0.0,0.0,0.0,0.0,0.0,0.0,0.0,0.0,0.0,0.0,0.0,0.0,0.0,0.0,0.0,0.0,0.0,0.0,0.0,0.0,0.0,0.0,0.0,0.0,0.0,0.0,0.0,0.0,0.0,0.0,0.0,0.0,0.0,0.0,0.0,0.0,0.0,0.0,0.0,0.0,0.0,0.0,0.0,0.0,0.0,0.0,0.0,0.0,0.0,0.0,0.0,0.0,0.0,0.0,0.0,0.0,0.0,0.0,0.0,0.0,0.0,0.0,0.0,0.0,0.0,0.0,0.0,0.0,0.0,0.0,0.0,0.0,0.0,0.0,0.0,0.0,0.0,0.0,0.0,0.0,0.0,0.0,0.0,0.0,0.0,0.0,0.0,0.0,0.0,0.0,0.0,0.0,0.0,0.0,0.0,0.0,0.0,0.0,0.0,0.0,0.0,0.0,0.0,0.0,0.0,0.0,0.0,0.0,0.0,0.0,0.0,0.0,0.0,0.0,0.0,0.0,0.0,0.0,0.0,0.0,0.0,0.0,0.0,0.0,0.0,0.0,0.0,0.0,0.0,0.0,0.0,0.0,0.0,0.0,0.0,0.0,0.0,0.0,0.0,0.0,0.0,0.0,0.0,0.0,0.0,0.0,0.0,0.0,0.0,0.0,0.0,0.0,0.0,0.0,0.0,0.0,0.0,0.0,0.0,0.0,0.0,0.0,0.0,0.0,0.0,0.0,0.0,0.0,0.0,0.0,0.0,0.0,0.0,0.0,0.0,0.0,0.0,0.0,0.0,0.0,0.0,0.0,0.0,0.0,0.0,0.0,0.0,0.0,0.0,0.0,0.0,0.0,0.0,0.0,0.0,0.0,0.0,0.0,0.0,0.0,0.0,0.0,0.0,0.0,0.0,0.0,0.0,0.0,0.0,0.0,0.0,0.0,0.0,0.0,0.0,0.0,0.0,0.0,0.0,0.0,0.0,0.0,0.0,0.0,0.0,0.0,0.0,0.0,0.0,0.0,0.0,0.0,0.0,0.0,0.0,0.0,0.0,0.0,0.0,0.0,0.0,0.0,0.0,0.0,0.0,0.0,0.0,0.0,0.0,0.0,0.0,0.0,0.0,0.0,0.0,0.0,0.0,0.0,0.0,0.0,0.0,0.0,0.0,0.0,0.0,0.0,0.0,0.0,0.0,0.0,0.0,0.0,0.0,0.0,0.0,0.0,0.0,0.0,0.0,0.0,0.0,0.0,0.0,0.0,0.0,0.0,0.0,0.0,0.0,0.0,0.0,0.0,0.0,0.0,0.0,0.0,0.0,0.0,0.0,0.0,0.0,0.0,0.0,0.0,0.0,0.0,0.0,0.0,0.0,0.0,0.0,0.0,0.0,0.0,0.0,0.0,0.0,0.0,0.0,0.0,0.0,0.0,0.0,0.0,0.0,0.0,0.0,0.0,0.0,0.0,0.0,0.0,0.0,0.0,0.0,0.0,0.0,0.0,0.0,0.0,0.0,0.0,0.0,0.0,0.0,0.0,0.0,0.0,0.0,0.0,0.0,0.0,0.0,0.0,0.0,0.0,0.0,0.0,0.0,0.0,0.0,0.0,0.0,0.0,0.0,0.0,0.0,0.0,0.0,0.0,0.0,0.0,0.0,0.0,0.0,0.0,0.0,0.0,0.0,0.0,0.0,0.0,0.0,0.0,0.0,0.0,0.0,0.0,0.0,0.0,0.0,0.0,0.0,0.0,0.0,0.0,0.0,0.0,0.0,0.0,0.0,0.0,0.0,0.0,0.0,0.0,0.0,0.0,0.0,0.0,0.0,0.0,0.0,0.0,0.0,0.0,0.0,0.0,0.0,0.0,0.0,0.0,0.0,0.0,0.0,0.0,0.0,0.0,0.0,0.0,0.0,0.0,0.0,0.0,0.0,0.0,0.0,0.0,0.0,0.0,0.0,0.0,0.0,0.0,0.0,0.0,0.0,0.0,0.0,0.0,0.0,0.0,0.0,0.0,0.0,0.0,0.0,0.0,0.0,0.0,0.0,0.0,0.0,0.0,0.0,0.0,0.0,0.0,0.0,0.0,0.0,0.0,0.0,0.0,0.0,0.0,0.0,0.0,0.0,0.0,0.0,0.0,0.0,0.0,0.0,0.0,0.0,0.0,0.0,0.0,0.0,0.0,0.0,0.0,0.0,0.0,0.0,0.0,0.0,0.0,0.0,0.0,0.0,0.0,0.0,0.0,0.0,0.0,0.0,0.0,0.0,0.0,0.0,0.0,0.0,0.0,0.0,0.0,0.0,0.0,0.0,0.0,0.0,0.0,0.0,0.0,0.0,0.0,0.0,0.0,0.0,0.0,0.0,0.0,0.0,0.0,0.0,0.0,0.0,0.0,0.0,0.0,0.0,0.0,0.0,0.0,0.0,0.0,0.0,0.0,0.0,0.0,0.0,0.0,0.0,0.0,0.0,0.0,0.0,0.0,0.0,0.0,0.0,0.0,0.0,0.0,0.0,0.0,0.0,0.0,0.0,0.0,0.0,0.0,0.0,0.0,0.0,0.0,0.0,0.0,0.0,0.0,0.0,0.0,0.0,0.0,0.7187,0.0,0.0,0.0,0.0,0.0,0.0,0.0,0.0,0.0,0.0,0.0,0.0,0.0,0.0,0.0,0.0,0.0,0.0,0.0,0.0,0.0,0.0,0.0,0.0,0.0,0.0,0.0,0.0,0.0,0.0,0.0,0.0,0.0,0.0,0.0,0.0,0.0,0.0,0.0,0.0,0.0,0.0,0.0,0.0,0.0,0.0,0.0,0.0,0.0,0.0,0.0,0.0,0.0,0.0,0.0,0.0,0.0,0.0,0.0,0.0,0.0,0.0,0.0,0.0,0.0,0.0,0.0,0.0,0.0,0.0,0.0,0.0,0.0,0.0,0.0,0.0,0.0,0.0,0.0,0.0,0.0,0.0,0.0,0.0,0.0,0.0,0.0,0.0,0.0,0.0,0.0,0.0,0.0,0.0,0.0,0.0,0.0,0.0,0.0,0.0,0.0,0.0,0.0,0.0,0.0,0.0,0.0,0.0,0.0,0.0,1.0032,0.918,0.8385,0.7815,0.733,0.0,0.0,0.0,0.0,0.0,0.0,0.0,0.0,0.0,0.0,0.0,0.0,0.0,0.0,0.0,0.0,0.0,0.0,0.0,0.0,0.0,0.0,0.0,0.0,0.0,0.0,0.0,0.0,0.0,0.0,0.0,0.0,0.0,0.0,0.0,0.0,0.0,0.0,0.0,0.0,0.0,0.0,0.0,0.0,0.0,0.0,0.0,0.0,0.0,0.0,0.0,0.0,0.0,0.0,0.0,0.0,0.0,0.0,0.0,0.0,0.0,0.0,0.0,0.0,0.0,0.0,0.0,0.0,0.0,0.0,0.0,0.0,0.0,0.0,0.0,0.0,0.0,0.0,0.0,0.0,0.0,0.0,0.0,0.0,0.0,0.0,0.0,0.0,0.0,0.0,0.0,0.0,0.0,0.0,0.0,0.0,0.0,0.0,0.0,0.0,0.0,0.0,0.0,0.0,0.0,0.0,0.0,0.0,0.0,0.0,0.0,0.0,0.8688,0.7982,0.7558,0.0,0.0,0.0,0.0,0.0,0.0,0.0,0.0,0.0,0.0,0.0,0.0,0.0,0.0,0.0,0.0,0.0,0.0,0.0,0.0,0.0,0.0,0.0,0.0,0.0,0.0,0.0,0.0,0.0,0.0,0.0,0.0,0.0,0.0,0.0,0.0,0.0,0.0,0.0,0.0,0.0,0.0,0.0,0.0,0.0,0.0,0.0,0.0,0.0,0.0,0.0,0.0,0.0,0.0,0.0,0.0,0.0,0.0,0.0,0.0,0.0,0.0,0.0,0.0,0.0,0.0,0.0,0.0,0.0,0.0,0.0,0.0,0.0,0.0,0.0,0.0,0.0,0.0,0.0,0.0,0.0,0.0,0.0,0.0,0.0,0.0,0.0,0.0,0.0,0.0,0.0,0.0,0.0,0.0,0.0,0.0,0.0,0.0,0.0,0.0,0.0,0.0,0.0,0.0,0.0,0.0,0.0,0.0,0.0,0.0,1.1182,0.9538,0.8824,0.0,0.7561,0.0,0.0,0.0,0.0,0.0,0.0,0.0,0.0,0.0,0.0,0.0,0.0,0.0,0.0,0.0,0.0,0.0,0.0,0.0,0.0,0.0,0.0,0.0,0.0,0.0,0.0,0.0,0.0,0.0,0.0,0.0,0.0,0.0,0.0,0.0,0.0,0.0,0.0,0.0,0.0,0.0,0.0,0.0,0.0,0.0,0.0,0.0,0.0,0.0,0.0,0.0,0.0,0.0,0.0,0.0,0.0,0.0,0.0,0.0,0.0,0.0,0.0,0.0,0.0,0.0,0.0,0.0,0.0,0.0,0.0,0.0,0.0,0.0,0.0,0.0,0.0,0.0,0.0,0.0,0.0,0.0,0.0,0.0,0.0,0.0,0.0,0.0,0.0,0.0,0.0,0.0,0.0,0.0,0.0,0.0,0.0,0.0,0.0,0.0,0.0,0.0,0.0,0.0,0.0,0.0,0.0,0.0,0.0,0.0,0.0,1.1217,0.9944,0.8736,0.7929,0.0,0.0,0.0,0.0,0.0,0.0,0.0,0.0,0.0,0.0,0.0,0.0,0.0,0.0,0.0,0.0,0.0,0.0,0.0,0.0,0.0,0.0,0.0,0.0,0.0,0.0,0.0,0.0,0.0,0.0,0.0,0.0,0.0,0.0,0.0,0.0,0.0,0.0,0.0,0.0,0.0,0.0,0.0,0.0,0.0,0.0,0.0,0.0,0.0,0.0,0.0,0.0,0.0,0.0,0.0,0.0,0.0,0.0,0.0,0.0,0.0,0.0,0.0,0.0,0.0,0.0,0.0,0.0,0.0,0.0,0.0,0.0,0.0,0.0,0.0,0.0,0.0,0.0,0.0,0.0,0.0,0.0,0.0,0.0,0.0,0.0,0.0,0.0,0.0,0.0,0.0,0.0,0.0,0.0,0.0,0.0,0.0,0.0,0.0,0.0,0.0,0.0,0.0,0.0,0.0,0.0,0.0,0.0,0.0,0.0,1.2749,1.1408,0.9997,0.8616,0.7867,0.7678,0.0,0.0,0.0,0.0,0.0,0.0,0.0,0.0,0.0,0.0,0.0,0.0,0.0,0.0,0.0,0.0,0.0,0.0,0.0,0.0,0.0,0.0,0.0,0.0,0.0,0.0,0.0,0.0,0.0,0.0,0.0,0.0,0.0,0.0,0.0,0.0,0.0,0.0,0.0,0.0,0.0,0.0,0.0,0.0,0.0,0.0,0.0,0.0,0.0,0.0,0.0,0.0,0.0,0.0,0.0,0.0,0.0,0.0,0.0,0.0,0.0,0.0,0.0,0.0,0.0,0.0,0.0,0.0,0.0,0.0,0.0,0.0,0.0,0.0,0.0,0.0,0.0,0.0,0.0,0.0,0.0,0.0,0.0,0.0,0.0,0.0,0.0,0.0,0.0,0.0,0.0,0.0,0.0,0.0,0.0,0.0,0.0,0.0,0.0,0.0,0.0,0.0,0.0,0.0,0.0,0.0,0.0,0.0,1.4353,1.3435,1.1872,0.9536,0.8633,0.8045,0.0,0.0,0.0,0.0,0.0,0.0,0.0,0.0,0.0,0.0,0.0,0.0,0.0,0.0,0.0,0.0,0.0,0.0,0.0,0.0,0.0,0.0,0.0,0.0,0.0,0.0,0.0,0.0,0.0,0.0,0.0,0.0,0.0,0.0,0.0,0.0,0.0,0.0,0.0,0.0,0.0,0.0,0.0,0.0,0.0,0.0,0.0,0.0,0.0,0.0,0.0,0.0,0.0,0.0,0.0,0.0,0.0,0.0,0.0,0.0,0.0,0.0,0.0,0.0,0.0,0.0,0.0,0.0,0.0,0.0,0.0,0.0,0.0,0.0,0.0,0.0,0.0,0.0,0.0,0.0,0.0,0.0,0.0,0.0,0.0,0.0,0.0,0.0,0.0,0.0,0.0,0.0,0.0,0.0,0.0,0.0,0.0,0.0,0.0,0.0,0.0,0.0,0.0,0.0,0.0,0.0,0.0,0.0,0.0,1.4564,1.2794,1.1303,1.0152,0.9192,0.8593,0.0,0.0,0.0,0.0,0.0,0.0,0.0,0.0,0.0,0.0,0.0,0.0,0.0,0.0,0.0,0.0,0.0,0.0,0.0,0.0,0.0,0.0,0.0,0.0,0.0,0.0,0.0,0.0,0.0,0.0,0.0,0.0,0.0,0.0,0.0,0.0,0.0,0.0,0.0,0.0,0.0,0.0,0.0,0.0,0.0,0.0,0.0,0.0,0.0,0.0,0.0,0.0,0.0,0.0,0.0,0.0,0.0,0.0,0.0,0.0,0.0,0.0,0.0,0.0,0.0,0.0,0.0,0.0,0.0,0.0,0.0,0.0,0.0,0.0,0.0,0.0,0.0,0.0,0.0,0.0,0.0,0.0,0.0,0.0,0.0,0.0,0.0,0.0,0.0,0.0,0.0,0.0,0.0,0.0,0.0,0.0,0.0,0.0,0.0,0.0,0.0,0.0,0.0,0.0,0.0,0.0,0.0,0.0,0.0,1.4573,0.0,1.1458,1.074,0.9867,0.9267,0.0,0.0,0.0,0.0,0.0,0.0,0.0,0.0,0.0,0.0,0.0,0.0,0.0,0.0,0.0,0.0,0.0,0.0,0.0,0.0,0.0,0.0,0.0,0.0,0.0,0.0,0.0,0.0,0.0,0.0,0.0,0.0,0.0,0.0,0.0,0.0,0.0,0.0,0.0,0.0,0.0,0.0,0.0,0.0,0.0,0.0,0.0,0.0,0.0,0.0,0.0,0.0,0.0,0.0,0.0,0.0,0.0,0.0,0.0,0.0,0.0,0.0,0.0,0.0,0.0,0.0,0.0,0.0,0.0,0.0,0.0,0.0,0.0,0.0,0.0,0.0,0.0,0.0,0.0,0.0,0.0,0.0,0.0,0.0,0.0,0.0,0.0,0.0,0.0,0.0,0.0,0.0,0.0,0.0,0.0,0.0,0.0,0.0,0.0,0.0,0.0,0.0,0.0,0.0,0.0,0.0,0.0,0.0,1.5933,1.4361,1.3534,1.2501,1.1254,1.0635,1.0044,0.0,0.0,0.0,0.0,0.0,0.0,0.0,0.0,0.0,0.0,0.0,0.0,0.0,0.0,0.0,0.0,0.0,0.0,0.0,0.0,0.0,0.0,0.0,0.0,0.0,0.0,0.0,0.0,0.0,0.0,0.0,0.0,0.0,0.0,0.0,0.0,0.0,0.0,0.0,0.0,0.0,0.0,0.0,0.0,0.0,0.0,0.0,0.0,0.0,0.0,0.0,0.0,0.0,0.0,0.0,0.0,0.0,0.0,0.0,0.0,0.0,0.0,0.0,0.0,0.0,0.0,0.0,0.0,0.0,0.0,0.0,0.0,0.0,0.0,0.0,0.0,0.0,0.0,0.0,0.0,0.0,0.0,0.0,0.0,0.0,0.0,0.0,0.0,0.0,0.0,0.0,0.0,0.0,0.0,0.0,0.0,0.0,0.0,0.0,0.0,0.0,0.0,0.0,0.0,0.0,0.0,0.0,0.0,0.0,1.5457,1.4253,1.3399,1.2801,1.1726,1.1016,0.0,0.0,0.0,0.0,0.0,0.0,0.0,0.0,0.0,0.0,0.0,0.0,0.0,0.0,0.0,0.0,0.0,0.0,0.0,0.0,0.0,0.0,0.0,0.0,0.0,0.0,0.0,0.0,0.0,0.0,0.0,0.0,0.0,0.0,0.0,0.0,0.0,0.0,0.0,0.0,0.0,0.0,0.0,0.0,0.0,0.0,0.0,0.0,0.0,0.0,0.0,0.0,0.0,0.0,0.0,0.0,0.0,0.0,0.0,0.0,0.0,0.0,0.0,0.0,0.0,0.0,0.0,0.0,0.0,0.0,0.0,0.0,0.0,0.0,0.0,0.0,0.0,0.0,0.0,0.0,0.0,0.0,0.0,0.0,0.0,0.0,0.0,0.0,0.0,0.0,0.0,0.0,0.0,0.0,0.0,0.0,0.0,0.0,0.0,0.0,0.0,0.0,0.0,0.0,0.0,0.0,0.0,0.0,0.0,1.7556,1.6076,1.5023,1.4452,1.3492,1.2791,1.2205,0.0,0.0,0.0,0.0,0.0,0.0,0.0,0.0,0.0,0.0,0.0,0.0,0.0,0.0,0.0,0.0,0.0,0.0,0.0,0.0,0.0,0.0,0.0,0.0,0.0,0.0,0.0,0.0,0.0,0.0,0.0,0.0,0.0,0.0,0.0,0.0,0.0,0.0,0.0,0.0,0.0,0.0,0.0,0.0,0.0,0.0,0.0,0.0,0.0,0.0,0.0,0.0,0.0,0.0,0.0,0.0,0.0,0.0,0.0,0.0,0.0,0.0,0.0,0.0,0.0,0.0,0.0,0.0,0.0,0.0,0.0,0.0,0.0,0.0,0.0,0.0,0.0,0.0,0.0,0.0,0.0,0.0,0.0,0.0,0.0,0.0,0.0,0.0,0.0,0.0,0.0,0.0,0.0,0.0,0.0,0.0,0.0,0.0,0.0,0.0,0.0,0.0,0.0,0.0,0.0,0.0,0.0,0.0,2.0423,1.8781,1.7357,1.6192,1.5809,1.5106,0.0,0.0,0.0,0.0,0.0,0.0,0.0,0.0,0.0,0.0,0.0,0.0,0.0,0.0,0.0,0.0,0.0,0.0,0.0,0.0,0.0,0.0,0.0,0.0,0.0,0.0,0.0,0.0,0.0,0.0,0.0,0.0,0.0,0.0,0.0,0.0,0.0,0.0,0.0,0.0,0.0,0.0,0.0,0.0,0.0,0.0,0.0,0.0,0.0,0.0,0.0,0.0,0.0,0.0,0.0,0.0,0.0,0.0,0.0,0.0,0.0,0.0,0.0,0.0,0.0,0.0,0.0,0.0,0.0,0.0,0.0,0.0,0.0,0.0,0.0,0.0,0.0,0.0,0.0,0.0,0.0,0.0,0.0,0.0,0.0,0.0,0.0,0.0,0.0,0.0,0.0,0.0,0.0,0.0,0.0,0.0,0.0,0.0,0.0,0.0,0.0,0.0,0.0,0.0,0.0,0.0,0.0,0.0,0.0,2.1859,2.1046,1.9703,1.8013,1.7032,1.6218,0.0,0.0,0.0,0.0,0.0,0.0,0.0,0.0,0.0,0.0,0.0,0.0,0.0,0.0,0.0,0.0,0.0,0.0,0.0,0.0,0.0,0.0,0.0,0.0,0.0,0.0,0.0,0.0,0.0,0.0,0.0,0.0,0.0,0.0,0.0,0.0,0.0,0.0,0.0,0.0,0.0,0.0,0.0,0.0,0.0,0.0,0.0,0.0,0.0,0.0,0.0,0.0,0.0,0.0,0.0,0.0,0.0,0.0,0.0,0.0,0.0,0.0,0.0,0.0,0.0,0.0,0.0,0.0,0.0,0.0,0.0,0.0,0.0,0.0,0.0,0.0,0.0,0.0,0.0,0.0,0.0,0.0,0.0,0.0,0.0,0.0,0.0,0.0,0.0,0.0,0.0,0.0,0.0,0.0,0.0,0.0,0.0,0.0,0.0,0.0,0.0,0.0,0.0,0.0,0.0,0.0,0.0,0.0,2.3009,2.3318,2.3035,2.2261,2.0928,1.9297,1.8191,0.0,0.0,0.0,0.0,0.0,0.0,0.0,0.0,0.0,0.0,0.0,0.0,0.0,0.0,0.0,0.0,0.0,0.0,0.0,0.0,0.0,0.0,0.0,0.0,0.0,0.0,0.0,0.0,0.0,0.0,0.0,0.0,0.0,0.0,0.0,0.0,0.0,0.0,0.0,0.0,0.0,0.0,0.0,0.0,0.0,0.0,0.0,0.0,0.0,0.0,0.0,0.0,0.0,0.0,0.0,0.0,0.0,0.0,0.0,0.0,0.0,0.0,0.0,0.0,0.0,0.0,0.0,0.0,0.0,0.0,0.0,0.0,0.0,0.0,0.0,0.0,0.0,0.0,0.0,0.0,0.0,0.0,0.0,0.0,0.0,0.0,0.0,0.0,0.0,0.0,0.0,0.0,0.0,0.0,0.0,0.0,0.0,0.0,0.0,0.0,0.0,0.0,0.0,0.0,0.0,0.0,0.0,0.0,2.4429,2.4662,2.4654,2.448,2.408,2.2099,2.0531,0.0,0.0,0.0,0.0,0.0,0.0,0.0,0.0,0.0,0.0,0.0,0.0,0.0,0.0,0.0,0.0,0.0,0.0,0.0,0.0,0.0,0.0,0.0,0.0,0.0,0.0,0.0,0.0,0.0,0.0,0.0,0.0,0.0,0.0,0.0,0.0,0.0,0.0,0.0,0.0,0.0,0.0,0.0,0.0,0.0,0.0,0.0,0.0,0.0,0.0,0.0,0.0,0.0,0.0,0.0,0.0,0.0,0.0,0.0,0.0,0.0,0.0,0.0,0.0,0.0,0.0,0.0,0.0,0.0,0.0,0.0,0.0,0.0,0.0,0.0,0.0,0.0,0.0,0.0,0.0,0.0,0.0,0.0,0.0,0.0,0.0,0.0,0.0,0.0,0.0,0.0,0.0,0.0,0.0,0.0,0.0,0.0,0.0,0.0,0.0,0.0,0.0,0.0,0.0,0.0,0.0,0.0,0.0,2.522,2.5558,2.5419,2.5236,2.5103,2.3472,2.1986,0.0,0.0,0.0,0.0,0.0,0.0,0.0,0.0,0.0,0.0,0.0,0.0,0.0,0.0,0.0,0.0,0.0,0.0,0.0,0.0,0.0,0.0,0.0,0.0,0.0,0.0,0.0,0.0,0.0,0.0,0.0,0.0,0.0,0.0,0.0,0.0,0.0,0.0,0.0,0.0,0.0,0.0,0.0,0.0,0.0,0.0,0.0,0.0,1.5229,0.0,0.0,0.0,0.0,0.0,0.0,0.0,0.0,0.0,0.0,0.0,0.0,0.0,0.0,0.0,0.0,0.0,0.0,0.0,0.0,0.0,0.0,0.0,0.0,0.0,0.0,0.0,0.0,0.0,0.0,0.0,0.0,0.0,0.0,0.0,0.0,0.0,0.0,0.0,0.0,0.0,0.0,0.0,0.0,0.0,0.0,0.0,0.0,0.0,0.0,0.0,0.0,0.0,0.0,0.0,0.0,0.0,0.0,0.0,2.6415,2.6561,2.6787,2.6629,2.6099,2.5303,2.4036,0.0,0.0,0.0,0.0,0.0,0.0,0.0,0.0,0.0,0.0,0.0,0.0,0.0,0.0,0.0,0.0,0.0,0.0,0.0,0.0,0.0,0.0,0.0,0.0,0.0,0.0,0.0,0.0,0.0,0.0,0.0,0.0,0.0,0.0,0.0,0.0,0.0,0.0,0.0,0.0,0.0,0.0,0.0,0.0,0.0,0.0,0.0,0.0,0.0,0.0,0.0,0.0,0.0,0.0,0.0,0.0,0.0,0.0,0.0,0.0,0.0,0.0,0.0,0.0,0.0,0.0,0.0,0.0,0.0,0.0,0.0,0.0,0.0,0.0,0.0,0.0,0.0,0.0,0.0,0.0,0.0,0.0,0.0,0.0,0.0,0.0,0.0,0.0,0.0,0.0,0.0,0.0,0.0,0.0,0.0,0.0,0.0,0.0,0.0,0.0,0.0,0.0,0.0,0.0,0.0,0.0,0.0,2.7396,2.78,2.7555,2.8319,2.817,2.7115,2.7088,2.601,2.3725,0.0,0.0,0.0,0.0,0.0,0.0,0.0,0.0,0.0,0.0,0.0,0.0,0.0,0.0,0.0,0.0,0.0,0.0,0.0,0.0,0.0,0.0,0.0,0.0,0.0,0.0,0.0,0.0,0.0,0.0,0.0,0.0,0.0,0.0,0.0,0.0,0.0,0.0,2.2935,2.235,0.0,0.0,0.0,0.0,0.0,0.0,0.0,0.0,1.9045,0.0,0.0,0.0,0.0,0.0,0.0,0.0,0.0,0.0,0.0,0.0,0.0,0.0,0.0,0.0,0.0,0.0,0.0,0.0,0.0,0.0,0.0,0.0,0.0,0.0,0.0,0.0,0.0,0.0,0.0,0.0,0.0,0.0,0.0,0.0,0.0,0.0,0.0,0.0,0.0,0.0,0.0,0.0,0.0,0.0,0.0,0.0,0.0,0.0,0.0,0.0,0.0,0.0,0.0,0.0,0.0,2.75,2.8677,2.898,2.8437,2.9254,2.9117,2.8039,2.7992,2.7068,2.5131,0.0,0.0,0.0,0.0,0.0,0.0,0.0,0.0,0.0,0.0,0.0,0.0,0.0,0.0,0.0,0.0,0.0,0.0,0.0,0.0,0.0,0.0,0.0,0.0,0.0,0.0,0.0,0.0,0.0,0.0,0.0,0.0,0.0,0.0,0.0,0.0,0.0,0.0,0.0,2.388,2.3341,0.0,0.0,0.0,0.0,0.0,0.0,0.0,0.0,2.1219,0.0,0.0,0.0,0.0,0.0,0.0,0.0,0.0,0.0,0.0,0.0,0.0,0.0,0.0,0.0,0.0,0.0,0.0,0.0,0.0,0.0,0.0,0.0,0.0,0.0,0.0,0.0,0.0,0.0,0.0,0.0,0.0,0.0,0.0,0.0,0.0,0.0,0.0,0.0,0.0,0.0,0.0,0.0,0.0,0.0,0.0,0.0,0.0,0.0,0.0,0.0,0.0,0.0,0.0,0.0,2.898,2.9987,3.0272,2.9939,3.0518,3.0161,2.8719,2.8681,2.7776,0.0,0.0,0.0,0.0,0.0,0.0,0.0,0.0,0.0,0.0,0.0,0.0,0.0,0.0,0.0,0.0,0.0,0.0,0.0,0.0,0.0,0.0,0.0,0.0,0.0,0.0,0.0,0.0,0.0,0.0,0.0,0.0,0.0,0.0,0.0,0.0,0.0,0.0,0.0,0.0,2.5084,2.4621,2.4228,0.0,0.0,0.0,0.0,0.0,0.0,2.2877,2.2993,0.0,0.0,0.0,0.0,0.0,0.0,0.0,0.0,0.0,0.0,0.0,0.0,0.0,0.0,0.0,0.0,0.0,0.0,0.0,0.0,0.0,0.0,0.0,0.0,0.0,0.0,0.0,0.0,0.0,0.0,0.0,0.0,0.0,0.0,0.0,0.0,0.0,0.0,0.0,0.0,0.0,0.0,0.0,0.0,0.0,0.0,0.0,0.0,0.0,0.0,0.0,0.0,0.0,0.0,0.0,3.0407,3.1264,3.1591,3.1498,3.1946,3.1298,2.9553,2.9449,2.8488,0.0,0.0,0.0,0.0,0.0,0.0,0.0,0.0,0.0,0.0,0.0,0.0,0.0,0.0,0.0,0.0,0.0,0.0,0.0,0.0,0.0,0.0,0.0,0.0,0.0,0.0,0.0,0.0,0.0,0.0,0.0,0.0,0.0,0.0,0.0,0.0,0.0,0.0,0.0,0.0,0.0,2.5961,2.5709,2.5605,0.0,0.0,0.0,0.0,2.5004,2.4833,0.0,0.0,0.0,0.0,0.0,0.0,0.0,0.0,0.0,0.0,0.0,0.0,0.0,0.0,0.0,0.0,0.0,0.0,0.0,0.0,0.0,0.0,0.0,0.0,0.0,0.0,0.0,0.0,0.0,0.0,0.0,0.0,0.0,0.0,0.0,0.0,0.0,0.0,0.0,0.0,0.0,0.0,0.0,0.0,0.0,0.0,0.0,0.0,0.0,0.0,0.0,0.0,0.0,0.0,0.0,0.0,3.1506,3.2433,3.2803,3.2704,3.317,3.2521,3.0756,3.067,2.9615,0.0,0.0,0.0,0.0,0.0,0.0,0.0,0.0,0.0,0.0,0.0,0.0,0.0,0.0,0.0,0.0,0.0,0.0,0.0,0.0,0.0,0.0,0.0,0.0,0.0,0.0,0.0,0.0,0.0,0.0,0.0,0.0,0.0,0.0,0.0,0.0,0.0,0.0,0.0,0.0,0.0,2.7637,2.7868,2.7583,2.7288,0.0,0.0,2.6471,2.6471,2.6107,0.0,0.0,0.0,0.0,0.0,0.0,0.0,0.0,0.0,0.0,0.0,0.0,0.0,0.0,0.0,0.0,0.0,0.0,0.0,0.0,0.0,0.0,0.0,0.0,0.0,0.0,0.0,0.0,0.0,0.0,0.0,0.0,0.0,0.0,0.0,0.0,0.0,0.0,0.0,0.0,0.0,0.0,0.0,0.0,0.0,0.0,0.0,0.0,0.0,0.0,0.0,0.0,0.0,0.0,0.0,3.1299,3.3154,3.3763,3.4162,3.4296,3.4537,3.382,3.212,3.1793,3.0638,0.0,0.0,0.0,0.0,0.0,0.0,0.0,0.0,0.0,0.0,0.0,0.0,0.0,0.0,0.0,0.0,0.0,0.0,0.0,0.0,0.0,0.0,0.0,0.0,0.0,0.0,0.0,0.0,0.0,0.0,0.0,0.0,0.0,0.0,0.0,0.0,0.0,0.0,0.0,0.0,0.0,0.0,2.9232,2.9341,0.0,0.0,0.0,2.8935,2.8796,0.0,0.0,0.0,0.0,0.0,0.0,0.0,0.0,0.0,0.0,0.0,0.0,0.0,0.0,0.0,0.0,0.0,0.0,0.0,0.0,0.0,0.0,0.0,0.0,0.0,0.0,0.0,0.0,0.0,0.0,0.0,0.0,0.0,0.0,0.0,0.0,0.0,0.0,0.0,0.0,0.0,0.0,0.0,0.0,0.0,0.0,0.0,0.0,0.0,0.0,0.0,0.0,0.0,0.0,0.0,0.0,0.0,3.4718,3.5065,3.5391,3.5815,3.5806,3.5077,3.3562,3.2933,0.0,0.0,0.0,0.0,0.0,0.0,0.0,0.0,0.0,0.0,0.0,0.0,0.0,0.0,0.0,0.0,0.0,0.0,0.0,0.0,0.0,0.0,0.0,0.0,0.0,0.0,0.0,2.4829,0.0,0.0,0.0,0.0,0.0,0.0,0.0,0.0,0.0,0.0,0.0,0.0,0.0,0.0,2.9942,3.042,3.0769,3.0905,0.0,0.0,3.0905,3.0766,2.9766,2.9066,0.0,0.0,0.0,0.0,0.0,0.0,0.0,0.0,0.0,0.0,0.0,0.0,0.0,0.0,0.0,0.0,0.0,0.0,0.0,0.0,0.0,0.0,0.0,0.0,0.0,0.0,0.0,0.0,0.0,0.0,0.0,0.0,0.0,0.0,0.0,0.0,0.0,0.0,0.0,0.0,0.0,0.0,0.0,0.0,0.0,0.0,0.0,0.0,0.0,0.0,0.0,0.0,0.0,0.0,3.3313,3.5804,3.6134,3.6502,3.6977,3.697,3.6337,3.5004,3.421,3.2997,0.0,0.0,0.0,0.0,0.0,0.0,0.0,0.0,0.0,0.0,0.0,0.0,0.0,0.0,0.0,0.0,0.0,0.0,0.0,0.0,0.0,0.0,0.0,0.0,0.0,0.0,0.0,0.0,0.0,0.0,0.0,0.0,0.0,0.0,0.0,0.0,0.0,0.0,0.0,0.0,0.0,3.1045,3.1781,3.1815,3.1736,0.0,3.1711,3.1747,3.1541,3.0732,3.0161,3.0442,0.0,0.0,0.0,0.0,0.0,0.0,0.0,0.0,0.0,0.0,0.0,0.0,0.0,0.0,0.0,0.0,0.0,0.0,0.0,0.0,0.0,0.0,0.0,0.0,0.0,0.0,0.0,0.0,0.0,0.0,0.0,0.0,0.0,0.0,0.0,0.0,0.0,0.0,0.0,0.0,0.0,0.0,0.0,0.0,0.0,0.0,0.0,0.0,0.0,0.0,0.0,0.0,0.0,3.423,3.6675,3.6857,3.7224,3.7885,3.788,3.7506,3.6577,3.5834,3.474,0.0,0.0,0.0,0.0,0.0,0.0,0.0,0.0,0.0,0.0,0.0,0.0,0.0,0.0,0.0,0.0,0.0,0.0,0.0,0.0,0.0,0.0,0.0,0.0,0.0,0.0,0.0,0.0,2.7636,2.8007,2.8287,0.0,0.0,0.0,0.0,0.0,0.0,0.0,0.0,0.0,0.0,3.2101,3.2864,3.2948,0.0,0.0,3.2652,3.2694,3.2634,3.1625,3.1024,3.1445,3.0034,0.0,0.0,0.0,0.0,0.0,0.0,0.0,0.0,0.0,0.0,0.0,0.0,0.0,0.0,0.0,0.0,0.0,0.0,0.0,0.0,0.0,0.0,0.0,0.0,0.0,0.0,0.0,0.0,0.0,0.0,0.0,0.0,0.0,0.0,0.0,0.0,0.0,0.0,0.0,0.0,0.0,0.0,0.0,0.0,0.0,0.0,0.0,0.0,0.0,0.0,0.0,0.0,3.5322,3.7556,3.7842,3.8263,3.8908,3.8933,3.8659,3.8149,3.7352,3.6327,0.0,0.0,0.0,0.0,0.0,0.0,0.0,0.0,0.0,0.0,0.0,0.0,0.0,0.0,0.0,0.0,0.0,0.0,0.0,0.0,0.0,0.0,0.0,0.0,0.0,0.0,0.0,0.0,2.8407,2.8673,2.9015,0.0,0.0,0.0,0.0,0.0,0.0,0.0,0.0,0.0,0.0,3.3375,3.412,3.4051,3.3871,3.3638,3.3582,3.3532,3.3392,3.2462,3.1875,3.2137,0.0,0.0,0.0,0.0,0.0,0.0,0.0,0.0,0.0,0.0,0.0,0.0,0.0,0.0,0.0,0.0,0.0,0.0,0.0,0.0,0.0,0.0,0.0,0.0,0.0,0.0,0.0,0.0,0.0,0.0,3.0426,0.0,0.0,0.0,0.0,0.0,0.0,0.0,0.0,0.0,0.0,0.0,0.0,0.0,0.0,0.0,0.0,0.0,0.0,0.0,0.0,0.0,0.0,3.6474,3.8347,3.9153,3.9751,4.007,4.007,3.9942,3.9645,3.8646,3.7576,3.6493,0.0,0.0,0.0,0.0,0.0,0.0,0.0,0.0,0.0,0.0,0.0,0.0,0.0,0.0,0.0,0.0,0.0,0.0,0.0,0.0,0.0,0.0,0.0,0.0,0.0,0.0,2.8791,2.9145,2.9445,0.0,0.0,0.0,0.0,0.0,0.0,0.0,0.0,0.0,0.0,3.4392,3.4944,3.5485,3.5035,3.4631,3.4406,3.4375,3.4202,3.3718,3.3209,3.2779,0.0,0.0,0.0,0.0,0.0,0.0,0.0,0.0,0.0,0.0,0.0,0.0,0.0,0.0,0.0,0.0,0.0,0.0,0.0,0.0,0.0,0.0,0.0,0.0,0.0,0.0,0.0,3.1228,3.1501,0.0,0.0,0.0,0.0,0.0,0.0,0.0,0.0,0.0,0.0,0.0,3.889,3.893,0.0,0.0,0.0,0.0,0.0,0.0,0.0,0.0,0.0,0.0,0.0,0.0,3.6709,3.8577,3.9376,4.0119,4.0913,4.0939,4.09,4.0848,4.0244,3.9019,3.7055,0.0,0.0,0.0,0.0,0.0,0.0,0.0,0.0,0.0,0.0,0.0,0.0,0.0,0.0,0.0,0.0,0.0,0.0,0.0,0.0,0.0,0.0,0.0,0.0,0.0,2.9523,0.0,0.0,0.0,0.0,0.0,0.0,0.0,0.0,0.0,0.0,0.0,3.3824,3.5025,3.5551,3.5995,3.6552,3.6007,3.5526,0.0,0.0,0.0,0.0,0.0,0.0,0.0,0.0,0.0,0.0,0.0,0.0,0.0,0.0,2.8399,2.7813,2.7453,2.7192,2.7138,0.0,0.0,0.0,0.0,0.0,0.0,0.0,0.0,0.0,0.0,0.0,0.0,0.0,0.0,3.3305,0.0,3.3308,0.0,0.0,0.0,0.0,0.0,0.0,0.0,0.0,3.9536,4.03,4.0877,4.0872,4.0813,0.0,4.0282,3.8997,0.0,0.0,0.0,0.0,0.0,0.0,0.0,0.0,3.7865,3.9482,4.0398,4.1214,4.1917,4.2151,4.2255,4.2242,4.1595,4.0298,3.8401,3.7134,3.5726,0.0,0.0,0.0,0.0,0.0,0.0,0.0,0.0,0.0,0.0,0.0,0.0,0.0,0.0,0.0,0.0,0.0,0.0,0.0,0.0,0.0,0.0,0.0,3.0739,0.0,0.0,0.0,0.0,0.0,0.0,0.0,0.0,0.0,3.2725,3.3862,3.5008,3.5992,3.661,3.7111,3.7428,0.0,0.0,0.0,0.0,0.0,0.0,0.0,3.513,3.558,3.5041,3.4526,3.4323,3.3162,3.2331,3.2593,0.0,0.0,2.9259,2.8653,2.8302,2.8247,2.816,2.8084,2.8084,2.7826,2.7461,0.0,0.0,0.0,0.0,0.0,0.0,0.0,0.0,3.6044,3.6249,0.0,3.6223,0.0,0.0,0.0,0.0,0.0,3.8648,0.0,0.0,4.1321,4.1979,4.2076,4.2643,4.2616,4.2104,4.2657,4.2588,4.1777,3.857,0.0,0.0,0.0,0.0,0.0,0.0,3.9759,4.0909,4.2259,4.2998,4.3051,4.3635,4.3928,4.3875,4.2581,4.141,4.0484,3.8437,3.7286,3.715,3.4622,0.0,0.0,0.0,0.0,0.0,0.0,0.0,0.0,0.0,0.0,0.0,0.0,0.0,0.0,0.0,0.0,0.0,0.0,0.0,0.0,3.2562,0.0,0.0,0.0,0.0,0.0,0.0,0.0,0.0,0.0,0.0,3.3457,3.4763,3.6008,3.6751,0.0,0.0,0.0,0.0,3.7474,3.752,3.7289,3.6983,3.6495,3.6379,3.6219,3.5939,0.0,0.0,3.5133,3.4178,3.3368,3.3167,3.2717,3.1962,3.0573,2.9572,2.887,2.8564,2.8447,2.8227,2.8184,2.8294,2.8095,3.8915,0.0,0.0,0.0,0.0,3.6513,3.6976,3.7607,3.7782,3.832,3.9047,3.8226,0.0,0.0,0.0,0.0,0.0,0.0,4.1369,4.2429,4.3215,4.4001,4.4925,4.5062,4.5322,4.5638,4.5761,4.5473,4.4635,4.316,4.1339,3.9125,0.0,0.0,0.0,0.0,4.0911,4.1692,4.2927,4.3773,4.4128,4.4773,4.483,4.4221,4.3369,4.2351,4.1059,3.9989,3.8964,3.7998,3.6031,0.0,0.0,0.0,0.0,0.0,0.0,0.0,0.0,0.0,0.0,0.0,0.0,0.0,0.0,0.0,0.0,0.0,0.0,0.0,3.396,3.3974,3.3816,0.0,0.0,0.0,0.0,0.0,0.0,0.0,0.0,0.0,3.5126,3.6198,3.7044,0.0,0.0,3.7993,3.7534,3.7577,3.7664,3.7651,3.7949,0.0,0.0,3.7561,3.7421,3.773,3.7426,3.6981,3.6356,3.5434,3.4614,3.4111,3.3398,3.2747,3.234,3.1356,3.0546,3.0293,3.0215,3.007,2.9913,2.9604,2.9219,4.1948,4.0465,3.9346,3.8969,3.9057,3.9057,3.9349,3.9837,3.9837,4.0247,4.0863,4.0165,4.0073,4.0422,3.9897,0.0,0.0,0.0,4.2963,4.3789,4.4587,4.5367,4.6095,4.6367,4.6714,4.7071,4.7086,4.6838,4.6325,4.5926,4.4832,4.3138,0.0,0.0,4.1384,4.1896,4.2465,4.3033,4.4223,4.5002,4.5294,4.5946,4.5827,4.4792,4.4425,4.3565,4.2214,4.1477,4.0676,3.9615,3.8037,3.6609,0.0,0.0,0.0,0.0,0.0,0.0,0.0,0.0,0.0,0.0,0.0,3.1596,3.254,0.0,0.0,0.0,3.5027,3.5302,3.5087,3.5297,0.0,0.0,0.0,0.0,0.0,0.0,0.0,3.575,3.6005,3.6338,3.6701,3.7285,3.7607,3.7441,3.7748,3.7835,3.7483,0.0,3.7638,3.7595,3.8134,3.8479,3.8434,3.8256,3.8216,3.8363,3.7882,3.7294,3.6692,3.5852,3.5068,3.4489,3.3979,3.3484,3.3167,3.2506,3.1837,3.1362,3.1196,3.105,3.0814,3.0479,3.0136,4.4267,4.4165,4.2754,4.2098,4.2042,4.2028,4.2042,4.2098,4.2098,4.208,4.2167,4.2126,4.2147,4.2303,4.2808,0.0,4.3043,4.3892,4.4312,4.4355,4.557,4.6185,4.6256,4.6919,4.7282,4.7339,4.7277,4.7277,4.7291,4.7267,4.7253,4.7134,4.4114,4.2876,4.3389,4.3787,4.4262,4.483,4.5932,4.6569,4.6625,4.7165,4.6809,4.5619,4.5591,4.4996,4.3703,4.2865,4.2148,4.1558,4.0216,3.8624,3.6879,0.0,0.0,0.0,0.0,0.0,0.0,0.0,0.0,0.0,0.0,0.0,0.0,0.0,0.0,0.0,3.6382,0.0,3.6093,3.6558,0.0,0.0,0.0,3.6042,3.5985,3.5991,3.6235,3.6771,0.0,0.0,3.8051,3.7969,3.7718,3.7341,3.7552,3.7729,3.7687,3.7519,3.746,3.7418,3.7933,3.8255,3.8108,3.8401,3.8509,3.8105,3.7593,3.7055,3.6463,3.5799,3.5068,3.4618,3.4439,3.4147,3.3326,3.3197,3.2853,3.1969,3.156,3.1306,3.1095,3.1038,3.0824,4.491,4.4835,4.451,4.3823,4.2958,4.2958,4.3227,4.3638,4.3667,4.3922,4.4333,4.3851,4.3442,4.3046,4.3619,4.3877,4.3951,4.4805,4.5183,4.524,4.6186,4.69,4.7406,4.8027,4.861,4.9059,4.9088,4.9088,4.9073,4.8548,4.8316,4.8259,4.6874,4.6134,4.6177,4.6225,4.6367,4.6523,4.7226,4.7865,4.8254,4.8424,4.785,4.6349,4.632,4.5647,4.4251,4.31,4.2426,4.223,4.0609,3.9285,3.8309,3.7151,0.0,0.0,0.0,0.0,0.0,0.0,0.0,0.0,0.0,3.4725,3.5741,0.0,3.715,0.0,3.7901,3.8245,3.8135,3.8201,0.0,0.0,3.7791,3.7908,3.7455,3.7675,3.7899,3.8044,3.7826,3.7701,3.7926,3.7646,3.7413,3.731,3.7351,3.7262,3.6821,3.6921,3.7071,3.7084,3.7422,3.7702,3.7687,3.7711,3.7806,3.7687,3.7495,3.724,3.6617,3.6248,3.5841,3.5261,3.4729,3.4369,3.4105,3.381,3.3386,3.2853,3.2288,3.1761,3.1572,3.1362,3.1083,4.5458,4.5458,4.5458,4.5055,4.4408,4.423,4.4281,4.4595,4.4595,4.481,4.5095,4.4903,4.4604,4.4317,4.4723,4.4985,4.5,4.5436,4.57,4.5743,4.6792,4.7448,4.7825,4.8725,4.9335,4.9717,4.9732,4.9732,4.9654,4.932,4.9146,4.9132,4.8639,4.837,4.824,4.774,4.75,4.75,4.8115,4.8552,4.8881,4.8895,4.8246,4.6846,4.6789,4.622,4.4951,4.3925,4.3316,4.3122,4.1896,4.0811,3.9869,3.8928,3.8039,0.0,0.0,0.0,0.0,0.0,0.0,0.0,0.0,0.0,0.0,0.0,3.8914,3.9394,3.9572,3.9742,3.9831,3.949,3.9092,3.8767,3.8767,3.8649,3.8325,3.8517,3.8612,3.8649,3.8366,3.8142,3.8028,3.7763,3.7548,3.7457,3.738,3.7123,3.666,3.6601,3.6673,3.6686,3.7113,3.7481,3.7587,3.7641,3.7504,3.7175,3.7079,3.6875,3.632,3.613,3.5899,3.5466,3.51,3.4729,3.4439,3.4189,3.3894,3.3441,3.2884,3.2419,3.2069,3.1805,3.1484,4.588,4.588,4.588,4.588,4.585,4.5398,4.5216,4.5216,4.5216,4.5216,4.523,4.5458,4.5549,4.5564,4.579,4.588,4.588,4.588,4.5924,4.6069,4.723,4.7825,4.7956,4.9132,4.9732,4.9732,4.9732,4.9732,4.9732,4.9732,4.9781,4.9781,4.9781,4.9781,4.9752,4.8807,4.8276,4.8241,4.8722,4.8994,4.8994,4.8994,4.8379,4.721,4.7138,4.6649,4.5582,4.4859,4.4312,4.3891,4.3309,4.2434,4.1241,4.0673,3.9843,0.0,3.8098,0.0,0.0,0.0,0.0,0.0,0.0,0.0,0.0,3.9839,4.0591,4.1339,4.108,4.0965,4.1118,4.0446,3.9993,3.9978,3.9476,3.9077,3.904,3.8988,3.8907,3.887,3.8664,3.8478,3.824,3.8066,3.7853,3.7663,3.7485,3.7243,3.6864,3.6617,3.6486,3.6445,3.6833,3.7208,3.7469,3.7537,3.7317,3.6715,3.6579,3.6348,3.5872,3.575,3.5656,3.548,3.5399,3.5182,3.4647,3.4522,3.4314,3.3894,3.3526,3.3111,3.2605,3.2257,3.1981,4.588,4.588,4.588,4.588,4.588,4.579,4.5745,4.5745,4.573,4.5745,4.5745,4.579,4.5835,4.5835,4.588,4.588,4.588,4.588,4.6171,4.6664,4.7433,4.8058,4.858,4.932,4.9732,4.9732,4.9732,4.9732,4.9732,4.9926,5.0038,5.0038,5.0231,5.0357,5.0357,0.0,0.0,0.0,4.9479,4.9522,4.9522,4.9585,4.9011,4.7951,4.7879,0.0,4.5683,4.495,4.4319,4.373,4.311,0.0,0.0,0.0,0.0,0.0,0.0,0.0,0.0,0.0,0.0,0.0,4.0816,4.0861,4.0694,4.0979,4.125,4.1369,4.1346,4.1308,4.1346,4.1204,4.1114,4.1114,4.0957,4.0688,4.0181,3.9966,3.9661,3.9127,3.887,3.8649,3.8464,3.8254,3.8066,3.7877,3.7663,3.7548,3.7433,3.6982,3.6682,3.6656,3.6649,3.6612,3.6629,3.6697,3.6725,3.6451,3.629,3.6155,3.6059,3.5844,3.571,3.5629,3.5521,3.5399,3.5182,3.5072,3.4825,3.4343,3.4189,3.3894,3.3154,3.2649,3.2225,4.588,0.0,4.588,4.588,0.0,4.588,4.588,4.588,4.588,4.588,4.588,4.588,4.588,4.588,4.588,4.588,4.588,4.588,4.6229,4.6807,4.7491,4.821,4.8931,4.9572,4.9975,5.0101,5.0086,5.0086,5.0086,5.0246,5.0294,5.0294,5.0467,5.0501,5.0501,5.0501,5.0294,4.9878,5.0038,5.0038,4.9941,5.0038,4.952,4.8385,0.0,0.0,0.0,0.0,0.0,0.0,0.0,0.0,0.0,0.0,0.0,4.1908,4.1901,4.1767,4.1414,4.1498,4.1701,4.2001,4.2508,4.2591,4.2099,4.2446,4.2704,4.2689,4.2665,4.2665,4.2704,4.2303,4.2031,4.2031,4.1655,4.113,4.0531,4.0308,3.9965,3.9362,3.9053,3.8922,3.8811,3.8516,3.8329,3.8179,3.7915,3.7739,3.7701,3.7317,3.6968,3.6864,3.6772,3.6668,3.6549,3.6563,3.651,3.6391,3.6312,3.6232,3.6246,3.6072,3.5898,3.5898,3.5723,3.5521,3.5413,3.5318,3.5154,3.4825,3.4564,3.4327,3.3781,3.3197,3.2636,4.588,4.5895,4.5835,4.5835,4.5835,4.5835,4.5835,4.588,0.0,0.0,0.0,4.588,4.588,4.5895,4.5996,4.6055,4.6055,4.6171,4.6563,4.7126,4.7695,4.8417,4.9282,4.9823,5.0231,5.0501,5.0501,5.0501,5.0501,5.0534,5.0534,5.0581,5.0581,5.0629,5.0629,5.0644,5.0471,5.0231,5.039,5.039,5.0183,5.039,4.9867,4.8601,4.8571,4.8043,4.6885,4.6377,4.5881,4.5458,4.5051,4.4619,4.4146,4.4152,4.3927,4.3396,4.3229,4.2963,4.2394,4.2348,4.2614,4.3198,4.3746,4.3799,4.3198,4.3669,4.4003,4.4003,4.4003,4.3988,4.3988,4.3348,4.2938,4.2938,4.2249,4.1565,4.095,4.0621,4.0367,3.9687,3.9339,3.9126,3.9068,3.8811,3.8553,3.8493,3.8231,3.7967,3.7853,3.7534,3.724,3.7056,3.6993,3.6915,3.6825,3.6747,3.6668,3.6536,3.647,3.6445,3.6445,3.6286,3.6166,3.6086,3.5898,3.5737,3.5521,3.548,3.5399,3.5195,3.4825,3.4494,3.4356,3.3823,3.3197,4.588,4.588,4.5654,4.5549,4.5549,4.5564,4.5685,4.588,4.588,4.588,4.588,4.588,4.588,4.5909,4.6446,4.6708,4.6737,4.7259,4.7854,4.8402,4.8551,4.9087,4.994,5.0042,5.0246,5.0501,5.0501,5.0501,5.0548,5.0695,5.076,5.0775,5.0979,5.1073,5.1073,5.112,5.0979,5.0713,5.0567,5.0501,5.0453,5.0501,4.9961,4.8904,4.8861,4.8134,4.6683,4.6575,4.6312,4.5925,4.5844,4.5738,4.5647,4.5141,4.4792,4.4671,4.417,4.379,4.3699,4.3699,4.3822,4.409,4.4197,4.4135,4.389,4.3966,4.4003,4.4003,4.4026,4.4003,4.3988,4.3881,4.3767,4.3782,4.3566,4.3109,4.2386,4.1648,4.0988,4.0292,3.9717,3.9301,3.9141,3.9031,3.8848,3.859,3.8456,3.8306,3.7915,3.7534,3.7303,3.7226,3.7095,3.6993,3.6968,3.6954,3.6915,3.69,3.6786,3.6628,3.6668,3.647,3.6312,3.6152,3.6072,3.5938,3.5723,3.5683,3.5562,3.5399,3.5113,3.4867,3.4522,3.416,3.3751,4.588,4.588,4.5595,4.5504,4.5504,4.5504,4.5549,4.5685,4.5835,4.588,4.588,4.588,4.6069,4.6417,4.6693,4.7027,4.7361,4.7651,4.8116,4.8696,4.8725,4.9218,5.0042,5.0246,5.0423,5.0647,5.0805,5.0852,5.0899,5.0979,5.1011,5.1011,5.1167,5.1229,5.1229,5.1229,5.112,5.1026,5.0932,5.0805,5.0647,5.0805,5.0337,4.9178,4.9209,4.8595,4.7174,4.7283,4.7107,4.6538,4.6645,4.6559,4.6194,4.5953,4.5712,4.5345,4.5039,4.4702,4.4335,4.432,4.4358,4.4473,4.4473,4.4435,4.432,4.432,4.4305,4.432,4.432,4.432,4.432,4.4243,4.4166,4.4166,4.3988,4.3598,4.2909,4.2093,4.1302,4.0619,3.9886,3.9388,3.9265,3.9177,3.9068,3.8848,3.8679,3.8381,3.8104,3.7801,3.7572,3.7457,3.7317,3.7187,3.7134,3.7056,3.6978,3.6978,3.6915,3.685,3.685,3.6707,3.6524,3.6445,3.6272,3.6072,3.5938,3.5764,3.5683,3.5588,3.5399,3.5154,3.4825,3.4452,3.3865,4.588,4.588,4.5609,4.5504,4.5504,4.5504,4.5549,4.5595,4.5835,4.588,4.5895,4.6026,4.6374,4.6778,4.7114,4.7521,4.7956,4.8145,4.8464,4.8899,4.8943,4.9363,5.0042,5.0342,5.0567,5.0807,5.1011,5.1105,5.1214,5.1229,5.1229,5.1229,5.1229,5.1229,5.1229,5.1229,5.1229,5.1229,5.1229,5.112,5.0917,5.112,5.0601,4.9464,4.9524,4.9024,4.7858,4.7964,4.7787,4.7204,4.743,4.7283,4.6655,4.6754,4.6588,4.608,4.5741,4.5318,4.4702,4.461,4.461,4.461,4.461,4.461,4.461,4.461,4.461,4.461,4.4572,4.4572,4.4572,4.4473,4.4358,4.4358,4.4166,4.3868,4.332,4.241,4.1564,4.0954,4.0064,3.946,3.9373,3.9265,3.9156,3.9068,3.8738,3.8441,3.8277,3.8104,3.7929,3.7725,3.7534,3.7341,3.7303,3.7187,3.707,3.7017,3.6978,3.6993,3.6954,3.685,3.6747,3.6682,3.6431,3.6232,3.6112,3.5952,3.5804,3.5683,3.5521,3.5318,3.5003,3.4577,3.3992,4.588,4.588,4.5595,4.5504,4.5504,4.5504,4.564,4.5835,4.5895,4.588,4.5938,4.649,4.672,4.6937,4.7967,4.8522,4.8682,4.9233,4.9509,4.9553,4.9582,4.9786,5.0086,5.0149,5.0375,5.076,5.0807,5.0964,5.1167,5.1214,5.1229,5.1229,5.1229,5.1229,5.1229,5.1229,5.1229,5.1229,5.1229,5.1167,5.1167,5.1182,5.0678,4.9613,4.9613,4.9156,4.8236,4.8244,4.8064,4.7645,4.8132,4.8163,4.7548,4.7511,4.7481,4.7342,4.6265,4.5295,4.4702,4.461,4.461,4.461,4.461,4.461,4.461,4.461,4.461,4.461,4.461,4.461,4.461,4.4572,4.4534,4.4549,4.4396,4.4251,4.3983,4.2871,4.1879,4.167,4.048,3.9589,3.9424,3.9352,3.9265,3.9104,3.8775,3.8516,3.8441,3.8292,3.8142,3.8052,3.7825,3.7534,3.738,3.7303,3.7187,3.7017,3.6978,3.6978,3.6978,3.6978,3.6915,3.6772,3.6682,3.6484,3.6246,3.6046,3.5992,3.5764,3.5562,3.5277,3.4921,3.4577,3.4147,4.588,4.588,4.5609,4.5398,4.5307,4.5458,4.5549,4.5654,4.585,4.588,4.5967,4.6548,4.7042,4.7419,4.7941,4.8566,4.9291,4.9567,4.9732,4.9732,4.9732,4.9781,4.9892,5.0038,5.0231,5.0408,5.068,5.084,5.0964,5.112,5.1229,5.1229,5.1229,5.1229,5.1229,5.1229,5.1229,5.1229,5.1229,5.1229,5.1184,5.0825,5.0304,4.9688,4.9384,4.8951,4.8408,4.8412,4.8229,4.7681,4.7881,4.7896,4.7619,4.7619,4.7619,4.7542,4.6342,4.5464,4.5203,4.4841,4.461,4.461,4.461,4.461,4.461,4.461,4.461,4.461,4.461,4.461,4.461,4.461,4.461,4.4572,4.4496,4.4473,4.4442,4.3441,4.2567,4.194,4.093,4.0016,3.955,3.9388,3.9301,3.9104,3.8833,3.8649,3.8516,3.8329,3.824,3.8202,3.8066,3.7839,3.7534,3.738,3.7226,3.7056,3.6978,3.6978,3.6978,3.6978,3.694,3.6875,3.6786,3.6682,3.651,3.6246,3.6046,3.5858,3.5602,3.5318,3.5195,3.4867,3.4494,4.588,4.588,4.5685,4.5504,4.5353,4.5504,4.5595,4.5654,4.579,4.588,4.5938,4.6374,4.6925,4.7477,4.7695,4.8391,4.932,4.9422,4.9572,4.9703,4.9732,4.9732,4.9732,4.9878,5.0086,5.0202,5.0345,5.0478,5.0649,5.0805,5.1035,5.1184,5.1229,5.1229,5.1229,5.1229,5.1229,5.1229,5.1229,5.1124,5.0978,5.0393,4.9915,4.9687,4.9302,4.8849,4.8401,4.8521,4.8204,4.7373,4.7496,4.7419,4.708,4.7388,4.7527,4.7281,4.6419,4.568,4.5357,4.4849,4.461,4.461,4.461,4.461,4.461,4.461,4.461,4.461,4.461,4.461,4.461,4.461,4.461,4.461,4.461,4.4572,4.4465,4.3783,4.2938,4.2023,4.1163,4.0362,3.961,3.9388,3.9337,3.9228,3.8995,3.876,3.8575,3.8389,3.8202,3.8202,3.8202,3.8014,3.7701,3.7495,3.7303,3.7056,3.6978,3.6978,3.6978,3.6978,3.6978,3.6915,3.6811,3.6747,3.6628,3.6405,3.6166,3.6046,3.5777,3.548,3.5358,3.5113,3.488,4.588,4.588,4.588,4.5835,4.5835,4.588,4.5895,4.588,4.5895,4.588,4.588,4.5938,4.6287,4.685,4.7419,4.8116,4.8711,4.8754,4.9045,4.9572,4.9645,4.9703,4.9732,4.9732,4.9931,5.0169,4.9811,4.9808,5.0179,5.027,5.0554,5.1169,5.1199,5.1229,5.1229,5.1229,5.1229,5.1229,5.1229,5.1008,5.0622,4.999,4.9747,4.9802,4.9489,4.9001,4.8629,4.8563,4.8019,4.6711,4.7234,4.7019,4.5988,4.6896,4.7296,4.6742,4.6557,4.5957,4.4895,4.4633,4.461,4.461,4.461,4.461,4.461,4.461,4.461,4.461,4.461,4.461,4.461,4.461,4.461,4.461,4.4572,4.4511,4.4343,4.38,4.2878,4.1941,4.1165,4.0377,3.9529,3.9388,3.9388,3.9301,3.9031,3.8782,3.8708,3.8464,3.824,3.8202,3.8165,3.8052,3.7687,3.7572,3.738,3.7134,3.6978,3.6978,3.6978,3.6978,3.6978,3.6978,3.6954,3.6889,3.6747,3.6589,3.6405,3.6192,3.5938,3.5683,3.5521,3.544,3.5195,4.588,4.588,4.588,4.588,4.588,4.588,4.588,4.588,4.588,4.588,4.588,4.588,4.6011,4.6243,4.6461,4.7143,4.8058,4.813,4.8341,4.8625,4.8687,4.8781,4.8937,4.8922,4.9031,4.9189,4.9136,4.9294,4.9628,4.9971,5.03,5.0584,5.0973,5.1229,5.1229,5.1229,5.1229,5.1214,5.1369,5.1178,5.0623,5.0242,4.9887,4.9504,4.8935,4.8645,4.8578,4.8604,4.7989,4.665,4.6834,4.6542,4.5803,4.6449,4.6865,4.6588,4.6203,4.5726,4.5249,4.4841,4.461,4.461,4.461,4.461,4.461,4.461,4.461,4.461,4.461,4.461,4.461,4.461,4.461,4.4572,4.4458,4.4381,4.4236,4.3976,4.3365,4.2425,4.1325,4.0216,3.9664,3.9388,3.9388,3.9337,3.9068,3.8855,3.8745,3.8464,3.8202,3.8202,3.8202,3.8052,3.7649,3.761,3.7495,3.7187,3.6978,3.6978,3.6978,3.6978,3.6978,3.6978,3.6978,3.6978,3.685,3.6707,3.6563,3.6272,3.5978,3.5817,3.5642,3.5562,3.5318,4.588,4.588,4.588,4.588,4.588,4.588,4.588,4.588,4.588,4.588,4.588,4.588,4.5925,4.6015,4.6001,4.6483,4.7374,4.7561,4.7797,4.8204,4.8219,4.8326,4.8479,4.8479,4.8525,4.8634,4.8669,4.8805,4.9,4.9389,4.9762,5.0211,5.0737,5.1113,5.1309,5.1416,5.1463,5.1509,5.1649,5.1333,5.0622,5.0372,4.9919,4.9166,4.8615,4.8453,4.8604,4.8604,4.8112,4.708,4.6726,4.628,4.5726,4.6018,4.6265,4.6219,4.5849,4.5464,4.5264,4.4856,4.461,4.461,4.461,4.461,4.461,4.461,4.461,4.461,4.461,4.461,4.461,4.461,4.461,4.4572,4.4435,4.4281,4.4205,4.4011,4.3499,4.2558,4.1303,4.0292,3.9828,3.9559,3.9418,3.9388,3.9104,3.8892,3.8745,3.8538,3.8277,3.8202,3.8202,3.8066,3.7763,3.7663,3.7457,3.7134,3.6978,3.6978,3.6978,3.6978,3.6978,3.6978,3.6978,3.6978,3.6915,3.6825,3.6589,3.6312,3.6112,3.5992,3.5817,3.5642,3.544,4.588,4.588,4.588,4.588,4.588,4.588,4.588,4.588,4.588,4.594,4.5925,4.5925,4.6046,4.618,4.621,4.6402,4.6756,4.7106,4.7605,4.8229,4.8348,4.8348,4.838,4.835,4.8441,4.8684,4.8432,4.8282,4.8297,4.8461,4.9045,5.0002,5.0486,5.0984,5.1572,5.1803,5.1941,5.1926,5.1926,5.1379,5.0459,5.0302,4.9745,4.8752,4.8578,4.8563,4.8604,4.8604,4.8266,4.7573,4.6988,4.6311,4.5711,4.5588,4.5572,4.5588,4.5557,4.5234,4.4748,4.4656,4.461,4.461,4.461,4.461,4.461,4.461,4.461,4.461,4.461,4.461,4.461,4.461,4.461,4.4572,4.4396,4.422,4.4026,4.3832,4.338,4.2488,4.1324,4.0516,4.0262,3.9903,3.9538,3.9403,3.9213,3.8995,3.8819,3.8612,3.8427,3.8277,3.8202,3.8104,3.7915,3.7701,3.7419,3.7134,3.7017,3.6978,3.6978,3.6978,3.6978,3.6978,3.6978,3.6978,3.6993,3.6889,3.6786,3.6549,3.6365,3.6166,3.5992,3.5817,3.5602,4.588,4.588,4.588,4.588,4.588,4.588,4.588,4.588,4.588,4.597,4.609,4.609,4.6225,4.6462,4.6447,4.658,4.6829,4.6934,4.7126,4.7407,4.7437,4.7555,4.7688,4.7703,4.7747,4.7761,4.7669,4.7608,4.7713,4.8057,4.876,4.9524,5.0291,5.0939,5.1558,5.1834,5.1987,5.1941,5.1682,5.1071,5.0319,5.0048,4.9501,4.8701,4.8604,4.8604,4.8604,4.8604,4.8281,4.7665,4.7404,4.6788,4.5772,4.5141,4.491,4.4895,4.4895,4.4833,4.4671,4.461,4.461,4.461,4.461,4.461,4.461,4.461,4.461,4.461,4.461,4.461,4.461,4.461,4.461,4.4572,4.432,4.4104,4.3949,4.3675,4.3148,4.2515,4.2036,4.1452,4.0636,4.0157,3.9903,3.9478,3.9258,3.9031,3.8833,3.8649,3.8441,3.824,3.8217,3.8142,3.7953,3.7777,3.7495,3.7226,3.7095,3.6978,3.6978,3.6978,3.6978,3.6978,3.6978,3.6978,3.6993,3.6968,3.685,3.6747,3.6549,3.6365,3.6166,3.6006,3.5817,4.588,4.588,4.588,4.5925,4.6015,4.6015,4.6075,4.615,4.6164,4.6225,4.6314,4.6358,4.6476,4.6683,4.6727,4.6858,4.7004,4.7047,4.7106,4.7149,4.7149,4.7322,4.7553,4.7553,4.7568,4.7553,4.7553,4.7553,4.7583,4.7974,4.8559,4.9222,5.0049,5.0819,5.1501,5.1972,5.217,5.1925,5.1587,5.0986,5.0217,4.9897,4.9469,4.8867,4.8759,4.8744,4.8759,4.8676,4.8419,4.8019,4.7758,4.6957,4.5726,4.5203,4.4887,4.4656,4.461,4.461,4.461,4.461,4.461,4.461,4.461,4.461,4.461,4.461,4.461,4.461,4.461,4.461,4.461,4.461,4.461,4.461,4.4243,4.3934,4.3778,4.3488,4.3195,4.2791,4.2515,4.1991,4.1422,4.0561,4.0307,3.9807,3.945,3.9141,3.8943,3.8745,3.8538,3.8352,3.824,3.8179,3.8028,3.7801,3.7572,3.738,3.7187,3.7056,3.6978,3.6978,3.6978,3.6978,3.6978,3.6978,3.6993,3.6993,3.6915,3.685,3.6747,3.6603,3.6405,3.6286,3.6112,4.588,4.5925,4.5925,4.606,4.6225,4.6225,4.6358,4.655,4.655,4.655,4.6594,4.658,4.6712,4.6873,4.6931,4.7077,4.7251,4.7294,4.7409,4.7581,4.7624,4.7752,4.788,4.7922,4.7922,4.7922,4.7964,4.7964,4.7922,4.8013,4.8329,4.9044,4.9824,5.0579,5.1161,5.2133,5.213,5.1625,5.15,5.0836,4.9789,4.9758,4.9605,4.8929,4.8898,4.8898,4.8857,4.8718,4.8604,4.8512,4.7942,4.708,4.6003,4.5649,4.5234,4.4779,4.4656,4.461,4.461,4.461,4.461,4.461,4.461,4.461,4.461,4.461,4.461,4.461,4.461,4.461,4.461,4.461,4.4572,4.4549,4.4205,4.3832,4.3384,4.329,4.323,4.3195,4.2791,4.2396,4.2231,4.125,4.0711,4.0247,3.9822,3.9473,3.9104,3.887,3.8723,3.8538,3.8315,3.8202,3.8104,3.7801,3.7572,3.7457,3.7264,3.7056,3.6978,3.6978,3.6978,3.6978,3.6978,3.6978,3.6978,3.6978,3.6978,3.6954,3.685,3.6761,3.6642,3.647,3.6351,4.5821,4.6135,4.6135,4.6269,4.6506,4.6506,4.6506,4.6594,4.6594,4.6727,4.6785,4.68,4.699,4.7164,4.7207,4.7266,4.7352,4.7482,4.7681,4.788,4.8049,4.8049,4.8007,4.8007,4.8007,4.8007,4.8049,4.8007,4.8007,4.8049,4.8371,4.8981,4.9408,4.9906,5.0577,5.1028,5.1144,5.0897,5.0451,5.0128,4.9697,4.92,4.8903,4.8764,4.8702,4.8718,4.8718,4.8661,4.8604,4.8558,4.7973,4.7496,4.6973,4.6172,4.5557,4.5264,4.4887,4.461,4.461,4.461,4.461,4.461,4.461,4.461,4.461,4.461,4.461,4.461,4.461,4.461,4.461,4.461,4.4534,4.4396,4.4143,4.3832,4.3423,4.3305,4.3305,4.3275,4.311,4.2851,4.247,4.2051,4.1437,4.0666,4.0217,3.9815,3.9341,3.8958,3.876,3.8538,3.8366,3.824,3.8089,3.7801,3.761,3.7534,3.7303,3.7017,3.6978,3.6978,3.6978,3.6978,3.6978,3.6978,3.6978,3.6978,3.6978,3.6978,3.6954,3.685,3.6747,3.6628,3.651,4.573,4.609,4.6165,4.6358,4.6594,4.6727,4.68,4.6858,4.6902,4.6931,4.7062,4.7062,4.7164,4.7309,4.7309,4.7337,4.7424,4.7538,4.781,4.8133,4.8343,4.8343,4.8286,4.8244,4.8244,4.826,4.8244,4.8244,4.8244,4.826,4.8489,4.8867,4.9258,4.9653,5.0064,5.0472,5.0528,5.0266,4.9866,4.9574,4.922,4.8949,4.8821,4.8774,4.8759,4.8718,4.862,4.8604,4.8604,4.8527,4.8219,4.7912,4.7573,4.6896,4.6188,4.568,4.5226,4.4933,4.4671,4.461,4.461,4.461,4.461,4.461,4.461,4.461,4.461,4.461,4.461,4.461,4.461,4.461,4.4511,4.4335,4.4143,4.3856,4.3503,4.3369,4.3305,4.3305,4.3275,4.3185,4.2791,4.259,4.1916,4.1085,4.0546,3.9979,3.9429,3.9106,3.887,3.8649,3.8441,3.8329,3.8142,3.7839,3.761,3.7534,3.7303,3.7031,3.6978,3.6978,3.6978,3.6978,3.6978,3.6978,3.6978,3.6978,3.6978,3.6978,3.6978,3.6954,3.685,3.6772,3.6707,4.564,4.588,4.6135,4.6358,4.6639,4.6844,4.7019,4.7266,4.7266,4.7266,4.7266,4.7309,4.7266,4.7309,4.7309,4.7396,4.7581,4.7666,4.7907,4.8202,4.8453,4.8495,4.8495,4.8495,4.8521,4.8537,4.8563,4.8655,4.8721,4.8763,4.8716,4.8951,4.9424,4.9574,4.9624,5.0097,5.0082,4.9666,4.9512,4.922,4.8835,4.879,4.8857,4.8857,4.8816,4.8676,4.8537,4.8495,4.8495,4.8537,4.8578,4.8281,4.7788,4.7681,4.7065,4.6142,4.5803,4.5449,4.4957,4.488,4.4764,4.4795,4.4702,4.461,4.461,4.461,4.461,4.461,4.461,4.461,4.461,4.461,4.4534,4.4358,4.4181,4.3949,4.3754,4.3503,4.3305,4.3305,4.3305,4.3305,4.3155,4.2821,4.2222,4.1677,4.1055,4.0405,3.9778,3.9304,3.9054,3.8855,3.8649,3.8404,3.8179,3.7915,3.7687,3.7495,3.7226,3.6993,3.6978,3.6978,3.6978,3.6978,3.6978,3.6978,3.6978,3.6978,3.6978,3.6978,3.6978,3.6978,3.6978,3.6915,3.6836,4.5458,4.5925,4.6135,4.6432,4.68,4.6887,4.7077,4.7294,4.7309,4.7266,4.7309,4.7309,4.7309,4.7309,4.7309,4.7381,4.7624,4.7794,4.8091,4.8286,4.8328,4.837,4.8412,4.8495,4.8578,4.8563,4.8604,4.8881,4.9251,4.9328,4.9451,4.9466,4.9497,4.942,4.905,4.9143,4.9035,4.885,4.8866,4.882,4.8696,4.8646,4.8702,4.8661,4.8537,4.8328,4.816,4.8118,4.8133,4.8218,4.8396,4.8455,4.824,4.7896,4.7465,4.708,4.6603,4.6296,4.6095,4.5634,4.5357,4.5264,4.4949,4.461,4.461,4.461,4.461,4.461,4.461,4.461,4.461,4.461,4.4572,4.4496,4.4358,4.4205,4.4089,4.3645,4.3384,4.3344,4.3305,4.3305,4.3305,4.3215,4.2746,4.2231,4.1617,4.092,4.0248,3.9556,3.9253,3.9054,3.876,3.8516,3.8329,3.8043,3.7739,3.7572,3.7303,3.707,3.707,3.7031,3.707,3.7031,3.6978,3.6978,3.6978,3.6978,3.6978,3.6978,3.6978,3.6978,3.6978,3.6978,3.6978,4.5152,4.573,4.597,4.6269,4.6565,4.6712,4.6902,4.7077,4.7121,4.7164,4.7266,4.7309,4.7309,4.7309,4.7309,4.7439,4.7639,4.788,4.8049,4.8133,4.8175,4.8175,4.8175,4.8301,4.837,4.8521,4.8604,4.8866,4.9158,4.9543,4.9693,4.9739,4.9739,4.9543,4.9081,4.8773,4.8666,4.8635,4.8604,4.8604,4.8604,4.8604,4.8521,4.8453,4.826,4.8091,4.8007,4.8007,4.8007,4.8049,4.8218,4.837,4.848,4.8183,4.7958,4.7573,4.7327,4.6865,4.6573,4.6265,4.5895,4.5634,4.5249,4.4949,4.4718,4.461,4.461,4.461,4.461,4.461,4.461,4.461,4.461,4.4572,4.4435,4.432,4.4205,4.3817,4.3503,4.3478,4.3369,4.3344,4.3305,4.3305,4.303,4.241,4.2216,4.1557,4.0576,3.9928,3.9541,3.9246,3.8892,3.8627,3.8456,3.8156,3.783,3.7625,3.7457,3.7303,3.7226,3.7187,3.7109,3.707,3.6978,3.6978,3.6978,3.6978,3.6978,3.6978,3.6978,3.6978,3.6978,3.6978,3.6978,4.4676,4.5367,4.5609,4.5866,4.6135,4.6373,4.658,4.6785,4.6844,4.6975,4.7121,4.7179,4.7135,4.7164,4.7179,4.7294,4.7495,4.7666,4.7737,4.7752,4.7752,4.7737,4.7794,4.7837,4.8007,4.8412,4.8453,4.8602,4.912,4.947,5.0008,5.0005,4.9882,4.9789,4.9558,4.8989,4.8604,4.8604,4.8604,4.8604,4.8563,4.8521,4.8412,4.8175,4.8049,4.788,4.7837,4.7837,4.7852,4.7895,4.7922,4.8049,4.8218,4.8381,4.8337,4.7778,4.7732,4.7573,4.7204,4.6865,4.6526,4.5926,4.5733,4.538,4.4918,4.4672,4.4611,4.458,4.4549,4.461,4.461,4.461,4.461,4.4572,4.4435,4.4358,4.4243,4.3949,4.3769,4.3636,4.3463,4.3305,4.3305,4.329,4.297,4.2656,4.2515,4.2126,4.1145,4.0502,4.0166,4.0018,3.978,3.9186,3.8954,3.8304,3.7925,3.7854,3.7696,3.7552,3.7423,3.7341,3.7278,3.707,3.6978,3.7017,3.7017,3.6978,3.6978,3.6978,3.6978,3.6978,3.6978,3.6978,3.7017,4.404,4.4597,4.4876,4.5244,4.564,4.5925,4.6105,4.6343,4.6506,4.6697,4.6683,4.6727,4.6727,4.6727,4.6727,4.68,4.6975,4.7047,4.7091,4.7091,4.7091,4.7091,4.7091,4.7236,4.7409,4.7581,4.7928,4.8639,4.9601,5.0149,5.0435,5.1008,5.0713,5.0266,4.9682,4.9004,4.8578,4.8578,4.8563,4.8563,4.8495,4.837,4.8118,4.7837,4.7709,4.7624,4.7467,4.7439,4.7439,4.7439,4.7596,4.7666,4.7837,4.8118,4.8236,4.8212,4.826,4.8204,4.8035,4.7681,4.745,4.7117,4.6582,4.5905,4.536,4.5007,4.4716,4.4519,4.4511,4.4572,4.461,4.461,4.461,4.4572,4.4572,4.4473,4.4281,4.4065,4.3832,4.3714,4.3503,4.3305,4.3305,4.3305,4.314,4.294,4.2761,4.2545,4.1916,4.1384,4.1115,4.0987,4.0956,4.0214,3.9557,3.8681,3.8117,3.8165,3.8036,3.7873,3.7715,3.7615,3.7471,3.7264,3.7095,3.7095,3.7056,3.7056,3.7056,3.7134,3.7056,3.7017,3.7095,3.7134,3.7095,4.2814,4.3589,4.4022,4.4476,4.4908,4.506,4.523,4.5444,4.5716,4.5911,4.6046,4.6121,4.621,4.6165,4.618,4.6254,4.6343,4.6329,4.6329,4.6329,4.6343,4.6343,4.6343,4.6476,4.6624,4.6859,4.7361,4.8188,4.9378,4.9933,5.0569,5.1022,5.0759,5.0309,4.9861,4.9101,4.8629,4.8495,4.8453,4.837,4.8301,4.8091,4.7794,4.7666,4.751,4.7381,4.7352,4.7309,4.7309,4.7352,4.7396,4.7424,4.7596,4.7837,4.816,4.8286,4.848,4.8604,4.8604,4.825,4.7948,4.7426,4.6997,4.6432,4.5757,4.5236,4.4834,4.4472,4.4358,4.4496,4.4572,4.4572,4.461,4.461,4.4572,4.4496,4.432,4.4127,4.391,4.3675,4.3463,4.3344,4.3305,4.3305,4.3305,4.317,4.303,4.2761,4.25,4.2216,4.1848,4.1562,4.1403,4.092,4.0215,3.9512,3.8799,3.8707,3.8544,3.8342,3.8146,3.805,3.7739,3.7457,3.7341,3.7289,3.7303,3.738,3.7341,3.7303,3.7303,3.7303,3.7303,3.7303,3.7264,4.1509,4.2444,4.3067,4.3566,4.4021,4.4115,4.4242,4.4415,4.4741,4.4972,4.5216,4.5384,4.5475,4.552,4.5566,4.5625,4.5656,4.5642,4.5687,4.5702,4.5702,4.5656,4.5656,4.5702,4.5806,4.6059,4.6516,4.7494,4.8805,4.9687,5.035,5.0651,5.0464,5.0094,4.9741,4.8906,4.8466,4.8286,4.8244,4.8133,4.7937,4.7724,4.7596,4.7538,4.7396,4.7294,4.7309,4.7309,4.7309,4.7309,4.7309,4.7309,4.7396,4.7724,4.8007,4.8244,4.8453,4.8563,4.8563,4.8506,4.8147,4.767,4.7424,4.6863,4.6178,4.5516,4.4944,4.4478,4.4511,4.4496,4.4557,4.4572,4.4572,4.4572,4.4534,4.4458,4.4243,4.4011,4.3778,4.3581,4.3423,4.3344,4.3305,4.3305,4.3305,4.3305,4.3125,4.309,4.2821,4.2761,4.2462,4.201,4.1701,4.1388,4.0905,4.0505,3.995,3.9717,3.9426,3.9136,3.8837,3.8529,3.8213,3.7883,3.7725,3.7711,3.7687,3.761,3.7495,3.7495,3.7572,3.7572,3.7495,3.7457,3.7457,4.0347,4.1116,4.191,4.2457,4.2798,4.3184,4.3362,4.3457,4.3885,4.412,4.4228,4.4443,4.4583,4.463,4.4815,4.5,4.5124,4.517,4.517,4.517,4.5155,4.5155,4.5155,4.517,4.5216,4.541,4.5662,4.6924,4.8281,4.9433,5.017,5.0351,5.0062,4.9769,4.9148,4.856,4.8079,4.8034,4.7992,4.788,4.7666,4.7596,4.751,4.7381,4.7309,4.7309,4.7309,4.7309,4.7309,4.7309,4.7309,4.7309,4.7352,4.751,4.7752,4.8049,4.8328,4.8563,4.8537,4.8453,4.8256,4.7932,4.7752,4.7196,4.6505,4.5902,4.5268,4.4674,4.4862,4.4908,4.4611,4.4526,4.4572,4.4534,4.4473,4.4281,4.4089,4.3949,4.3699,4.3503,4.3344,4.3344,4.3305,4.3305,4.3305,4.3305,4.3275,4.32,4.3125,4.306,4.303,4.2617,4.2315,4.1986,4.1715,4.1298,4.1023,4.0714,4.0265,3.99,3.9576,3.9247,3.8735,3.8442,3.8283,3.8034,3.7839,3.7725,3.7649,3.7649,3.7763,3.7687,3.7572,3.7625,3.7715,3.8689,3.9748,4.0942,4.1683,4.2079,4.2262,4.2457,4.2639,4.3005,4.3245,4.3437,4.3689,4.3832,4.396,4.4101,4.4228,4.4429,4.4476,4.4569,4.4676,4.4723,4.4723,4.4723,4.4723,4.4723,4.5039,4.5417,4.6049,4.7367,4.8139,4.8771,4.9371,4.9209,4.8921,4.8571,4.8198,4.7955,4.7794,4.7666,4.7538,4.7467,4.7424,4.7381,4.7309,4.7309,4.7309,4.7309,4.7309,4.7309,4.7309,4.7309,4.7309,4.7352,4.7467,4.7666,4.7752,4.816,4.8412,4.8412,4.8343,4.816,4.7964,4.7664,4.7249,4.6581,4.6164,4.5781,4.5242,4.5147,4.5011,4.4871,4.4688,4.4633,4.4534,4.4358,4.4166,4.3972,4.3793,4.3636,4.3463,4.3305,4.3305,4.3305,4.3344,4.3344,4.329,4.3329,4.3339,4.3269,4.3215,4.32,4.3185,4.2966,4.2768,4.2525,4.2223,4.1953,4.1628,4.0979,4.0651,4.0379,4.0002,3.9465,3.9059,3.889,3.8543,3.8088,3.7915,3.7915,3.7901,3.7938,3.7949,3.7983,3.7987,3.8039,3.7406,3.8448,3.9954,4.0833,4.1198,4.1348,4.1498,4.1733,4.2043,4.2289,4.2595,4.2935,4.3211,4.3423,4.3533,4.3723,4.3926,4.3879,4.4021,4.4162,4.4209,4.4256,4.4317,4.4317,4.4457,4.4705,4.5016,4.5533,4.5856,4.6403,4.7184,4.8108,4.8253,4.8074,4.7923,4.7737,4.7581,4.7553,4.7424,4.7337,4.7309,4.7309,4.7309,4.7309,4.7309,4.7309,4.7309,4.7207,4.7164,4.7164,4.7092,4.7092,4.7092,4.7251,4.7409,4.7538,4.788,4.8076,4.8118,4.8076,4.7949,4.7752,4.7538,4.7229,4.6798,4.6546,4.6319,4.5812,4.5808,4.5555,4.5196,4.4902,4.4734,4.4504,4.4258,4.4089,4.3934,4.3714,4.3557,4.3423,4.3305,4.3305,4.3344,4.3384,4.3384,4.3329,4.3329,4.3409,4.3423,4.3423,4.3423,4.3423,4.326,4.3115,4.2996,4.2801,4.2688,4.2412,4.1744,4.1233,4.0928,4.0568,4.0118,3.9784,3.9479,3.9296,3.8991,3.8591,3.8217,3.8199,3.8196,3.8402,3.8498,3.8507,3.86,3.6866,3.7103,3.9003,3.9826,3.9942,4.0351,4.0605,4.0757,4.1211,4.1411,4.166,4.2204,4.2693,4.297,4.3211,4.3389,4.3648,4.3662,4.3709,4.3709,4.3662,4.3865,4.3974,4.4068,4.4176,4.4364,4.4593,4.472,4.4897,4.521,4.5959,4.678,4.7254,4.7259,4.7184,4.7151,4.7236,4.7294,4.7309,4.7309,4.7309,4.7309,4.7309,4.7309,4.7309,4.7309,4.7294,4.7106,4.6975,4.6975,4.6858,4.6771,4.6815,4.6931,4.7106,4.7322,4.7553,4.7709,4.7752,4.788,4.7837,4.7624,4.7452,4.7307,4.7085,4.7174,4.6875,4.6391,4.6339,4.5986,4.5525,4.5105,4.4871,4.4411,4.4104,4.391,4.3754,4.3542,4.3384,4.3344,4.3305,4.3305,4.3384,4.3478,4.3518,4.3463,4.3581,4.366,4.3699,4.3699,4.3636,4.3596,4.3423,4.3314,4.3235,4.309,4.2809,4.2622,4.2199,4.1689,4.1276,4.0931,4.08,4.0365,4.006,3.9987,3.9813,3.9247,3.8783,3.8522,3.8551,3.8928,3.9189,3.9276,3.9479,3.6021,3.6471,3.7824,3.8805,3.9478,3.9672,3.9929,4.0236,4.0491,4.0846,4.1311,4.1809,4.2253,4.2595,4.2741,4.3032,4.3389,4.3451,4.3485,4.3566,4.3662,4.3662,4.377,4.377,4.3818,4.396,4.4068,4.4176,4.4331,4.4597,4.4975,4.5651,4.6301,4.6413,4.6372,4.6712,4.6931,4.7077,4.7207,4.7309,4.7309,4.7309,4.7309,4.7309,4.7309,4.7309,4.7266,4.7062,4.6931,4.6844,4.6668,4.6594,4.655,4.6668,4.68,4.7033,4.7251,4.7381,4.7424,4.7596,4.7624,4.7482,4.7352,4.7309,4.7309,4.7309,4.7234,4.6976,4.6801,4.6362,4.5647,4.5187,4.4819,4.4254,4.391,4.3729,4.3596,4.3384,4.3344,4.3305,4.3305,4.3305,4.3423,4.3518,4.3557,4.3611,4.3754,4.391,4.3988,4.3949,4.3871,4.3754,4.3596,4.3438,4.3384,4.317,4.2955,4.2729,4.2555,4.2117,4.168,4.1729,4.1512,4.1047,4.0655,4.0554,4.0278,3.9741,3.9407,3.9247,3.9378,3.9668,3.9871,4.006,4.0234,3.5319,3.5773,3.6916,3.8026,3.8961,3.9102,3.9349,3.9659,3.9814,4.0236,4.101,4.1348,4.1746,4.2105,4.2462,4.2658,4.3032,4.3128,4.3245,4.3341,4.3328,4.3437,4.3471,4.3519,4.3566,4.3614,4.3757,4.3912,4.4082,4.4411,4.464,4.4918,4.5244,4.5623,4.6075,4.6447,4.6844,4.6931,4.7077,4.7251,4.7251,4.7309,4.7309,4.7309,4.7309,4.7309,4.7222,4.7077,4.6887,4.6756,4.658,4.6462,4.6417,4.6447,4.6535,4.6756,4.699,4.7149,4.7251,4.7337,4.7424,4.7352,4.7309,4.7309,4.7309,4.7309,4.7249,4.7234,4.6986,4.6542,4.5815,4.5374,4.4773,4.4219,4.3705,4.3503,4.3463,4.3369,4.3344,4.3305,4.3305,4.3305,4.3463,4.3596,4.3832,4.3871,4.3988,4.4127,4.4243,4.4205,4.4065,4.3949,4.3754,4.3636,4.3478,4.325,4.3036,4.2769,4.2581,4.2407,4.2155,4.2133,4.2063,4.1628,4.1294,4.1134,4.096,4.0771,4.0423,4.006,4.0234,4.0408,4.0844,4.1033,4.0945,3.4816,3.5007,3.6272,3.7404,3.8336,3.8671,3.8841,3.8945,3.9206,3.9659,4.0287,4.0896,4.1311,4.156,4.2069,4.2413,4.2658,4.2838,4.2922,4.3018,4.3067,4.3128,4.3211,4.3293,4.3341,4.3553,4.3614,4.3723,4.394,4.4082,4.4223,4.4457,4.483,4.529,4.588,4.6373,4.6668,4.6887,4.6902,4.7166,4.7342,4.7475,4.7623,4.7474,4.7489,4.7504,4.7281,4.7077,4.6844,4.6712,4.6447,4.6225,4.609,4.618,4.6269,4.6299,4.6653,4.6873,4.6931,4.7164,4.7309,4.7294,4.7309,4.7309,4.7309,4.7309,4.7309,4.7279,4.7289,4.6786,4.6192,4.5514,4.4846,4.4178,4.3718,4.3369,4.3369,4.3329,4.3344,4.3305,4.3305,4.3344,4.3503,4.3699,4.3972,4.4166,4.4243,4.4358,4.4419,4.4396,4.4243,4.4104,4.391,4.3754,4.3596,4.3369,4.317,4.285,4.2622,4.2433,4.2242,4.2133,4.2049,4.1976,4.186,4.1599,4.1787,4.1961,4.141,4.0887,4.096,4.1192,4.1671,4.186,4.1628,3.426,3.461,3.5608,3.6405,3.7137,3.7959,3.8368,3.8579,3.8893,3.931,3.9788,4.0147,4.0707,4.1211,4.161,4.2007,4.2462,4.2547,4.2693,4.2887,4.2887,4.2935,4.3018,4.308,4.3115,4.3149,4.3293,4.3451,4.3512,4.3798,4.3988,4.4209,4.4597,4.5106,4.5564,4.5956,4.6225,4.6565,4.7052,4.7629,4.7762,4.8193,4.8356,4.7982,4.7952,4.7773,4.7414,4.7151,4.6947,4.6771,4.6432,4.621,4.609,4.6135,4.609,4.6165,4.6432,4.6609,4.6844,4.7121,4.7309,4.7309,4.7309,4.7309,4.7309,4.7309,4.7309,4.7309,4.7381,4.6869,4.6286,4.5653,4.4963,4.4303,4.3793,4.3449,4.3344,4.3305,4.3305,4.3305,4.3305,4.3542,4.3699,4.3817,4.4089,4.4243,4.432,4.4396,4.4473,4.4511,4.4435,4.4258,4.4065,4.3871,4.366,4.3409,4.313,4.2809,4.2622,4.2514,4.2325,4.2133,4.2078,4.2034,4.2063,4.2092,4.2092,4.2063,4.1947,4.1729,4.1628,4.1599,4.186,4.202,4.1961,3.3615,3.395,3.4804,3.546,3.6127,3.721,3.7826,3.8157,3.8526,3.8945,3.9387,3.9594,4.016,4.0871,4.1261,4.1547,4.2204,4.2462,4.2547,4.279,4.2887,4.2887,4.2935,4.29,4.2935,4.2935,4.308,4.3225,4.3369,4.3594,4.3832,4.4082,4.4472,4.483,4.5244,4.5564,4.6026,4.65,4.7196,4.7806,4.8193,4.8656,4.891,4.8745,4.8551,4.8356,4.7804,4.7462,4.7198,4.6962,4.6668,4.6388,4.6314,4.618,4.609,4.6165,4.6358,4.658,4.699,4.7164,4.7309,4.7309,4.7309,4.7309,4.7309,4.7309,4.7309,4.7309,4.7309,4.6935,4.6396,4.5753,4.5391,4.4732,4.4483,4.4113,4.3933,4.3948,4.3758,4.3743,4.3638,4.3844,4.3979,4.4011,4.4166,4.4243,4.4343,4.4427,4.4496,4.445,4.4412,4.4258,4.4065,4.3832,4.3581,4.3329,4.305,4.2729,4.2622,4.2474,4.2325,4.2092,4.2092,4.2092,4.2092,4.2092,4.2092,4.2049,4.1976,4.1976,4.1976,4.199,4.2092,4.2092,4.2092,3.2891,3.3071,3.395,3.4674,3.5358,3.6602,3.7304,3.7649,3.8157,3.8514,3.8841,3.9374,3.9942,4.0453,4.1023,4.1411,4.1746,4.2217,4.24,4.2547,4.2755,4.2852,4.2887,4.29,4.29,4.29,4.2935,4.308,4.3273,4.3451,4.3689,4.4029,4.4443,4.4767,4.5107,4.5541,4.6083,4.6604,4.733,4.8049,4.8693,4.9114,4.9281,4.9283,4.9239,4.8925,4.8536,4.8267,4.7821,4.7391,4.6976,4.68,4.6594,4.6358,4.6269,4.6314,4.6491,4.6815,4.7092,4.7222,4.7309,4.7309,4.7309,4.7309,4.7309,4.7309,4.7309,4.7309,4.7294,4.692,4.6486,4.6259,4.6032,4.571,4.5518,4.5278,4.4991,4.4794,4.4558,4.4382,4.4231,4.4273,4.43,4.4341,4.4525,4.4378,4.4493,4.4497,4.4476,4.4188,4.4173,4.4089,4.391,4.3754,4.3503,4.3265,4.297,4.2662,4.2514,4.2407,4.2201,4.2092,4.2092,4.2092,4.2092,4.2092,4.2092,4.2092,4.2078,4.2092,4.2092,4.2092,4.2092,4.2092,4.2092,3.2718,3.2937,3.3594,3.4251,3.5057,3.627,3.7089,3.7596,3.7797,3.8063,3.8526,3.8893,3.9465,3.9942,4.0491,4.0997,4.1398,4.1796,4.2141,4.24,4.256,4.2741,4.2838,4.2838,4.2887,4.2887,4.2887,4.2935,4.3067,4.3307,4.3669,4.4001,4.4746,4.5029,4.5402,4.5907,4.6328,4.6846,4.7633,4.8398,4.9154,4.9683,4.9796,4.9801,4.9835,4.9507,4.9119,4.8955,4.8492,4.8,4.7718,4.7451,4.6829,4.6624,4.6491,4.6506,4.6668,4.6887,4.7019,4.7207,4.7309,4.7309,4.7309,4.7309,4.7309,4.7309,4.7309,4.7309,4.7309,4.7025,4.6815,4.6649,4.6566,4.6493,4.6301,4.602,4.5779,4.5707,4.5454,4.5242,4.505,4.5017,4.5013,4.4991,4.5083,4.4795,4.4667,4.4699,4.4604,4.4391,4.421,4.4155,4.388,4.3743,4.3459,4.3175,4.2864,4.2581,4.2392,4.2242,4.2107,4.2024,4.2051,4.2065,4.2067,4.2094,4.2092,4.2092,4.2175,4.2092,4.2092,4.2092,4.2092,4.2092,4.2092,3.2505,3.2763,3.3135,3.3874,3.4877,3.5795,3.661,3.7227,3.7489,3.785,3.825,3.8684,3.9102,3.9736,4.03,4.0757,4.1147,4.1597,4.1895,4.2043,4.2302,4.2387,4.2533,4.2679,4.2741,4.279,4.2838,4.2935,4.31,4.3657,4.4152,4.4678,4.535,4.5613,4.592,4.6403,4.6926,4.7396,4.799,4.8831,4.9545,5.0173,5.015,5.0221,5.0258,4.9965,4.9519,4.943,4.9073,4.8611,4.8357,4.8075,4.7421,4.7051,4.6727,4.6756,4.68,4.6975,4.7121,4.7207,4.7266,4.7309,4.7309,4.7309,4.7309,4.7309,4.7309,4.7309,4.7309,4.7264,4.7115,4.7023,4.7087,4.7147,4.6898,4.6705,4.6604,4.6549,4.6377,4.6163,4.6076,4.6042,4.5999,4.5852,4.5727,4.5489,4.5304,4.5218,4.5111,4.4865,4.4689,4.4603,4.4163,4.3773,4.3503,4.3197,4.2839,4.2468,4.2117,4.198,4.1955,4.2103,4.229,4.2217,4.2071,4.214,4.2208,4.223,4.2257,4.2216,4.2242,4.2351,4.2325,4.2175,4.2175,3.2179,3.2505,3.2813,3.3691,3.4796,3.5347,3.5991,3.6665,3.7262,3.7702,3.8051,3.8514,3.905,3.953,4.0096,4.0542,4.0946,4.1348,4.1647,4.1696,4.1944,4.2128,4.2226,4.2338,4.2435,4.2533,4.272,4.292,4.3318,4.3965,4.4822,4.5528,4.6056,4.6315,4.6448,4.6982,4.7525,4.8029,4.8359,4.8924,4.9688,5.012,5.0183,5.0408,5.0353,5.0224,4.9781,4.9562,4.9417,4.9141,4.8952,4.8835,4.8075,4.7598,4.7213,4.6931,4.6975,4.7062,4.7164,4.7251,4.7309,4.7309,4.7309,4.7309,4.7309,4.7309,4.7309,4.7309,4.7309,4.7309,4.7204,4.7203,4.7242,4.748,4.7467,4.7448,4.7502,4.7436,4.7288,4.713,4.7063,4.7015,4.6708,4.6601,4.6416,4.6174,4.6041,4.5908,4.5781,4.5582,4.5218,4.506,4.4601,4.4162,4.3773,4.346,4.2875,4.2466,4.2214,4.2231,4.2606,4.2609,4.2525,4.2653,4.2764,4.2415,4.2353,4.2519,4.257,4.2447,4.2514,4.2622,4.2541,4.2392,4.2284,3.1874,3.2223,3.3062,3.3965,3.4831,3.5313,3.5849,3.6417,3.6982,3.7411,3.7744,3.8262,3.8684,3.9154,3.9878,4.0338,4.0656,4.111,4.1448,4.1597,4.1733,4.1832,4.2029,4.2141,4.2177,4.2275,4.2489,4.2936,4.3655,4.4469,4.5178,4.5575,4.6292,4.6783,4.6974,4.7522,4.8034,4.8552,4.8679,4.9066,4.9722,5.0004,5.0149,5.0246,5.0283,5.0379,5.0224,5.0337,5.0105,4.9783,4.9849,4.9298,4.8371,4.8103,4.77,4.7342,4.7209,4.7207,4.7251,4.7309,4.7309,4.7309,4.7309,4.7309,4.7309,4.7309,4.7309,4.7309,4.7309,4.7309,4.7309,4.7352,4.7467,4.7767,4.8049,4.8149,4.8301,4.8199,4.8137,4.806,4.8009,4.7804,4.7481,4.7292,4.7119,4.6971,4.6807,4.6721,4.6773,4.6576,4.5878,4.5558,4.5057,4.465,4.427,4.3811,4.3321,4.3238,4.3168,4.3184,4.3242,4.3128,4.3099,4.3459,4.3573,4.3166,4.2945,4.3042,4.3077,4.2905,4.2836,4.3002,4.2813,4.2622,4.2514,3.1772,3.2099,3.2898,3.3862,3.4773,3.5083,3.56,3.6294,3.6862,3.7197,3.7465,3.8039,3.8566,3.8841,3.9569,4.0083,4.0351,4.0757,4.1047,4.1235,4.1385,4.1498,4.1696,4.1845,4.1895,4.1993,4.2405,4.3022,4.3913,4.4698,4.5326,4.6027,4.6777,4.7234,4.7491,4.7915,4.8373,4.8831,4.8895,4.9192,4.9634,4.9892,5.0038,5.0086,5.0231,5.039,5.0534,5.0614,5.0502,5.0243,5.0221,4.9986,4.9179,4.8611,4.8147,4.7773,4.7534,4.7309,4.7339,4.7354,4.7339,4.7324,4.7309,4.7309,4.7309,4.7309,4.7309,4.7309,4.7309,4.7309,4.7337,4.7381,4.7639,4.788,4.8091,4.8267,4.8372,4.8424,4.8394,4.8378,4.8358,4.8312,4.8065,4.805,4.786,4.7585,4.7433,4.722,4.733,4.7309,4.6685,4.6096,4.5667,4.5204,4.4861,4.4354,4.3847,4.3849,4.4066,4.3892,4.3791,4.3675,4.3661,4.4124,4.424,4.3905,4.3742,4.3881,4.3711,4.3548,4.3464,4.3426,4.3193,4.2975,4.285,3.1772,3.2077,3.2617,3.3515,3.4584,3.4785,3.5324,3.6179,3.6827,3.7131,3.7239,3.7986,3.8461,3.8893,3.9374,3.9724,4.0083,4.0504,4.0694,4.0795,4.0896,4.1097,4.1298,4.1461,4.161,4.1925,4.2377,4.3124,4.4024,4.4847,4.5714,4.6716,4.726,4.7647,4.7764,4.8032,4.8373,4.8745,4.8994,4.9242,4.9537,4.9732,4.9926,5.0038,5.0135,5.0294,5.0438,5.0581,5.0647,5.0659,5.0504,5.0254,4.9867,4.9239,4.8775,4.8401,4.8072,4.7788,4.7578,4.7578,4.7459,4.7354,4.7339,4.7324,4.7339,4.7309,4.7309,4.7309,4.7309,4.7309,4.7381,4.751,4.7709,4.8007,4.8218,4.837,4.8495,4.8604,4.8604,4.8604,4.8604,4.8589,4.8589,4.8573,4.8381,4.8118,4.7922,4.7709,4.751,4.7424,4.7098,4.6658,4.6263,4.5856,4.5493,4.5142,4.4705,4.4763,4.4953,4.4586,4.4409,4.466,4.4807,4.482,4.4821,4.4748,4.4771,4.4908,4.462,4.434,4.4157,4.4053,4.3858,4.3624,4.3295,3.1772,3.2026,3.2392,3.3068,3.3879,3.4509,3.5129,3.5776,3.6699,3.7131,3.7292,3.772,3.825,3.8514,3.9102,3.9517,3.9839,4.0198,4.0453,4.0555,4.0593,4.0744,4.0946,4.1147,4.1348,4.1815,4.2375,4.3082,4.3788,4.478,4.567,4.6216,4.7047,4.7466,4.7712,4.8018,4.8358,4.8695,4.8994,4.9242,4.9781,5.0038,5.0038,5.0183,5.0342,5.039,5.0534,5.0647,5.0713,5.0795,5.0909,5.072,5.0392,5.0004,4.9584,4.9224,4.8879,4.8579,4.8369,4.8264,4.8144,4.7739,4.7694,4.7531,4.7501,4.7426,4.7411,4.7381,4.7381,4.7352,4.7396,4.7553,4.7752,4.8049,4.8301,4.8453,4.8563,4.8604,4.8604,4.8604,4.8604,4.8604,4.8604,4.8547,4.848,4.8286,4.8218,4.7964,4.7666,4.7538,4.7467,4.7189,4.6839,4.6666,4.6388,4.6182,4.5874,4.5903,4.5845,4.5595,4.5609,4.6035,4.6123,4.5756,4.5874,4.5932,4.597,4.5815,4.5639,4.5327,4.4966,4.4749,4.4497,4.4191,4.3862]}]]